     2.11           OBSERVATION DATA    G (GPS)             RINEX VERSION / TYPE
teqc 2010Oct21 OPUS Account 20111028 19:45:57UTC            PGM / RUN BY / DATE
F 4                                                         MARKER NAME
2045                                                        MARKER NUMBER
CSMIDDLETON NGS                                             OBSERVER / AGENCY
4624K01648 TRIMBLE NETR5 4.41                               REC # / TYPE / VERS
12611996 TRM41249.00 NONE                                   ANT # / TYPE
  -720519.0242 -5592123.7865  2971523.3683                  APPROX POSITION XYZ
        2.0000        0.0000        0.0000                  ANTENNA: DELTA H/E/N
     1     1                                                WAVELENGTH FACT L1/2
     5    L1    L2    C1    P1    P2                        # / TYPES OF OBSERV
    15                                                      LEAP SECONDS
  2011     8    26     0     0    0.0000000     GPS         TIME OF FIRST OBS
                                                            END OF HEADER
 11  8 26  0  0  0.0000000  0  9G04G12G10G17G09G05G02G25G30
 114729989.12018  89400099.92255  21832366.711                    21832376.297
 112449691.98718  87623207.30217  21398466.414                    21398475.547
 109715965.75118  85493126.28456  20878236.172                    20878245.535
 122189199.08017  95212445.28816  23251838.977                    23251849.656
 124960186.11816  97371634.18154  23779147.852                    23779162.438
 114618147.00617  89312926.28117  21811086.563                    21811096.727
 108516970.75118  84558814.41056  20650067.664                    20650074.492
 126334481.55716  98442511.76216  24040660.656                    24040673.945
 126761889.56017  98775640.25053  24122009.359                    24122019.980
 11  8 26  0  0 30.0000000  0  9G04G12G10G17G09G05G02G25G30
 114807440.838 8  89460451.89645  21847104.836                    21847114.902
 112391899.999 8  87578174.639 7  21387468.648                    21387478.086
 109722923.053 8  85498547.58746  20879560.039                    20879569.648
 122241986.288 7  95253578.154 6  23261883.680                    23261895.801
 125038486.244 6  97432647.10544  23794048.289                    23794062.691
 114531420.241 7  89245347.099 7  21794582.523                    21794592.879
 108519021.760 8  84560412.61146  20650458.148                    20650464.879
 126236133.362 6  98365876.884 6  24021946.305                    24021958.242
 126660981.612 6  98697010.74943  24102806.945                    24102817.453
 11  8 26  0  1  0.0000000  0  9G04G12G10G17G09G05G02G25G30
 114885007.181 8  89520893.19045  21861865.297                    21861874.746
 112334550.365 8  87533486.652 7  21376555.375                    21376564.656
 109730510.964 8  85504460.27446  20881004.031                    20881013.020
 122294936.272 7  95294837.829 7  23271959.867                    23271971.914
 125116925.338 7  97493768.30644  23808974.938                    23808989.559
 114445025.863 7  89178026.906 7  21778142.555                    21778152.637
 108521346.339 7  84562223.99146  20650900.133                    20650907.145
 126137976.137 7  98289390.817 6  24003267.070                    24003279.578
 126560309.399 6  98618564.87743  24083649.945                    24083660.145
 11  8 26  0  1 30.0000000  0  9G04G12G10G17G09G05G02G25G30
 114962686.454 8  89581422.47845  21876647.281                    21876656.773
 112277645.693 8  87489145.403 7  21365726.930                    21365735.676
 109738729.795 8  85510864.59146  20882567.828                    20882577.266
 122348049.533 7  95336224.733 6  23282066.852                    23282078.875
 125195500.214 6  97554995.32044  23823927.227                    23823942.438
 114358966.378 7  89110967.666 7  21761765.930                    21761775.297
 108523943.316 8  84564247.63646  20651394.453                    20651401.070
 126040012.477 7  98213055.571 6  23984625.211                    23984637.410
 126459875.840 6  98540304.98843  24064538.289                    24064548.797
 11  8 26  0  2  0.0000000  0  9G04G12G10G17G09G05G02G25G30
 115040476.803 7  89642038.32945  21891449.773                    21891459.598
 112221188.290 8  87445152.671 7  21354983.391                    21354992.059
 109747578.931 8  85517760.06546  20884252.227                    20884261.695
 122401326.239 7  95377739.014 7  23292204.719                    23292217.184
 125274207.595 7  97616325.59144  23838904.813                    23838919.523
 114273244.691 7  89044171.641 7  21745453.133                    21745462.891
 108526811.340 7  84566482.46746  20651940.195                    20651947.082
 125942245.140 7  98136873.283 6  23966020.688                    23966033.055
 126359683.625 6  98462233.19743  24045471.805                    24045482.801
 11  8 26  0  2 30.0000000  0  9G04G12G10G17G09G05G02G25G30
 115118376.182 8  89702739.13545  21906274.000                    21906283.625
 112165180.424 8  87401510.231 7  21344325.289                    21344333.965
 109757058.118 8  85525146.46946  20886055.930                    20886065.047
 122454767.460 7  95419381.487 6  23302374.656                    23302386.367
 125353043.942 6  97677756.33644  23853907.203                    23853922.031
 114187863.575 7  88977641.000 7  21729205.852                    21729215.844
 108529949.521 8  84568927.81746  20652537.289                    20652544.301
 125844676.721 7  98060846.002 6  23947454.563                    23947466.223
 126259735.618 6  98384351.71943  24026451.648                    24026463.922
 11  8 26  0  3  0.0000000  0  9G04G12G10G17G09G05G02G25G30
 115196382.877 8  89763523.55945  21921118.297                    21921127.715
 112109624.517 8  87358219.960 7  21333753.586                    21333761.957
 109767167.451 8  85533023.91446  20887979.461                    20887988.488
 122508373.441 7  95461152.327 6  23312575.891                    23312587.332
 125432005.866 6  97739284.96543  23868933.523                    23868948.246
 114102825.800 7  88911377.886 7  21713023.281                    21713033.895
 108533356.281 8  84571582.45046  20653185.609                    20653192.473
 125747309.861 7  97984975.782 7  23928925.930                    23928937.969
 126160034.719 6  98306662.82943  24007478.641                    24007490.891
 11  8 26  0  3 30.0000000  0  9G04G12G10G17G09G05G02G25G30
 115274494.792 8  89824389.97445  21935982.133                    21935992.492
 112054522.287 8  87315283.210 7  21323267.938                    21323276.277
 109777906.563 8  85541392.08646  20890022.945                    20890032.129
 122562144.870 7  95503052.098 6  23322808.117                    23322819.586
 125511090.171 6  97800908.94043  23883982.344                    23883997.137
 114018134.283 8  88845384.588 7  21696907.453                    21696917.324
 108537030.794 8  84574445.71846  20653884.836                    20653891.676
 125650147.003 7  97909264.532 6  23910436.227                    23910448.980
 126060583.745 6  98229168.61343  23988554.906                    23988566.078
 11  8 26  0  4  0.0000000  0  9G04G12G10G17G09G05G02G25G30
 115352709.730 8  89885336.65645  21950865.742                    21950876.289
 111999875.686 8  87272701.476 7  21312869.063                    21312877.738
 109789275.124 8  85550250.72846  20892186.398                    20892196.160
 122616082.012 7  95545080.970 6  23333072.102                    23333083.539
 125590293.132 6  97862625.40143  23899054.742                    23899069.258
 113933791.318 8  88779662.886 7  21680857.195                    21680867.359
 108540970.858 7  84577515.90046  20654634.938                    20654641.363
 125553190.535 7  97833714.150 6  23891985.750                    23891998.602
 125961385.039 7  98151870.98843  23969678.273                    23969689.270
 11  8 26  0  4 30.0000000  0  9G04G12G10G17G09G05G02G25G30
 115431026.361 8  89946362.59045  21965769.313                    21965779.254
 111945687.332 8  87230476.816 7  21302557.172                    21302566.164
 109801272.887 8  85559599.66846  20894469.641                    20894478.387
 122670185.559 7  95587239.559 6  23343368.680                    23343379.316
 125669611.799 6  97924432.00143  23914148.820                    23914162.965
 113849799.871 8  88714215.088 7  21664874.133                    21664884.359
 108545176.311 8  84580792.88846  20655435.023                    20655441.668
 125456443.532 7  97758326.968 6  23873575.195                    23873587.664
 125862441.901 7  98074772.47743  23950849.656                    23950860.262
 11  8 26  0  5  0.0000000  0  9G04G12G10G17G09G05G02G25G30
 115509442.941 8  90007466.39445  21980691.609                    21980701.676
 111891960.122 8  87188611.492 7  21292332.953                    21292341.758
 109813899.988 8  85569439.00346  20896872.438                    20896881.391
 122724456.331 7  95629528.417 6  23353696.055                    23353706.469
 125749042.991 7  97986326.26743  23929264.094                    23929279.137
 113766163.149 8  88649043.717 7  21648958.336                    21648968.648
 108549646.241 8  84584275.95746  20656285.727                    20656292.430
 125359908.823 7  97683105.219 6  23855205.063                    23855217.227
 125763757.419 7  97997875.48543  23932070.695                    23932080.191
 11  8 26  0  5 30.0000000  0  9G04G12G10G17G09G05G02G25G30
 115587957.615 8  90068646.62945  21995632.734                    21995642.621
 111838695.396 8  87147106.539 7  21282197.430                    21282205.930
 109827155.714 8  85579768.17246  20899394.547                    20899403.836
 122778894.558 7  95671947.777 6  23364054.453                    23364066.109
 125828583.030 7  98048305.32044  23944399.969                    23944415.246
 113682883.619 8  88584150.661 7  21633110.563                    21633121.035
 108554379.069 8  84587963.88246  20657185.906                    20657193.070
 125263588.855 7  97608050.759 6  23836875.289                    23836888.473
 125665334.203 7  97921182.05042  23913341.172                    23913350.328
 11  8 26  0  6  0.0000000  0  9G04G12G10G17G09G05G02G25G30
 115666568.375 7  90129901.73345  22010591.352                    22010601.176
 111785894.997 8  87105963.392 7  21272149.109                    21272157.945
 109841039.910 8  85590587.04146  20902036.891                    20902045.895
 122833501.005 7  95714498.210 6  23374446.055                    23374457.082
 125908228.442 7  98110366.51843  23959556.375                    23959571.012
 113599963.716 8  88519537.834 7  21617331.844                    21617341.918
 108559373.331 8  84591855.53346  20658136.422                    20658143.301
 125167486.263 7  97533165.635 6  23818588.297                    23818600.699
 125567174.910 6  97844694.30143  23894662.289                    23894671.559
 11  8 26  0  6 30.0000000  0  9G04G12G10G17G09G05G02G25G30
 115745273.213 7  90191230.14245  22025568.422                    22025578.672
 111733561.231 8  87065183.863 7  21262190.695                    21262199.270
 109855552.013 8  85601895.19946  20904798.617                    20904807.609
 122888276.132 7  95757180.075 6  23384869.758                    23384880.836
 125987975.995 7  98172507.26844  23974731.445                    23974746.922
 113517406.328 8  88455207.487 7  21601621.148                    21601631.445
 108564627.759 8  84595949.90046  20659136.500                    20659143.121
 125071603.535 7  97458451.852 6  23800342.602                    23800355.469
 125469282.364 6  97768414.45743  23876033.773                    23876044.391
 11  8 26  0  7  0.0000000  0  9G04G12G10G17G09G05G02G25G30
 115824070.664 7  90252630.72245  22040563.539                    22040573.156
 111681696.324 8  87024769.662 7  21252320.898                    21252329.465
 109870691.285 8  85613692.06446  20907679.063                    20907688.141
 122943220.299 7  95799993.680 6  23395324.820                    23395335.898
 126067822.509 7  98234725.12344  23989925.938                    23989941.355
 113435214.164 7  88391161.721 7  21585980.531                    21585990.945
 108570141.285 8  84600246.17246  20660185.539                    20660192.367
 124975943.385 7  97383911.510 7  23782139.367                    23782151.746
 125371659.342 6  97692344.68543  23857457.555                    23857467.000
 11  8 26  0  7 30.0000000  0  9G04G12G10G17G09G05G02G25G30
 115902959.293 7  90314102.34045  22055575.156                    22055585.457
 111630302.960 8  86984722.904 7  21242541.375                    21242550.355
 109886457.928 8  85625977.78146  20910679.430                    20910688.828
 122998334.005 7  95842939.364 6  23405813.148                    23405823.660
 126147764.972 7  98297017.75744  24005138.695                    24005153.934
 113353390.151 8  88327402.826 7  21570409.797                    21570419.773
 108575913.356 8  84604743.90546  20661284.031                    20661290.473
 124880509.023 7  97309547.107 7  23763978.375                    23763991.164
 125274309.191 6  97616487.54643  23838931.250                    23838942.336
 11  8 26  0  8  0.0000000  0  9G04G12G10G17G09G05G02G25G30
 115981936.837 7  90375643.25745  22070604.266                    22070614.391
 111579382.909 8  86945044.953 7  21232851.305                    21232860.082
 109902850.873 8  85638751.52046  20913799.156                    20913808.012
 123053617.964 7  95886017.735 6  23416333.055                    23416344.492
 126227799.507 6  98359382.13544  24020368.250                    24020383.926
 113271936.646 8  88263932.644 7  21554910.219                    21554919.648
 108581941.920 8  84609441.49446  20662430.617                    20662437.676
 124785302.606 7  97235360.340 7  23745861.359                    23745874.258
 125177234.230 7  97540844.83144  23820459.242                    23820469.602
 11  8 26  0  8 30.0000000  0  9G04G12G10G17G09G05G02G25G30
 116061001.649 7  90437252.15445  22085650.445                    22085659.961
 111528938.258 8  86905737.444 7  21223252.344                    21223260.762
 109919870.218 8  85652013.36646  20917037.688                    20917046.602
 123109072.882 7  95929229.300 6  23426885.898                    23426897.188
 126307923.087 6  98421815.91944  24035616.344                    24035631.586
 113190856.939 8  88200753.726 7  21539480.953                    21539490.391
 108588226.464 8  84614338.55046  20663626.898                    20663633.602
 124690326.982 7  97161353.433 7  23727788.125                    23727801.172
 125080437.633 7  97465419.00144  23802039.109                    23802049.289
 11  8 26  0  9  0.0000000  0  9G04G12G10G17G09G05G02G25G30
 116140151.860 7  90498927.60945  22100711.633                    22100722.121
 111478970.712 8  86866801.701 7  21213743.492                    21213752.262
 109937514.859 8  85665762.45646  20920395.703                    20920404.305
 123164698.870 6  95972574.165 6  23437470.555                    23437482.484
 126388132.257 6  98484316.36844  24050879.453                    24050895.172
 113110152.987 7  88137867.599 7  21524123.688                    21524132.793
 108594765.192 8  84619433.68346  20664871.227                    20664877.797
 124595584.710 7  97087528.335 6  23709759.008                    23709771.480
 124983921.930 7  97390212.03644  23783673.141                    23783682.961
 11  8 26  0  9 30.0000000  0  9G04G12G10G17G09G05G02G25G30
 116219385.815 7  90560668.31745  22115789.953                    22115799.582
 111429482.551 8  86828239.515 7  21204326.195                    21204334.906
 109955784.665 8  85679998.68746  20923871.852                    20923880.938
 123220496.450 6  96016052.774 6  23448088.813                    23448100.195
 126468423.825 6  98546881.03444  24066158.531                    24066174.340
 113029827.719 8  88075276.545 7  21508837.828                    21508847.480
 108601557.054 8  84624726.05746  20666163.961                    20666170.617
 124501078.538 7  97013887.224 6  23691775.234                    23691787.922
 124887690.063 6  97315226.22443  23765360.328                    23765370.328
 11  8 26  0 10  0.0000000  0  9G04G12G10G17G09G05G02G25G30
 116298701.807 7  90622472.94445  22130882.445                    22130892.852
 111380475.964 8  86790052.583 7  21195000.570                    21195009.219
 109974678.945 8  85694721.51346  20927467.430                    20927476.648
 123276466.285 7  96059665.561 6  23458739.609                    23458751.172
 126548794.625 6  98609507.41344  24081452.359                    24081468.059
 112949883.687 8  88012982.574 7  21493625.625                    21493634.848
 108608601.085 8  84630214.92946  20667504.156                    20667510.734
 124406811.243 7  96940432.249 6  23673836.703                    23673849.152
 124791744.926 6  97240463.83943  23747102.148                    23747112.375
 11  8 26  0 10 30.0000000  0  9G04G12G10G17G09G05G02G25G30
 116378098.120 7  90684340.14945  22145991.570                    22146001.500
 111331952.508 8  86752242.110 7  21185766.727                    21185775.711
 109994196.938 8  85709930.35546  20931181.375                    20931190.980
 123332608.777 7  96103412.923 6  23469422.852                    23469435.020
 126629241.103 6  98672192.78843  24096761.563                    24096776.941
 112870323.597 8  87950987.770 7  21478485.203                    21478495.047
 108615895.721 8  84635899.07546  20668892.430                    20668898.691
 124312785.339 7  96867165.368 6  23655944.273                    23655956.402
 124696089.197 6  97165926.98443  23728899.227                    23728909.672
 11  8 26  0 11  0.0000000  0  9G04G12G10G17G09G05G02G25G30
 116457573.061 7  90746268.63845  22161114.516                    22161124.684
 111283915.053 8  86714810.344 7  21176625.758                    21176634.094
 110014338.048 8  85725624.74146  20935014.148                    20935023.402
 123388924.569 7  96147295.299 6  23480139.500                    23480151.285
 126709760.244 7  98734934.79044  24112083.805                    24112099.672
 112791150.557 8  87889294.572 7  21463419.172                    21463428.375
 108623440.102 8  84641777.84146  20670328.023                    20670334.496
 124219003.678 7  96794088.813 6  23638097.680                    23638110.395
 124600725.831 6  97091617.93143  23710752.938                    23710762.434
 11  8 26  0 11 30.0000000  0  9G04G12G10G17G09G05G02G25G30
 116537124.951 7  90808257.08145  22176253.125                    22176263.277
 111236364.723 8  86677758.162 7  21167577.383                    21167585.594
 110035101.516 8  85741804.08946  20938965.422                    20938974.453
 123445414.029 7  96191313.032 6  23490889.805                    23490901.570
 126790348.739 7  98797730.82644  24127419.648                    24127435.441
 112712366.539 8  87827904.494 7  21448426.594                    21448436.348
 108631232.889 8  84647850.17146  20671810.961                    20671817.496
 124125468.764 7  96721204.564 6  23620298.125                    23620310.957
 124505657.609 7  97017538.85343  23692661.953                    23692671.945
 11  8 26  0 12  0.0000000  0  9G04G12G10G17G09G05G02G25G30
 116616751.997 7  90870304.07345  22191405.938                    22191416.098
 111189303.829 8  86641087.364 7  21158622.031                    21158630.555
 110056486.763 8  85758467.93046  20943034.969                    20943044.551
 123502077.387 6  96235466.264 6  23501672.344                    23501683.949
 126871003.269 7  98860578.30243  24142767.227                    24142783.176
 112633974.035 7  87766819.500 7  21433509.047                    21433519.031
 108639272.715 8  84654114.99146  20673340.977                    20673347.590
 124032183.340 7  96648514.729 6  23602546.563                    23602559.496
 124410887.374 7  96943691.97044  23674627.914                    23674637.785
 11  8 26  0 12 30.0000000  0  9G04G12G10G17G09G05G02G25G30
 116696452.361 7  90932408.20645  22206572.367                    22206582.656
 111142733.903 8  86604799.136 7  21149760.156                    21149768.383
 110078492.641 8  85775615.37846  20947222.398                    20947231.250
 123558915.494 7  96279755.676 6  23512488.016                    23512500.137
 126951720.257 7  98923474.45043  24158127.867                    24158143.301
 112555975.879 8  87706041.786 7  21418666.953                    21418676.473
 108647558.207 8  84660571.23646  20674917.664                    20674924.039
 123939149.787 7  96576021.153 6  23584842.805                    23584855.617
 124316417.675 7  96870079.25244  23656650.703                    23656660.906
 11  8 26  0 13  0.0000000  0  9G04G12G10G17G09G05G02G25G30
 116776224.752 7  90994568.46445  22221752.797                    22221762.844
 111096657.182 8  86568895.230 7  21140991.734                    21141000.281
 110101118.666 8  85793246.06746  20951527.898                    20951537.016
 123615928.493 6  96324181.339 6  23523337.852                    23523349.266
 127032496.759 7  98986416.91143  24173499.070                    24173514.953
 112478374.630 8  87645573.352 7  21403899.578                    21403909.371
 108656088.605 8  84667218.31846  20676540.609                    20676547.211
 123846371.023 7  96503726.133 6  23567187.352                    23567200.121
 124222251.635 7  96796703.15344  23638731.266                    23638742.004
 11  8 26  0 13 30.0000000  0  9G04G12G10G17G09G05G02G25G30
 116856067.255 7  91056783.37445  22236946.031                    22236956.766
 111051075.977 8  86533377.435 7  21132318.039                    21132326.625
 110124364.109 8  85811359.42846  20955951.203                    20955960.285
 123673117.214 7  96368743.953 6  23534220.570                    23534231.871
 127113329.387 6  99049403.12843  24188881.352                    24188896.473
 112401173.182 7  87585416.443 7  21389208.914                    21389218.227
 108664862.697 8  84674055.29346  20678210.313                    20678216.617
 123753849.937 7  96431631.899 6  23549581.344                    23549594.059
 124128392.020 7  96723565.81844  23620870.414                    23620880.941
 11  8 26  0 14  0.0000000  0  9G04G12G10G17G09G05G02G25G30
 116935978.339 7  91119051.71845  22252152.508                    22252162.520
 111005992.393 8  86498247.384 7  21123738.672                    21123746.953
 110148227.939 8  85829954.64046  20960492.758                    20960501.809
 123730481.893 7  96413443.663 6  23545137.055                    23545147.781
 127194215.131 6  99112430.77043  24204273.953                    24204289.008
 112324374.089 8  87525573.062 7  21374594.023                    21374604.031
 108673879.228 8  84681081.19346  20679926.375                    20679932.797
 123661589.072 7  96359740.402 6  23532025.039                    23532037.508
 124034841.793 6  96650669.60144  23603068.523                    23603078.520
 11  8 26  0 14 30.0000000  0  9G04G12G10G17G09G05G02G25G30
 117015956.517 7  91181372.33445  22267372.039                    22267382.055
 110961407.786 8  86463506.154 7  21115254.539                    21115262.746
 110172709.759 8  85849031.40246  20965151.195                    20965160.387
 123788022.903 6  96458280.795 6  23556085.914                    23556097.590
 127275150.690 6  99175497.22543  24219675.484                    24219691.258
 112247979.404 8  87466044.808 7  21360056.766                    21360066.715
 108683136.861 8  84688294.95746  20681687.195                    20681694.195
 123569591.063 7  96288053.735 6  23514517.984                    23514530.238
 123941603.675 6  96578016.59343  23585325.594                    23585335.332
 11  8 26  0 15  0.0000000  0  9G04G12G10G17G09G05G02G25G30
 117095999.846 7  91243743.71845  22282604.180                    22282614.039
 110917323.874 8  86429155.070 7  21106865.586                    21106874.219
 110197808.691 8  85868589.03546  20969927.609                    20969936.504
 123845740.672 6  96503255.649 6  23567069.320                    23567080.887
 127356132.830 6  99238600.00243  24235086.133                    24235101.461
 112171991.828 8  87406833.776 7  21345596.648                    21345606.199
 108692634.175 8  84695695.48146  20683494.813                    20683501.605
 123477858.611 7  96216573.991 6  23497062.219                    23497074.207
 123848680.355 6  96505608.87643  23567642.859                    23567652.754
 11  8 26  0 15 30.0000000  0  9G04G12G10G17G09G05G02G25G30
 117176106.826 7  91306164.71845  22297848.203                    22297858.531
 110873742.781 8  86395195.794 7  21098572.500                    21098581.281
 110223523.735 8  85888626.75146  20974820.828                    20974829.949
 123903635.838 6  96548368.734 6  23578086.383                    23578097.793
 127437158.351 6  99301736.59643  24250504.609                    24250520.645
 112096414.176 8  87347942.167 7  21331214.688                    21331224.750
 108702370.303 8  84703282.11046  20685347.492                    20685354.320
 123386394.332 7  96145303.232 7  23479656.164                    23479669.633
 123756074.733 7  96433448.68643  23550020.414                    23550030.199
 11  8 26  0 16  0.0000000  0  9G04G12G10G17G09G05G02G25G30
 117256275.782 7  91368633.98945  22313103.578                    22313114.309
 110830666.116 8  86361629.572 7  21090375.078                    21090383.641
 110249853.465 7  85909143.44046  20979831.031                    20979840.164
 123961708.582 6  96593620.204 6  23589137.484                    23589148.906
 127518223.966 6  99364904.39943  24265930.789                    24265947.020
 112021248.544 7  87289371.611 7  21316911.555                    21316921.086
 108712343.838 8  84711053.72746  20687245.500                    20687252.102
 123295200.903 7  96074243.496 7  23462303.094                    23462315.625
 123663789.604 6  96361538.22843  23532459.031                    23532468.242
 11  8 26  0 16 30.0000000  0  9G04G12G10G17G09G05G02G25G30
 117336505.130 7  91431150.34345  22328370.844                    22328380.703
 110788095.859 8  86328457.957 7  21082274.922                    21082283.324
 110276797.027 8  85930138.44246  20984958.344                    20984967.328
 124019959.431 6  96639010.442 6  23600222.063                    23600233.266
 127599326.278 6  99428100.81044  24281364.836                    24281380.723
 111946497.744 8  87231124.299 7  21302686.555                    21302696.215
 108722553.571 8  84719009.38346  20689188.305                    20689194.676
 123204281.066 7  96003396.949 7  23445001.461                    23445014.055
 123571827.750 6  96289879.73343  23514959.523                    23514969.410
 11  8 26  0 17  0.0000000  0  9G04G12G10G17G09G05G02G25G30
 117416793.429 7  91493712.63845  22343649.531                    22343659.445
 110746034.088 7  86295682.564 7  21074270.102                    21074278.715
 110304353.784 8  85951611.26546  20990201.945                    20990210.695
 124078388.816 6  96684539.786 6  23611340.961                    23611352.000
 127680462.194 6  99491323.35344  24296804.289                    24296820.465
 111872164.146 7  87173202.081 7  21288540.992                    21288550.934
 108732998.345 8  84727148.18946  20691176.000                    20691182.383
 123113637.470 7  95932765.658 7  23427752.781                    23427765.949
 123480192.005 6  96218475.36643  23497521.320                    23497532.324
 11  8 26  0 17 30.0000000  0  9G04G12G10G17G09G05G02G25G30
 117497138.857 7  91556319.44245  22358938.758                    22358948.086
 110704482.303 8  86263304.563 7  21066363.328                    21066371.852
 110332522.397 8  85973560.84246  20995562.141                    20995571.648
 124136997.161 6  96730208.590 6  23622493.148                    23622505.277
 127761628.552 6  99554569.63444  24312250.211                    24312266.141
 111798250.210 8  87115606.875 7  21274475.758                    21274485.426
 108743676.584 8  84735468.92346  20693208.133                    20693214.656
 123023272.702 7  95862351.601 7  23410557.055                    23410568.859
 123388884.998 6  96147327.17443  23480146.070                    23480156.758
 11  8 26  0 18  0.0000000  0  9G04G12G10G17G09G05G02G25G30
 117577539.985 7  91618969.65745  22374238.289                    22374248.008
 110663442.316 8  86231325.355 7  21058553.563                    21058562.168
 110361301.923 8  85995986.46046  21001038.781                    21001048.422
 124195784.744 6  96776017.049 6  23633680.727                    23633692.547
 127842822.207 6  99617837.16844  24327701.398                    24327716.992
 111724758.263 8  87058340.494 7  21260490.781                    21260500.551
 108754587.493 8  84743970.95346  20695284.086                    20695290.676
 122933189.550 7  95792156.990 7  23393414.633                    23393426.645
 123297909.719 6  96076437.45444  23462833.813                    23462844.715
 11  8 26  0 18 30.0000000  0  9G04G12G10G17G09G05G02G25G30
 117657995.484 7  91681662.22645  22389548.531                    22389557.711
 110622915.994 8  86199746.410 7  21050841.703                    21050849.938
 110390691.419 8  86018887.37446  21006631.750                    21006640.492
 124254752.030 6  96821965.520 6  23644902.055                    23644913.527
 127924040.132 6  99681123.65043  24343156.133                    24343172.148
 111651691.202 8  87001405.184 7  21246586.430                    21246595.602
 108765730.053 8  84752653.49046  20697404.734                    20697411.414
 122843390.789 7  95722184.010 7  23376326.531                    23376339.207
 123207269.070 7  96005808.51044  23445585.453                    23445595.754
 11  8 26  0 19  0.0000000  0  9G04G12G10G17G09G05G02G25G30
 117738503.655 7  91744395.85445  22404868.711                    22404878.434
 110582905.174 8  86168569.165 7  21043227.875                    21043236.320
 110420690.005 8  86042262.91546  21012339.945                    21012348.945
 124313899.565 6  96868054.457 6  23656156.828                    23656169.098
 128005279.058 6  99744426.47043  24358615.344                    24358632.102
 111579051.419 8  86944802.825 7  21232763.359                    21232772.750
 108777102.895 8  84761515.47146  20699568.609                    20699574.961
 122753879.024 7  95652434.633 6  23359292.938                    23359305.000
 123116965.703 7  95935442.33544  23428401.359                    23428411.164
 11  8 26  0 19 30.0000000  0  9G04G12G10G17G09G05G02G25G30
 117819062.821 7  91807169.22245  22420198.758                    22420208.703
 110543411.673 8  86137795.011 7  21035712.211                    21035720.781
 110451296.274 8  86066111.97646  21018164.242                    21018173.227
 124373227.790 6  96914284.172 6  23667446.914                    23667459.008
 128086535.656 6  99807743.06443  24374078.578                    24374094.941
 111506840.734 7  86888534.829 7  21219022.211                    21219031.684
 108788704.670 8  84770555.83946  20701776.375                    20701782.953
 122664656.834 7  95582910.899 6  23342314.820                    23342326.406
 123027002.187 7  95865340.98044  23411281.648                    23411291.566
 11  8 26  0 20  0.0000000  0  9G04G12G10G17G09G05G02G25G30
 117899671.578 7  91869981.22745  22435537.570                    22435548.195
 110504437.244 8  86107425.324 7  21028295.883                    21028304.074
 110482509.369 7  86090433.87146  21024103.906                    21024113.109
 124432736.967 6  96960654.886 6  23678771.273                    23678783.434
 128167806.901 6  99871071.07543  24389544.180                    24389559.848
 111435062.225 8  86832603.580 7  21205363.188                    21205372.422
 108800534.351 8  84779773.79746  20704027.453                    20704033.816
 122575727.023 7  95513615.013 7  23325391.594                    23325403.738
 122937381.598 7  95795506.82444  23394227.984                    23394237.684
 11  8 26  0 20 30.0000000  0  9G04G12G10G17G09G05G02G25G30
 117980328.237 7  91932830.55045  22450886.391                    22450896.254
 110465982.921 8  86077460.925 7  21020978.031                    21020986.691
 110514327.826 8  86115227.48146  21030158.711                    21030167.852
 124492427.483 6  97007166.920 6  23690130.133                    23690141.902
 128249089.370 6  99934407.80444  24405011.695                    24405027.906
 111363717.767 8  86777010.556 7  21191786.625                    21191796.410
 108812590.426 8  84789168.16846  20706321.672                    20706328.242
 122487092.073 7  95444548.857 7  23308524.820                    23308536.844
 122848106.454 7  95725941.83644  23377239.141                    23377248.824
 11  8 26  0 21  0.0000000  0  9G04G12G10G17G09G05G02G25G30
 118061031.381 7  91995716.09345  22466243.484                    22466253.637
 110428050.484 8  86047903.191 7  21013759.969                    21013768.480
 110546750.289 7  86140491.75745  21036328.125                    21036337.313
 124552299.470 6  97053820.349 6  23701523.648                    23701535.078
 128330380.154 6  99997751.04443  24420481.039                    24420497.160
 111292809.767 8  86721757.634 7  21178293.164                    21178302.234
 108824871.715 8  84798738.02046  20708658.406                    20708665.531
 122398754.704 7  95375714.586 7  23291714.703                    23291726.570
 122759179.580 7  95656648.25744  23360316.227                    23360326.688
 11  8 26  0 21 30.0000000  0  9G04G12G10G17G09G05G02G25G30
 118141779.602 7  92058636.76545  22481609.211                    22481619.574
 110390641.750 8  86018753.545 7  21006641.273                    21006649.773
 110579775.631 7  86166225.81246  21042612.945                    21042622.418
 124612353.455 7  97100615.620 6  23712951.445                    23712962.922
 128411676.075 6 100061098.24743  24435951.516                    24435967.887
 111222340.780 8  86666846.781 7  21164883.438                    21164892.797
 108837377.028 8  84808482.42946  20711038.242                    20711044.965
 122310717.548 7  95307114.258 7  23274961.719                    23274974.309
 122670603.696 6  95587628.15444  23343461.016                    23343471.977
 11  8 26  0 22  0.0000000  0  9G04G12G10G17G09G05G02G25G30
 118222571.243 7  92121591.27644  22496983.258                    22496993.590
 110353758.277 8  85990013.188 7  20999622.477                    20999631.262
 110613402.624 8  86192428.67046  21049011.531                    21049021.281
 124672589.856 7  97147552.995 6  23724414.102                    23724425.488
 128492973.629 6 100124446.73343  24451422.273                    24451438.910
 111152312.997 8  86612279.735 7  21151557.320                    21151567.301
 108850104.735 8  84818400.13046  20713460.344                    20713466.941
 122222983.192 7  95238749.864 6  23258266.000                    23258278.637
 122582381.535 6  95518883.71744  23326672.828                    23326683.145
 11  8 26  0 22 30.0000000  0  9G04G12G10G17G09G05G02G25G30
 118303405.102 7  92184578.66845  22512365.750                    22512375.723
 110317402.768 8  85961684.229 7  20992704.156                    20992713.156
 110647630.678 8  86219099.89746  21055525.102                    21055534.301
 124733009.217 6  97194632.962 6  23735911.836                    23735923.094
 128574270.359 6 100187794.57343  24466892.352                    24466909.492
 111082729.450 8  86558058.847 7  21138316.320                    21138325.742
 108863054.867 8  84828491.14446  20715924.813                    20715931.332
 122135554.828 7  95170623.897 6  23241629.289                    23241641.488
 122494516.311 7  95450417.38644  23309952.648                    23309962.539
 11  8 26  0 23  0.0000000  0  9G04G12G10G17G09G05G02G25G30
 118384279.541 7  92247597.68745  22527755.609                    22527766.098
 110281575.779 8  85933767.110 7  20985886.500                    20985895.234
 110682457.578 8  86246237.75146  21062152.641                    21062161.406
 124793611.463 7  97241855.430 6  23747444.109                    23747455.414
 128655562.906 6 100251139.19143  24482362.281                    24482379.047
 111013591.564 8  86504185.235 7  21125159.219                    21125169.004
 108876225.258 8  84838753.79246  20718430.984                    20718437.570
 122048434.668 7  95102738.101 6  23225050.633                    23225062.844
 122407010.363 6  95382230.98844  23293301.109                    23293311.027
 11  8 26  0 23 30.0000000  0  9G04G12G10G17G09G05G02G25G30
 118465193.129 7  92310647.19945  22543153.258                    22543163.555
 110246278.784 8  85906262.974 7  20979170.070                    20979178.492
 110717882.055 8  86273841.25446  21068893.961                    21068902.828
 124854397.209 6  97289220.897 6  23759010.938                    23759022.438
 128736848.137 6 100314478.07543  24497830.148                    24497846.805
 110944901.925 8  86450660.903 7  21112088.367                    21112097.742
 108889615.266 8  84849187.57746  20720978.820                    20720985.805
 121961625.403 7  95035094.542 6  23208532.102                    23208543.512
 122319866.429 7  95314326.68044  23276718.281                    23276727.684
 11  8 26  0 24  0.0000000  0  9G04G12G10G17G09G05G02G25G30
 118546144.181 7  92373725.92344  22558557.813                    22558567.496
 110211512.825 8  85879172.637 7  20972554.109                    20972562.512
 110753902.616 8  86301909.22146  21075748.500                    21075757.801
 124915366.688 6  97336729.518 6  23770613.391                    23770625.066
 128818122.461 6 100377808.43143  24513296.820                    24513312.836
 110876662.712 8  86397487.548 7  21099102.852                    21099112.020
 108903222.878 8  84859790.91846  20723568.281                    20723575.008
 121875129.494 7  94967695.153 6  23192072.547                    23192083.746
 122233087.093 7  95246706.46144  23260204.844                    23260214.473
 11  8 26  0 24 30.0000000  0  9G04G12G10G17G09G05G02G25G30
 118627131.551 7  92436832.94845  22573968.836                    22573979.066
 110177280.393 8  85852498.026 7  20966039.867                    20966048.645
 110790518.330 8  86330440.95346  21082716.086                    21082725.074
 124976520.379 6  97384381.715 6  23782250.508                    23782262.316
 128899383.220 6 100441128.21343  24528760.531                    24528776.961
 110808876.302 8  86344667.021 7  21086203.336                    21086212.660
 108917047.271 8  84870563.17446  20726198.750                    20726205.563
 121788949.788 7  94900542.179 6  23175672.586                    23175684.547
 122146675.283 6  95179372.63244  23243760.688                    23243770.602
 11  8 26  0 25  0.0000000  0  9G04G12G10G17G09G05G02G25G30
 118708153.707 7  92499967.06944  22589386.844                    22589397.051
 110143582.869 8  85826240.236 7  20959627.703                    20959636.102
 110827728.033 8  86359435.54346  21089796.703                    21089806.023
 125037858.591 6  97432177.687 6  23793922.313                    23793933.801
 128980627.432 6 100504435.06043  24544220.625                    24544237.777
 110741545.003 8  86292201.137 7  21073390.594                    21073400.207
 108931087.479 8  84881503.58846  20728870.898                    20728877.227
 121703089.008 7  94833637.701 7  23159334.063                    23159345.699
 122060633.767 7  95112327.33443  23227387.344                    23227397.066
 11  8 26  0 25 30.0000000  0  9G04G12G10G17G09G05G02G25G30
 118789209.054 7  92563127.06144  22604811.625                    22604821.805
 110110421.482 8  85800400.218 7  20953316.789                    20953325.789
 110865529.587 8  86388891.30446  21096990.344                    21096999.930
 125099381.577 6  97480117.639 6  23805629.977                    23805641.461
 129061851.797 6 100567726.47443  24559677.375                    24559693.988
 110674670.634 8  86240091.301 7  21060664.633                    21060674.352
 108945341.644 8  84892610.73646  20731583.336                    20731589.902
 121617549.409 7  94766983.492 7  23143056.469                    23143067.758
 121974964.855 7  95045572.40644  23211084.469                    23211095.770
 11  8 26  0 26  0.0000000  0  9G04G12G10G17G09G05G02G25G30
 118870296.827 7  92626312.29444  22620242.008                    22620251.719
 110077798.237 8  85774979.523 7  20947109.203                    20947117.590
 110903922.122 8  86418807.56146  21104295.922                    21104304.793
 125161089.499 6  97528201.699 6  23817372.781                    23817383.938
 129143053.436 6 100631000.21643  24575129.570                    24575147.152
 110608256.058 8  86188339.737 7  21048026.656                    21048035.961
 108959809.443 8  84903884.35746  20734336.547                    20734343.008
 121532334.184 7  94700582.044 7  23126840.344                    23126852.250
 121889671.918 7  94979110.43344  23194854.078                    23194864.785
 11  8 26  0 26 30.0000000  0  9G04G12G10G17G09G05G02G25G30
 118951415.198 7  92689521.40144  22635678.359                    22635688.707
 110045714.291 8  85749979.067 7  20941003.695                    20941012.160
 110942903.935 8  86449183.01346  21111714.016                    21111723.031
 125222982.930 6  97576430.330 6  23829150.500                    23829162.000
 129224229.189 6 100694253.78543  24590576.930                    24590594.402
 110542303.414 8  86136948.115 7  21035476.188                    21035485.691
 108974489.608 8  84915323.45046  20737129.922                    20737136.734
 121447445.803 7  94634435.260 7  23110686.617                    23110698.328
 121804757.447 7  94912943.36944  23178695.906                    23178705.852
 11  8 26  0 27  0.0000000  0  9G04G12G10G17G09G05G02G25G30
 119032562.820 7  92752753.27544  22651119.922                    22651130.688
 110014170.788 8  85725399.732 7  20935000.977                    20935009.656
 110982473.546 8  86480016.48946  21119243.898                    21119252.656
 125285061.797 6  97624803.435 6  23840963.789                    23840975.500
 129305375.969 6 100757484.77643  24606018.883                    24606036.273
 110476814.666 8  86085917.971 7  21023014.203                    21023023.578
 108989380.544 8  84926926.79046  20739963.430                    20739969.922
 121362886.828 7  94568545.166 7  23094595.406                    23094607.215
 121720223.948 7  94847073.15744  23162609.734                    23162620.203
 11  8 26  0 27 30.0000000  0  9G04G12G10G17G09G05G02G25G30
 119113738.145 7  92816006.74544  22666567.195                    22666577.313
 109983169.035 8  85701242.534 7  20929101.352                    20929110.063
 111022629.080 8  86511306.52346  21126885.344                    21126894.398
 125347326.641 6  97673321.507 6  23852812.000                    23852824.133
 129386490.674 6 100820690.75043  24621455.219                    24621472.387
 110411791.821 8  86035250.882 7  21010640.375                    21010650.230
 109004480.865 8  84938693.27746  20742837.180                    20742843.801
 121278659.604 7  94502913.590 7  23078567.172                    23078579.801
 121636074.043 7  94781501.84244  23146596.594                    23146606.473
 11  8 26  0 28  0.0000000  0  9G04G12G10G17G09G05G02G25G30
 119194939.782 7  92879280.71544  22682019.773                    22682030.160
 109952710.580 8  85677508.683 7  20923305.852                    20923313.762
 111063369.194 8  86543052.06846  21134637.664                    21134647.000
 125409777.786 6  97721984.693 6  23864696.883                    23864708.602
 129467570.369 6 100883869.43343  24636884.063                    24636901.535
 110347237.055 8  85984948.520 7  20998356.547                    20998365.188
 109019789.456 8  84950622.05946  20745750.016                    20745757.191
 121194766.858 7  94437542.648 7  23062603.219                    23062615.434
 121552310.335 7  94716231.45544  23130656.578                    23130666.543
 11  8 26  0 28 30.0000000  0  9G04G12G10G17G09G05G02G25G30
 119276166.652 7  92942574.35644  22697476.578                    22697487.277
 109922797.106 8  85654199.495 7  20917613.344                    20917621.941
 111104692.645 8  86575252.17546  21142501.633                    21142510.598
 125472415.046 6  97770792.925 6  23876616.039                    23876627.988
 129548612.293 7 100947018.66743  24652305.938                    24652323.492
 110283152.636 8  85935012.660 7  20986161.391                    20986170.770
 109035305.209 8  84962712.26646  20748702.680                    20748709.578
 121111211.407 7  94372434.532 7  23046702.953                    23046714.824
 121468935.731 7  94651264.23244  23114790.328                    23114800.980
 11  8 26  0 29  0.0000000  0  9G04G12G10G17G09G05G02G25G30
 119357417.480 7  93005886.65644  22712938.016                    22712948.387
 109893429.849 8  85631315.929 7  20912024.914                    20912033.531
 111146597.784 8  86607905.54346  21150475.695                    21150484.430
 125535239.043 6  97819746.700 6  23888571.188                    23888583.488
 129629613.016 7 101010135.80943  24667720.406                    24667737.965
 110219540.875 8  85885445.113 7  20974056.391                    20974065.645
 109051027.039 8  84974963.04946  20751694.133                    20751701.488
 121027995.878 7  94307591.309 7  23030867.461                    23030880.102
 121385952.914 7  94586602.33744  23098999.945                    23099009.934
 11  8 26  0 29 30.0000000  0  9G04G12G10G17G09G05G02G25G30
 119438690.751 7  93069216.44744  22728403.859                    22728414.371
 109864610.406 8  85608859.228 7  20906540.742                    20906549.098
 111189083.058 7  86641010.96046  21158560.383                    21158569.551
 125598250.363 6  97868846.389 6  23900562.148                    23900573.895
 129710569.666 7 101073218.58643  24683126.188                    24683143.656
 110156403.699 8  85836247.375 7  20962041.641                    20962050.762
 109066953.920 8  84987373.61646  20754725.336                    20754732.051
 120945122.944 7  94243015.031 7  23015097.641                    23015109.332
 121303364.537 7  94522247.78244  23083283.703                    23083294.066
 11  8 26  0 30  0.0000000  0  9G04G12G10G17G09G05G02G25G30
 119519985.311 7  93132562.81544  22743873.922                    22743883.938
 109836339.616 8  85586830.049 7  20901160.875                    20901169.371
 111232146.585 7  86674566.97246  21166754.977                    21166764.340
 125661448.896 6  97918092.005 6  23912588.445                    23912599.707
 129791479.194 6 101136264.67943  24698523.227                    24698540.590
 110093743.388 8  85787421.205 7  20950117.758                    20950126.637
 109083084.832 8  84999943.16346  20757794.813                    20757801.730
 120862595.098 7  94178707.669 7  22999392.727                    22999404.246
 121221173.327 7  94458202.68744  23067643.586                    23067653.598
 11  8 26  0 30 30.0000000  0  9G04G12G10G17G09G05G02G25G30
 119601299.804 7  93195924.72744  22759346.922                    22759358.203
 109808618.880 8  85565229.480 7  20895885.766                    20895894.129
 111275786.568 8  86708572.15746  21175059.688                    21175068.434
 125724834.880 7  97967483.683 6  23924650.531                    23924662.102
 129872338.462 6 101199271.61543  24713910.195                    24713927.938
 110031561.961 8  85738968.207 7  20938285.336                    20938293.844
 109099418.139 8  85012670.42446  20760903.031                    20760909.938
 120780414.914 7  94114671.229 7  22983754.344                    22983766.262
 121139381.770 7  94394469.02844  23052078.922                    23052088.859
 11  8 26  0 31  0.0000000  0  9G04G12G10G17G09G05G02G25G30
 119682632.864 7  93259301.09444  22774824.266                    22774834.875
 109781449.358 8  85544058.437 7  20890715.742                    20890723.664
 111320001.243 7  86743025.15946  21183473.438                    21183482.453
 125788408.577 6  98017021.607 6  23936748.297                    23936759.570
 129953144.632 6 101262237.18443  24729287.836                    24729305.262
 109969861.329 8  85690889.845 7  20926543.867                    20926553.035
 109115952.700 8  85025554.50546  20764049.375                    20764056.105
 120698584.947 7  94050907.666 7  22968182.906                    22968194.258
 121057992.433 7  94331048.80844  23036591.422                    23036600.871
 11  8 26  0 31 30.0000000  0  9G04G12G10G17G09G05G02G25G30
 119763983.231 7  93322690.95144  22790305.523                    22790315.402
 109754832.254 8  85523317.841 7  20885650.453                    20885658.762
 111364789.248 8  86777924.91146  21191996.086                    21192005.266
 125852170.063 7  98066705.869 6  23948880.914                    23948893.199
 130033894.879 6 101325159.16243  24744653.828                    24744671.980
 109908643.398 8  85643187.618 8  20914894.289                    20914903.754
 109132687.505 8  85038594.62346  20767233.984                    20767240.563
 120617107.866 7  93987419.111 7  22952678.109                    22952689.844
 120977008.073 7  94267944.13644  23021179.695                    23021190.105
 11  8 26  0 32  0.0000000  0  9G04G12G10G17G09G05G02G25G30
 119845349.691 7  93386093.33744  22805788.352                    22805798.715
 109728769.018 8  85503008.828 7  20880691.016                    20880698.922
 111410148.756 7  86813269.98945  21200627.680                    21200637.090
 125916119.850 6  98116536.833 6  23961050.414                    23961062.816
 130114586.101 6 101388035.15343  24760008.719                    24760027.039
 109847910.330 8  85595863.202 7  20903337.125                    20903346.242
 109149621.419 8  85051789.89046  20770456.484                    20770462.781
 120535986.160 7  93924207.465 7  22937240.680                    22937253.133
 120896431.201 7  94205156.99244  23005846.633                    23005856.820
 11  8 26  0 32 30.0000000  0  9G04G12G10G17G09G05G02G25G30
 119926730.895 7  93449507.22044  22821274.813                    22821285.297
 109703261.209 8  85483132.632 7  20875836.867                    20875845.098
 111456077.915 8  86849058.93446  21209367.680                    21209376.719
 125980258.210 6  98166514.754 6  23973255.117                    23973267.551
 130195215.362 6 101450862.85243  24775352.516                    24775370.855
 109787664.121 8  85548918.159 7  20891872.477                    20891881.348
 109166753.079 8  85065139.24846  20773716.102                    20773723.004
 120455222.481 7  93861274.808 7  22921872.406                    22921883.727
 120816264.491 7  94142689.42544  22990591.539                    22990600.941
 11  8 26  0 33  0.0000000  0  9G04G12G10G17G09G05G02G25G30
 120008125.544 7  93512931.58144  22836763.727                    22836774.449
 109678309.283 8  85463689.565 7  20871088.805                    20871096.965
 111502574.928 8  86885290.38046  21218216.273                    21218224.813
 126044584.860 6  98216639.368 6  23985496.742                    23985508.426
 130275779.959 6 101513640.13643  24790683.211                    24790701.582
 109727906.799 8  85502354.056 7  20880501.086                    20880509.938
 109184081.370 8  85078641.81746  20777014.211                    20777020.402
 120374819.349 7  93798623.112 7  22906571.836                    22906583.793
 120736510.564 7  94080543.52644  22975415.086                    22975425.027
 11  8 26  0 33 30.0000000  0  9G04G12G10G17G09G05G02G25G30
 120089532.536 7  93576365.57744  22852254.531                    22852265.660
 109653914.462 8  85444680.621 7  20866446.313                    20866454.984
 111549637.838 8  86921962.78946  21227171.531                    21227180.809
 126109100.342 6  98266911.156 6  23997773.070                    23997785.695
 130356276.573 6 101576364.49843  24806001.148                    24806019.441
 109668640.520 8  85456172.592 8  20869222.992                    20869232.066
 109201605.078 8  85092296.66246  20780348.336                    20780355.047
 120294779.237 7  93736254.273 7  22891341.055                    22891352.316
 120657171.887 7  94018721.21244  22960317.492                    22960327.262
 11  8 26  0 34  0.0000000  0  9G04G12G10G17G09G05G02G25G30
 120170950.520 7  93639808.12444  22867748.094                    22867758.742
 109630078.170 8  85426106.893 7  20861910.602                    20861918.699
 111597265.139 8  86959074.96546  21236234.688                    21236244.238
 126173804.744 6  98317330.101 6  24010086.492                    24010097.492
 130436702.573 5 101639033.78443  24821305.750                    24821324.949
 109609866.718 8  85410374.882 7  20858038.672                    20858047.734
 109219323.055 8  85106102.88446  20783720.297                    20783726.797
 120215104.795 7  93674170.379 7  22876179.289                    22876190.398
 120578251.128 7  93957224.55144  22945299.086                    22945308.539
 11  8 26  0 34 30.0000000  0  9G04G12G10G17G09G05G02G25G30
 120252378.333 7  93703258.30144  22883243.758                    22883253.770
 109606801.436 8  85407969.177 8  20857481.320                    20857489.656
 111645454.984 8  86996625.49246  21245405.234                    21245413.848
 126238698.579 6  98367896.707 6  24022435.102                    24022446.820
 130517054.661 6 101701645.50943  24836597.086                    24836616.004
 109551587.798 8  85364962.798 8  20846948.773                    20846957.625
 109237234.342 8  85120059.74746  20787128.516                    20787135.133
 120135798.591 7  93612373.417 7  22861087.258                    22861099.820
 120499750.948 7  93896055.63444  22930360.102                    22930371.215
 11  8 26  0 35  0.0000000  0  9G04G12G10G17G09G05G02G25G30
 120333814.830 7  93766715.27344  22898740.734                    22898750.574
 109584085.720 8  85390268.631 7  20853158.055                    20853166.668
 111694205.528 8  87034612.94245  21254681.938                    21254691.055
 126303781.700 6  98418610.777 5  24034820.297                    24034831.992
 130597330.254 6 101764197.65043  24851872.375                    24851891.852
 109493805.530 8  85319937.709 7  20835953.063                    20835962.059
 109255337.748 8  85134166.30646  20790573.547                    20790580.219
 120056863.372 7  93550865.541 7  22846066.406                    22846078.738
 120421673.873 7  93835216.43044  22915503.344                    22915513.371
 11  8 26  0 35 30.0000000  0  9G04G12G10G17G09G05G02G25G30
 120415259.276 6  93830178.44044  22914238.891                    22914249.660
 109561931.922 8  85373005.933 7  20848942.922                    20848951.359
 111743515.350 7  87073036.17546  21264065.125                    21264074.613
 126369054.756 6  98469472.867 5  24047241.016                    24047252.297
 130677527.028 6 101826688.32443  24867135.039                    24867153.406
 109436522.126 8  85275301.350 7  20825052.297                    20825061.297
 109273632.158 8  85148421.70446  20794054.750                    20794061.438
 119978301.927 7  93489648.914 7  22831116.523                    22831128.777
 120344022.981 7  93774709.30244  22900726.625                    22900736.414
 11  8 26  0 36  0.0000000  0  8G04G12G10G17G05G02G25G30
 120496711.894 7  93893647.98144  22929739.383                    22929749.828
 109540342.448 8  85356182.972 7  20844834.578                    20844842.984
 111793383.767 8  87111894.66945  21273554.852                    21273563.938
 126434519.254 6  98520484.175 5  24059698.891                    24059709.680
 109379740.851 8  85231056.246 7  20814246.844                    20814255.785
 109292118.402 8  85162826.58246  20797572.242                    20797578.773
 119900118.065 7  93428726.509 7  22816238.953                    22816250.746
 120266801.874 7  93714537.09044  22886032.625                    22886042.031
 11  8 26  0 36 30.0000000  0  8G04G12G10G17G05G02G25G30
 120578168.932 7  93957120.93844  22945240.070                    22945250.383
 109519316.382 8  85339799.025 7  20840833.281                    20840841.633
 111843806.478 7  87151185.08245  21283149.664                    21283159.148
 126500173.412 6  98571643.241 6  24072192.227                    24072203.738
 109323461.566 8  85187202.309 7  20803537.469                    20803546.609
 109310792.990 8  85177378.21546  20801126.109                    20801132.582
 119822312.178 7  93368098.574 7  22801433.039                    22801444.398
 120190011.068 7  93654700.16544  22871419.055                    22871429.031
 11  8 26  0 37  0.0000000  0  8G04G12G10G17G05G02G25G30
 120659629.644 7  94020596.77144  22960741.023                    22960751.574
 109498854.718 8  85323854.867 7  20836939.586                    20836947.750
 111894781.573 7  87190905.92446  21292850.336                    21292859.488
 126566017.162 6  98622950.018 6  24084722.156                    24084733.395
 109267685.822 8  85143740.744 7  20792923.688                    20792932.965
 109329654.422 8  85192075.44446  20804715.320                    20804722.121
 119744886.642 7  93307767.027 7  22786699.250                    22786711.105
 120113652.935 7  93595200.39244  22856888.875                    22856898.195
 11  8 26  0 37 30.0000000  0  8G04G12G10G17G05G02G25G30
 120741092.702 7  94084074.43044  22976243.070                    22976253.473
 109478958.586 8  85308351.391 7  20833153.367                    20833161.852
 111946307.477 7  87231055.97546  21302655.398                    21302664.465
 126632050.677 6  98674404.674 6  24097287.969                    24097299.531
 109212415.729 8  85100673.192 8  20782405.734                    20782414.758
 109348701.720 8  85206917.49346  20808340.016                    20808346.613
 119667844.238 7  93247734.018 7  22772038.805                    22772050.031
 120037730.250 7  93536039.94644  22842441.063                    22842450.934
 11  8 26  0 38  0.0000000  0  8G04G12G10G17G05G02G25G30
 120822557.356 7  94147553.33444  22991745.438                    22991756.609
 109459629.094 8  85293289.431 7  20829475.539                    20829483.551
 111998382.356 7  87271633.78145  21312565.109                    21312574.172
 126698274.306 6  98726007.475 6  24109889.961                    24109901.355
 109157653.171 8  85058001.120 8  20771985.000                    20771994.230
 109367934.195 8  85221903.84046  20811999.844                    20812006.152
 119591187.687 7  93188001.673 7  22757451.445                    22757462.453
 119962245.690 7  93477220.89844  22828076.602                    22828086.203
 11  8 26  0 38 30.0000000  0  8G04G12G10G17G05G02G25G30
 120904022.030 6  94211032.24644  23007247.656                    23007258.012
 109440866.262 8  85278669.045 7  20825904.820                    20825913.316
 112051003.687 8  87312637.40945  21322578.086                    21322587.172
 126764688.331 7  98777758.627 6  24122527.398                    24122540.250
 109103399.509 8  85015725.590 8  20761661.023                    20761669.844
 109387350.036 8  85237033.07446  20815694.484                    20815700.852
 119514918.938 7  93128571.510 7  22742937.992                    22742949.137
 119887201.124 7  93418744.70144  22813796.109                    22813805.684
 11  8 26  0 39  0.0000000  0  8G04G12G10G17G05G02G25G30
 120985486.148 6  94274510.75044  23022749.648                    23022759.723
 109422672.491 8  85264492.080 7  20822442.688                    20822450.832
 112104170.134 7  87354065.79745  21332695.648                    21332704.426
 126831292.606 6  98829658.007 6  24135201.891                    24135214.434
 109049657.264 8  84973848.572 8  20751433.813                    20751443.000
 109406949.073 8  85252305.05446  20819424.242                    20819430.535
 119439041.267 7  93069446.079 7  22728498.430                    22728510.594
 119812599.883 7  93360613.93844  22799599.945                    22799610.113
 11  8 26  0 39 30.0000000  0  8G04G12G10G17G05G02G25G30
 121066948.179 7  94337987.62244  23038251.531                    23038262.484
 109405047.572 8  85250758.373 7  20819088.656                    20819097.188
 112157878.966 8  87395916.83046  21342915.898                    21342925.199
 126898087.319 6  98881705.805 6  24147913.367                    24147925.023
 108996427.470 8  84932370.865 8  20741304.484                    20741313.367
 109426729.590 8  85267718.45346  20823188.445                    20823194.324
 119363556.689 7  93010626.951 7  22714134.594                    22714146.113
 119738443.914 7  93302830.15944  22785488.063                    22785498.434
 11  8 26  0 40  0.0000000  0  8G04G12G10G17G05G02G25G30
 121148407.530 7  94401462.40744  23053752.359                    23053763.805
 109387993.116 8  85237469.188 7  20815843.086                    20815851.699
 112212128.831 8  87438189.43945  21353239.641                    21353249.172
 126965072.637 6  98933902.051 6  24160660.078                    24160671.953
 108943712.290 8  84891294.149 8  20731273.398                    20731282.223
 109446690.778 8  85283272.62146  20826987.039                    20826993.117
 119288467.943 7  92952116.254 7  22699845.438                    22699857.258
 119664736.005 7  93245395.47144  22771462.328                    22771471.883
 11  8 26  0 40 30.0000000  0  8G04G12G10G17G05G02G25G30
 121229862.752 7  94464933.99244  23069253.039                    23069263.008
 109371509.539 8  85224624.849 7  20812706.672                    20812714.621
 112266917.403 8  87480881.82145  21363665.375                    21363674.535
 127032248.767 6  98986247.060 6  24173443.016                    24173455.316
 108891513.354 8  84850619.690 8  20721340.281                    20721349.168
 109466831.466 8  85298966.67746  20830819.109                    20830825.742
 119213777.438 7  92893915.873 7  22685632.867                    22685644.184
 119591478.405 6  93188311.68544  22757521.883                    22757531.332
 11  8 26  0 41  0.0000000  0  8G04G12G10G17G05G02G25G30
 121311312.686 7  94528401.43944  23084752.617                    23084762.832
 109355597.424 8  85212225.803 7  20809678.461                    20809686.758
 112322242.285 7  87523992.12345  21374193.117                    21374202.355
 127099615.655 6  99038740.669 6  24186261.977                    24186275.176
 108839832.303 8  84810348.803 8  20711505.531                    20711514.613
 109487150.271 8  85314799.52446  20834686.117                    20834692.484
 119139487.288 7  92836027.449 7  22671495.586                    22671507.148
 119518673.289 6  93131580.46644  22743667.219                    22743677.320
 11  8 26  0 41 30.0000000  0  8G04G12G10G17G05G02G25G30
 121392756.598 7  94591864.21144  23100250.609                    23100261.145
 109340258.216 8  85200273.183 7  20806759.563                    20806768.059
 112378102.030 8  87567519.18945  21384823.453                    21384832.336
 127167173.565 6  99091383.152 6  24199118.227                    24199130.496
 108788670.926 8  84770482.842 8  20701769.766                    20701778.918
 109507646.432 8  85330770.57346  20838586.406                    20838592.836
 119065600.378 7  92778453.234 7  22657435.188                    22657446.922
 119446323.503 7  93075204.04944  22729899.563                    22729909.340
 11  8 26  0 42  0.0000000  0  8G04G12G10G17G05G02G25G30
 121474193.100 7  94655321.21244  23115747.656                    23115757.996
 109325492.294 8  85188767.283 7  20803949.445                    20803958.156
 112434493.888 8  87611460.89145  21395553.992                    21395563.566
 127234922.402 6  99144174.409 6  24212010.656                    24212022.973
 108738030.607 8  84731022.897 8  20692132.930                    20692142.004
 109528318.770 8  85346878.90546  20842519.648                    20842526.438
 118992118.970 7  92721195.001 7  22643452.016                    22643463.535
 119374431.357 7  93019184.24945  22716218.883                    22716228.801
 11  8 26  0 42 30.0000000  0  8G04G12G10G17G05G02G25G30
 121555621.294 7  94718771.71544  23131243.023                    23131253.398
 109311299.848 8  85177708.245 7  20801248.813                    20801257.371
 112491415.846 8  87655815.64045  21406386.281                    21406395.211
 127302862.064 6  99197114.355 6  24224939.711                    24224952.039
 108687912.793 8  84691970.112 8  20682595.813                    20682604.891
 109549165.948 8  85363123.46946  20846486.914                    20846493.324
 118919045.499 7  92664254.653 7  22629547.023                    22629558.387
 119302999.083 7  92963522.77144  22702625.617                    22702635.285
 11  8 26  0 43  0.0000000  0  8G04G12G10G17G05G02G25G30
 121637040.120 7  94782214.93744  23146736.547                    23146746.945
 109297682.049 8  85167096.988 7  20798657.352                    20798666.289
 112548865.585 8  87700581.67345  21417318.484                    21417327.762
 127370992.983 6  99250203.369 6  24237904.492                    24237916.117
 108638319.240 8  84653325.843 8  20673158.430                    20673167.820
 109570187.177 8  85379503.66446  20850487.414                    20850494.207
 118846382.339 7  92607634.016 7  22615719.133                    22615730.766
 119232029.057 7  92908221.49344  22689120.266                    22689130.590
 11  8 26  0 43 30.0000000  0  8G04G12G10G17G05G02G25G30
 121718448.553 6  94845650.03344  23162228.102                    23162238.789
 109284639.747 8  85156934.176 7  20796175.539                    20796183.984
 112606840.968 7  87745757.29045  21428350.516                    21428360.281
 127439314.903 6  99303441.215 6  24250905.438                    24250917.227
 108589251.682 8  84615091.433 8  20663821.578                    20663830.527
 109591381.067 8  85396018.39746  20854520.508                    20854527.113
 118774131.844 7  92551334.938 7  22601970.703                    22601982.477
 119161523.652 7  92853282.23644  22675704.156                    22675714.012
 11  8 26  0 44  0.0000000  0  8G04G12G10G17G05G02G25G30
 121799845.488 6  94909076.21244  23177717.414                    23177727.973
 109272173.466 8  85147220.224 7  20793803.375                    20793812.191
 112665339.968 7  87791340.91745  21439482.992                    21439491.680
 127507828.117 6  99356828.143 6  24263943.367                    24263954.781
 108540711.345 8  84577267.848 8  20654584.594                    20654593.039
 109612746.649 8  85412666.92046  20858586.195                    20858592.801
 118702296.387 7  92495359.263 7  22588300.430                    22588312.266
 119091485.092 6  92798706.77244  22662375.805                    22662385.359
 11  8 26  0 44 30.0000000  0  8G04G12G10G17G05G02G25G30
 121881230.223 7  94972492.85444  23193204.406                    23193214.980
 109260284.124 8  85137955.828 7  20791541.031                    20791549.668
 112724360.543 8  87837330.96645  21450713.969                    21450723.172
 127576532.625 7  99410364.160 5  24277017.438                    24277028.609
 108492700.292 8  84539856.694 8  20645448.359                    20645457.066
 109634283.114 8  85429448.60446  20862684.242                    20862690.922
 118630878.630 7  92439709.062 7  22574710.617                    22574722.488
 119021916.007 7  92744497.11044  22649137.227                    22649147.262
 11  8 26  0 45  0.0000000  0  8G04G12G10G17G05G02G25G30
 121962601.400 7  95035898.94844  23208688.938                    23208699.457
 109248971.742 8  85129141.014 7  20789388.211                    20789396.750
 112783899.988 7  87883725.33445  21462044.125                    21462053.352
 127645428.131 7  99464048.966 5  24290127.570                    24290138.883
 108445219.568 8  84502858.779 8  20636412.844                    20636421.715
 109655988.776 8  85446362.12446  20866814.953                    20866821.387
 118559880.559 7  92384385.893 7  22561199.875                    22561211.473
 118952818.334 7  92690654.78745  22635988.586                    22635997.941
 11  8 26  0 45 30.0000000  0  8G04G12G10G17G05G02G25G30
 122043958.170 7  95099293.82444  23224170.516                    23224180.535
 109238237.148 8  85120776.410 8  20787345.508                    20787354.238
 112843956.662 8  87930522.73445  21473472.188                    21473481.605
 127714515.012 6  99517882.935 5  24303274.641                    24303285.297
 108398270.781 8  84466275.361 8  20627478.898                    20627487.816
 109677863.174 8  85463407.12646  20870977.453                    20870983.777
 118489304.928 7  92329391.904 7  22547769.781                    22547781.828
 118884194.909 6  92637181.99944  22622930.133                    22622939.383
 11  8 26  0 46  0.0000000  0  8G04G12G10G17G05G02G25G30
 122125299.332 7  95162676.52444  23239649.711                    23239659.766
 109228080.549 8  85112862.199 8  20785412.961                    20785421.391
 112904527.203 7  87977720.55945  21484998.500                    21485007.676
 127783792.757 6  99571865.663 5  24316457.203                    24316469.113
 108351855.077 8  84430107.337 8  20618646.086                    20618655.195
 109699904.392 8  85480582.11746  20875171.484                    20875177.934
 118419153.559 7  92274728.507 7  22534420.453                    22534432.027
 118816047.282 6  92584079.96844  22609961.844                    22609971.613
 11  8 26  0 46 30.0000000  0  8G04G12G10G17G05G02G25G30
 122206624.320 7  95226046.64544  23255124.688                    23255135.188
 109218503.168 8  85105399.320 8  20783590.367                    20783598.758
 112965610.235 7  88025317.72245  21496622.570                    21496631.570
 127853261.980 6  99625997.514 5  24329677.438                    24329688.094
 108305974.253 8  84394356.094 8  20609915.234                    20609924.117
 109722112.357 8  85497887.03646  20879397.414                    20879404.121
 118349429.330 7  92220397.942 7  22521152.484                    22521163.859
 118748378.341 7  92531350.93244  22597084.938                    22597093.887
 11  8 26  0 47  0.0000000  0  8G04G12G10G17G05G02G25G30
 122287932.031 7  95289403.29644  23270597.273                    23270607.613
 109209505.383 8  85098388.071 7  20781878.180                    20781886.613
 113027203.245 7  88073312.26845  21508343.164                    21508352.277
 127922922.619 6  99680278.521 6  24342932.609                    24342944.535
 108260629.769 8  84359022.776 8  20601286.063                    20601295.156
 109744485.734 8  85515320.85446  20883655.211                    20883661.320
 118280134.399 7  92166401.905 7  22507966.188                    22507977.629
 118681190.129 7  92478996.49644  22584299.664                    22584308.840
 11  8 26  0 47 30.0000000  0  8G04G12G10G17G05G02G25G30
 122369221.434 7  95352745.67944  23286066.219                    23286076.652
 109201087.190 8  85091828.460 7  20780276.016                    20780284.813
 113089304.019 7  88121702.47445  21520160.313                    21520169.293
 127992774.358 6  99734708.451 6  24356224.523                    24356237.703
 108215822.846 8  84324108.336 8  20592760.039                    20592768.805
 109767023.220 7  85532882.53446  20887943.781                    20887949.973
 118211271.076 7  92112742.184 7  22494861.500                    22494873.266
 118614484.915 7  92427018.41344  22571605.836                    22571614.832
 11  8 26  0 48  0.0000000  0  9G04G12G10G17G29G05G02G25G30
 122450492.060 7  95416073.41944  23301531.602                    23301542.258
 109193249.440 8  85085721.129 7  20778784.656                    20778792.871
 113151910.400 7  88170486.66145  21532073.953                    21532083.125
 128062817.369 6  99789287.384 6  24369553.953                    24369566.230
 129554230.47117 100951475.88016  24653377.766                    24653388.195
 108171555.069 8  84289614.013 8  20584336.086                    20584344.754
 109789724.296 8  85550571.69146  20892263.688                    20892270.129
 118142841.908 7  92059420.796 7  22481839.906                    22481851.500
 118548265.069 7  92375418.53245  22559004.445                    22559014.441
 11  8 26  0 48 30.0000000  0  9G04G12G10G17G29G05G02G25G30
 122531742.649 6  95479385.55243  23316992.672                    23317003.355
 109185992.772 8  85080066.594 7  20777403.688                    20777412.141
 113215019.872 8  88219662.87745  21544083.375                    21544092.523
 128133051.738 6  99844015.423 6  24382919.086                    24382930.996
 129474396.662 7 100889267.790 6  24638185.984                    24638196.277
 108127827.746 8  84255540.821 8  20576015.094                    20576023.172
 109812587.688 8  85568387.32446  20896614.352                    20896620.656
 118074849.225 7  92006439.519 7  22468901.219                    22468913.250
 118482532.873 7  92324198.63544  22546496.336                    22546505.715
 11  8 26  0 49  0.0000000  0  9G04G12G10G17G29G05G02G25G30
 122612972.686 6  95542681.63343  23332449.891                    23332461.082
 109179317.598 8  85074865.162 8  20776133.414                    20776142.141
 113278630.174 7  88269229.33545  21556188.469                    21556197.598
 128203477.548 6  99898892.634 6  24396321.523                    24396333.043
 129394481.913 7 100826996.670 6  24622978.344                    24622988.664
 108084642.341 8  84221889.900 8  20567797.258                    20567805.609
 109835612.199 8  85586328.49646  20900995.852                    20901002.246
 118007295.265 7  91953800.122 7  22456046.570                    22456058.063
 118417290.502 7  92273360.41044  22534080.898                    22534091.020
 11  8 26  0 49 30.0000000  0  9G04G12G10G17G29G05G02G25G30
 122694180.728 6  95605960.59143  23347903.375                    23347915.074
 109173224.168 8  85070117.026 8  20774974.063                    20774982.496
 113342738.555 7  88319183.91645  21568387.750                    21568396.828
 128274094.353 6  99953918.711 6  24409758.781                    24409771.359
 129314486.501 7 100764662.680 6  24607755.438                    24607766.340
 108041999.901 8  84188662.073 8  20559682.547                    20559691.188
 109858796.862 8  85604394.47546  20905407.695                    20905414.250
 117940182.119 7  91901504.214 7  22443275.109                    22443286.535
 118352539.948 7  92222905.42545  22521759.258                    22521768.707
 11  8 26  0 50  0.0000000  0  9G04G12G10G17G29G05G02G25G30
 122775365.905 6  95669221.68944  23363352.383                    23363363.828
 109167712.721 8  85065822.387 7  20773925.023                    20773933.500
 113407342.925 8  88369524.98645  21580680.555                    21580689.902
 128344902.135 6 100009093.532 6  24423233.883                    24423245.613
 129234410.938 6 100702266.228 6  24592517.727                    24592528.125
 107999901.496 8  84155858.157 8  20551671.195                    20551679.945
 109882140.418 7  85622584.24946  20909849.828                    20909856.785
 117873511.967 7  91849553.514 7  22430588.375                    22430599.855
 118288283.350 7  92172835.34744  22509531.898                    22509541.012
 11  8 26  0 50 30.0000000  0  9G04G12G10G17G29G05G02G25G30
 122856527.303 6  95732464.28844  23378797.352                    23378808.602
 109162783.488 8  85061981.421 8  20772987.094                    20772996.031
 113472440.736 7  88420250.56445  21593068.805                    21593077.492
 128415900.813 6 100064417.189 6  24436743.688                    24436755.785
 129154256.009 6 100639807.933 6  24577264.438                    24577275.250
 107958348.630 8  84123479.340 8  20543763.711                    20543773.047
 109905642.245 8  85640897.35946  20914322.063                    20914328.441
 117807287.203 7  91797949.877 7  22417986.141                    22417997.359
 118224522.983 7  92123151.94945  22497398.664                    22497408.086
 11  8 26  0 51  0.0000000  0  9G04G12G10G17G29G05G02G25G30
 122937663.788 6  95795687.47744  23394236.977                    23394248.727
 109158436.171 8  85058593.876 7  20772160.180                    20772168.512
 113538028.951 8  88471358.26645  21605550.203                    21605559.164
 128487090.106 7 100119889.352 6  24450290.281                    24450302.648
 129074022.010 7 100577288.010 6  24561996.305                    24562006.508
 107917342.040 8  84091526.192 8  20535960.766                    20535969.676
 109929300.490 8  85659332.35346  20918824.117                    20918830.520
 117741509.507 7  91746694.609 7  22405468.828                    22405480.520
 118161260.501 7  92073856.52845  22485360.469                    22485369.809
 11  8 26  0 51 30.0000000  0  9G04G12G10G17G29G05G02G25G30
 123018774.891 6  95858890.88444  23409672.609                    23409682.848
 109154671.624 7  85055660.448 7  20771443.508                    20771452.027
 113604105.709 8  88522846.64545  21618124.398                    21618133.113
 128558470.113 7 100175510.120 6  24463874.141                    24463886.172
 128993709.579 6 100514706.975 6  24546713.141                    24546723.645
 107876883.451 8  84060000.064 8  20528262.078                    20528270.559
 109953114.738 8  85677888.89646  20923355.867                    20923362.531
 117676181.549 8  91695789.783 7  22393037.055                    22393048.918
 118098498.301 7  92024950.93545  22473416.289                    22473426.316
 11  8 26  0 52  0.0000000  0  9G04G12G10G17G29G05G02G25G30
 123099859.713 7  95922073.81344  23425102.695                    23425113.270
 109151490.087 7  85053181.316 7  20770838.359                    20770846.469
 113670668.806 8  88574714.00345  21630790.547                    21630799.742
 128630040.828 7 100231279.529 6  24477493.164                    24477505.453
 128913319.438 6 100452065.365 6  24531415.578                    24531425.941
 107836974.188 8  84028901.975 8  20520667.195                    20520675.523
 109977084.124 7  85696566.32646  20927917.180                    20927923.711
 117611305.654 7  91645237.213 7  22380691.648                    22380703.117
 118036238.712 7  91976437.01445  22461569.195                    22461578.730
 11  8 26  0 52 30.0000000  0  9G04G12G10G17G29G05G02G25G30
 123180917.285 7  95985235.51244  23440527.031                    23440537.926
 109148891.601 8  85051156.505 7  20770343.734                    20770352.465
 113737715.147 8  88626957.91145  21643549.320                    21643558.074
 128701801.936 7 100287197.280 6  24491149.305                    24491161.109
 128832852.072 6 100389363.610 6  24516102.656                    24516113.848
 107797614.912 8  83998232.451 8  20513177.094                    20513185.652
 110001207.238 8  85715363.54746  20932507.766                    20932513.676
 117546883.712 7  91595038.368 7  22368432.461                    22368443.727
 117974483.441 7  91928316.05845  22449817.195                    22449826.977
 11  8 26  0 53  0.0000000  0  9G04G12G10G17G29G05G02G25G30
 123261947.564 7  96048375.94544  23455946.547                    23455957.551
 109146877.411 8  85049586.998 8  20769960.461                    20769969.094
 113805243.113 7  88679577.11345  21656398.859                    21656408.168
 128773753.969 7 100343263.796 6  24504841.063                    24504852.871
 128752309.035 6 100326602.898 5  24500776.078                    24500786.238
 107758807.632 8  83967993.058 8  20505792.445                    20505801.141
 110025483.936 8  85734280.43946  20937127.063                    20937133.805
 117482918.702 7  91545195.587 7  22356260.180                    22356271.770
 117913235.317 7  91880590.30244  22438162.203                    22438172.242
 11  8 26  0 53 30.0000000  0  8G04G12G10G29G05G02G25G30
 123342949.922 7  96111494.62344  23471360.977                    23471371.742
 109145447.475 8  85048472.750 8  20769688.172                    20769696.941
 113873250.408 7  88732569.81145  21669340.422                    21669349.875
 128671691.025 6 100263783.736 5  24485434.938                    24485444.773
 107720553.495 8  83938184.671 8  20498512.984                    20498521.559
 110049913.463 8  85753316.41946  20941775.961                    20941782.402
 117419412.924 7  91495710.628 7  22344175.484                    22344186.828
 117852496.691 7  91833261.56845  22426603.680                    22426613.316
 11  8 26  0 54  0.0000000  0  8G04G12G10G29G05G02G25G30
 123423922.640 6  96174590.21443  23486769.883                    23486779.832
 109144601.439 8  85047813.495 8  20769527.398                    20769535.977
 113941733.492 8  88785933.24845  21682372.109                    21682381.582
 128590997.871 6 100200906.028 5  24470078.914                    24470089.598
 107682852.740 8  83908807.487 8  20491338.625                    20491347.098
 110074493.840 8  85772469.94946  20946453.703                    20946460.004
 117356367.692 7  91446584.529 7  22332178.273                    22332189.586
 117792268.617 7  91786330.68545  22415142.578                    22415152.719
 11  8 26  0 54 30.0000000  0  8G04G12G10G29G05G02G25G30
 123504864.857 6  96237662.04643  23502171.945                    23502182.656
 109144339.210 8  85047609.155 8  20769477.430                    20769486.082
 114010690.211 8  88839665.76345  21695493.844                    21695503.797
 128510230.378 6 100137970.405 5  24454709.727                    24454720.355
 107645706.549 8  83879862.436 8  20484270.141                    20484278.641
 110099224.355 8  85791740.47446  20951159.383                    20951166.375
 117293785.287 7  91397819.081 7  22320269.008                    22320280.602
 117732553.240 7  91739799.29445  22403779.750                    22403788.926
 11  8 26  0 55  0.0000000  0  8G04G12G10G29G05G02G25G30
 123585775.267 6  96300709.07643  23517568.180                    23517579.746
 109144660.122 8  85047859.208 8  20769538.938                    20769547.406
 114080117.337 7  88893764.83045  21708706.109                    21708715.133
 128429388.343 6 100074976.702 5  24439325.273                    24439336.313
 107609115.448 8  83851349.933 8  20477307.039                    20477315.621
 110124102.920 8  85811126.35946  20955894.055                    20955900.430
 117231667.021 7  91349415.280 7  22308448.570                    22308460.047
 117673351.741 7  91693668.32145  22392513.891                    22392523.160
 11  8 26  0 55 30.0000000  0  8G04G12G10G29G05G02G25G30
 123666653.671 6  96363731.17843  23532959.609                    23532970.281
 109145564.934 8  85048564.247 7  20769710.836                    20769719.348
 114150012.850 7  88948228.87845  21722006.898                    21722016.152
 128348473.133 6 100011925.972 6  24423927.891                    24423938.543
 107573080.755 8  83823270.988 8  20470449.523                    20470458.184
 110149129.371 8  85830627.49246  20960656.203                    20960662.852
 117170015.628 7  91301375.268 7  22296716.648                    22296727.777
 117614666.724 7  91647939.81145  22381346.188                    22381355.648
 11  8 26  0 56  0.0000000  0  8G04G12G10G29G05G02G25G30
 123747499.258 6  96426727.71743  23548344.000                    23548354.199
 109147053.560 8  85049724.220 8  20769994.086                    20770002.281
 114220374.091 7  89003055.83145  21735396.125                    21735405.250
 128267485.503 6  99948818.829 6  24408517.039                    24408527.414
 107537603.717 8  83795626.586 8  20463698.492                    20463707.059
 110174302.972 8  85850243.27746  20965446.453                    20965452.879
 117108833.323 7  91253700.777 7  22285073.891                    22285085.250
 117556500.185 7  91602615.29745  22370277.656                    22370286.707
 11  8 26  0 56 30.0000000  0  8G04G12G10G29G05G02G25G30
 123828311.316 6  96489698.12244  23563722.531                    23563733.074
 109149126.582 8  85051339.558 8  20770388.617                    20770397.172
 114291198.753 7  89058243.87645  21748873.625                    21748882.379
 128186426.168 6  99885655.811 6  24393091.680                    24393101.859
 107502685.356 8  83768417.520 8  20457053.922                    20457062.488
 110199622.830 8  85869973.02546  20970264.758                    20970271.461
 117048122.263 7  91206393.485 7  22273521.039                    22273532.426
 117498854.154 7  91557696.37245  22359307.992                    22359317.074
 11  8 26  0 57  0.0000000  0  8G04G12G10G29G05G02G25G30
 123909088.911 7  96552641.68543  23579094.367                    23579104.316
 109151783.557 8  85053409.932 8  20770894.148                    20770902.707
 114362483.934 7  89113790.78445  21762438.328                    21762447.289
 128105295.731 7  99822437.391 6  24377653.039                    24377663.125
 107468326.250 8  83741644.234 8  20450515.320                    20450524.027
 110225087.527 8  85889815.64446  20975110.484                    20975117.105
 116987884.219 7  91159454.762 7  22262058.195                    22262069.355
 117441730.334 7  91513184.36745  22348437.000                    22348446.906
 11  8 26  0 57 30.0000000  0  8G04G12G10G29G05G02G25G30
 123989831.509 7  96615557.97144  23594458.719                    23594469.371
 109155024.532 7  85055935.375 7  20771510.898                    20771519.215
 114434227.265 7  89169694.68945  21776090.766                    21776099.809
 128024095.144 7  99759164.304 6  24362201.273                    24362211.512
 107434527.660 8  83715307.701 8  20444084.078                    20444092.301
 110250696.566 8  85909770.74546  20979983.914                    20979990.578
 116928121.563 7  91112886.470 7  22250685.648                    22250696.883
 117385130.893 7  91469080.95145  22337667.000                    22337676.121
 11  8 26  0 58  0.0000000  0  8G04G12G10G29G05G02G25G30
 124070537.923 7  96678446.08344  23609816.227                    23609827.117
 109158848.830 8  85058915.345 8  20772238.563                    20772246.855
 114506425.759 7  89225953.25545  21789829.570                    21789839.176
 127942824.680 7  99695836.779 6  24346735.617                    24346746.383
 107401289.789 8  83689408.099 8  20437758.891                    20437767.602
 110276448.144 8  85929836.91146  20984884.250                    20984890.754
 116868835.716 7  91066689.706 7  22239403.953                    22239415.355
 117329057.005 7  91425387.05545  22326996.359                    22327005.785
 11  8 26  0 58 30.0000000  0  8G04G12G10G29G05G02G25G30
 124151207.950 7  96741305.82044  23625167.648                    23625178.594
 109163256.877 8  85062350.191 7  20773077.281                    20773085.902
 114579077.218 7  89282564.77245  21803654.633                    21803664.422
 127861485.494 6  99632455.686 6  24331257.055                    24331267.547
 107368614.113 7  83663946.579 8  20431540.445                    20431549.543
 110302342.225 7  85950014.12946  20989811.711                    20989818.000
 116810029.270 7  91020866.517 7  22228213.484                    22228224.652
 117273511.210 7  91382104.65745  22316426.617                    22316435.734
 11  8 26  0 59  0.0000000  0  8G04G12G10G29G05G02G25G30
 124231840.830 7  96804136.62944  23640511.609                    23640522.168
 109168249.000 8  85066240.159 7  20774027.516                    20774036.008
 114652178.963 7  89339527.17645  21817565.367                    21817575.082
 127780078.189 6  99569021.500 6  24315765.633                    24315776.121
 107336501.764 8  83638924.014 8  20425429.680                    20425438.414
 110328377.858 8  85970301.65046  20994765.875                    20994772.461
 116751704.356 7  90975418.536 7  22217114.641                    22217125.387
 117218495.390 7  91339235.21645  22305957.211                    22305966.359
 11  8 26  0 59 30.0000000  0  8G04G12G10G29G05G02G25G30
 124312435.386 7  96866937.54444  23655848.414                    23655859.332
 109173824.121 8  85070584.424 7  20775088.383                    20775096.668
 114725728.024 7  89396838.13245  21831561.555                    21831570.852
 127698602.993 6  99505534.426 6  24300261.445                    24300272.008
 107304952.923 8  83614340.539 8  20419426.383                    20419434.324
 110354553.161 8  85990698.00746  20999747.063                    20999753.531
 116693862.290 7  90930346.809 7  22206107.461                    22206118.934
 117164010.669 7  91296779.61845  22295588.711                    22295598.355
 11  8 26  1  0  0.0000000  0  8G04G12G10G29G05G02G25G30
 124392991.628 7  96929708.64044  23671177.500                    23671188.691
 109179982.833 8  85075383.428 7  20776260.211                    20776268.914
 114799722.443 7  89454496.11345  21845642.617                    21845651.496
 127617061.754 6  99441995.900 6  24284745.141                    24284754.859
 107273968.932 8  83590197.206 8  20413530.383                    20413538.824
 110380868.546 8  86011203.51546  21004754.969                    21004761.145
 116636505.903 7  90885653.525 7  22195192.688                    22195204.566
 117110059.725 7  91254739.94245  22285322.555                    22285332.113
 11  8 26  1  0 30.0000000  0  8G04G12G10G29G05G02G25G30
 124473508.366 6  96992448.91843  23686498.859                    23686510.063
 109186724.747 8  85080636.871 7  20777543.445                    20777551.801
 114874158.915 7  89512498.56345  21859806.766                    21859816.492
 127535454.696 6  99378406.084 6  24269214.969                    24269225.117
 107243550.281 8  83566494.405 8  20407741.859                    20407750.711
 110407322.328 8  86031816.86346  21009788.836                    21009795.203
 116579636.645 7  90841339.834 7  22184371.078                    22184382.594
 117056643.853 7  91213117.20045  22275157.547                    22275167.547
 11  8 26  1  1  0.0000000  0  8G04G12G10G29G05G02G25G30
 124553985.191 6  97055158.10043  23701813.195                    23701824.035
 109194049.917 8  85086344.801 7  20778937.016                    20778945.375
 114949034.834 7  89570843.42345  21874055.398                    21874064.512
 127453782.714 6  99314765.687 6  24253672.984                    24253683.461
 107213697.607 8  83543232.621 8  20402060.750                    20402069.336
 110433913.723 8  86052537.44846  21014848.500                    21014855.203
 116523256.562 7  90797407.312 7  22173642.148                    22173653.293
 117003764.940 7  91171912.86845  22265095.273                    22265104.793
 11  8 26  1  1 30.0000000  0  8G04G12G10G29G05G02G25G30
 124634421.381 6  97117835.58443  23717119.898                    23717131.129
 109201957.213 8  85092506.336 8  20780442.023                    20780450.004
 115024347.916 7  89629528.94745  21888387.125                    21888396.000
 127372046.705 6  99251075.389 6  24238119.648                    24238129.891
 107184411.853 8  83520412.586 8  20396488.086                    20396496.543
 110460641.976 8  86073364.67246  21019935.117                    21019941.520
 116467367.716 7  90753857.592 7  22163007.008                    22163018.160
 116951424.758 7  91131128.33345  22255135.570                    22255145.324
 11  8 26  1  2  0.0000000  0  8G04G12G10G29G05G02G25G30
 124714816.431 6  97180481.02043  23732418.445                    23732428.746
 109210447.000 8  85099121.746 8  20782057.773                    20782065.875
 115100095.351 7  89688552.90445  21902801.063                    21902810.215
 127290247.526 6  99187335.880 6  24222552.977                    24222563.613
 107155693.778 8  83498034.902 8  20391023.242                    20391031.867
 110487506.387 8  86094297.99446  21025046.930                    21025053.801
 116411972.030 8  90710692.161 7  22152465.523                    22152476.402
 116899625.141 7  91090765.00645  22245277.914                    22245287.477
 11  8 26  1  2 30.0000000  0  8G04G12G10G29G05G02G25G30
 124795169.520 6  97243093.75843  23747709.172                    23747720.484
 109219519.080 8  85106190.902 8  20783783.648                    20783792.184
 115176274.434 8  89747913.21145  21917297.195                    21917306.879
 127208385.749 6  99123547.566 6  24206975.461                    24206986.023
 107127543.856 8  83476099.929 8  20385666.539                    20385675.066
 110514505.683 8  86115336.42646  21030185.109                    21030191.594
 116357071.296 7  90667912.403 7  22142018.180                    22142029.383
 116848367.671 7  91050824.13745  22235524.266                    22235533.426
 11  8 26  1  3  0.0000000  0  8G04G12G10G29G05G02G25G30
 124875479.757 6  97305673.16843  23762991.742                    23763002.168
 109229172.674 8  85113713.188 8  20785620.656                    20785629.074
 115252881.921 7  89807607.34445  21931876.109                    21931884.938
 127126462.341 6  99059711.221 6  24191386.195                    24191396.746
 107099962.686 8  83454608.147 8  20380417.648                    20380426.027
 110541638.832 8  86136479.16146  21035348.188                    21035354.898
 116302667.225 7  90625519.661 7  22131665.531                    22131676.652
 116797653.752 7  91011306.82045  22225873.805                    22225882.941
 11  8 26  1  3 30.0000000  0  8G04G12G10G29G05G02G25G30
 124955746.402 6  97368218.59643  23778266.266                    23778276.961
 109239407.306 8  85121688.225 7  20787568.555                    20787576.875
 115329915.136 7  89867633.23345  21946534.281                    21946544.133
 127044477.293 6  98995826.871 6  24175785.406                    24175794.867
 107072950.841 8  83433559.992 8  20375277.883                    20375285.781
 110568904.637 8  86157725.26046  21040536.633                    21040543.133
 116248761.361 7  90583515.137 7  22121407.227                    22121418.543
 116747484.845 7  90972214.19745  22216326.805                    22216336.438
 11  8 26  1  4  0.0000000  0  8G04G12G10G29G05G02G25G30
 125035969.503 7  97430730.05943  23793532.547                    23793542.594
 109250223.511 8  85130116.432 7  20789626.477                    20789634.664
 115407372.094 7  89927989.28045  21961274.234                    21961283.492
 126962433.034 6  98931896.331 6  24160172.922                    24160181.945
 107046509.029 8  83412956.020 8  20370246.000                    20370254.352
 110596303.430 8  86179074.98446  21045750.383                    21045756.598
 116195356.345 8  90541900.888 7  22111244.820                    22111255.699
 116697863.343 7  90933548.11945  22206884.234                    22206893.297
 11  8 26  1  4 30.0000000  0  8G04G12G10G29G05G02G25G30
 125116147.855 7  97493206.71543  23808789.547                    23808800.102
 109261619.854 8  85138996.696 8  20791795.141                    20791804.004
 115485249.659 8  89988673.07945  21976094.234                    21976102.773
 126880329.398 6  98867919.553 6  24144548.094                    24144559.348
 107020637.610 8  83392796.507 8  20365322.930                    20365331.391
 110623833.270 8  86200526.82746  21050989.414                    21050995.859
 116142453.477 8  90500677.925 7  22101177.852                    22101188.832
 116648790.246 7  90895309.37345  22197545.352                    22197555.027
 11  8 26  1  5  0.0000000  0  8G04G12G10G29G05G02G25G30
 125196281.503 6  97555648.47543  23824038.773                    23824049.219
 109273596.353 8  85148329.029 7  20794074.273                    20794083.313
 115563545.396 7  90049682.73245  21990992.813                    21991002.094
 126798167.717 6  98803897.568 6  24128913.258                    24128924.332
 106995337.654 8  83373082.290 8  20360508.352                    20360517.113
 110651494.193 8  86222080.80846  21056253.109                    21056259.402
 116090054.990 8  90459847.972 7  22091206.828                    22091217.652
 116600267.708 7  90857499.61745  22188312.008                    22188321.711
 11  8 26  1  5 30.0000000  0  8G04G12G10G29G05G02G25G30
 125276369.271 6  97618054.52943  23839279.008                    23839289.867
 109286152.785 8  85158113.252 7  20796464.055                    20796472.207
 115642256.134 7  90111015.77145  22005971.070                    22005980.035
 126715948.443 6  98739830.676 6  24113267.961                    24113277.508
 106970609.060 8  83353813.287 8  20355802.406                    20355811.277
 110679284.584 7  86243735.67546  21061541.477                    21061547.914
 116038162.163 8  90419412.049 7  22081331.586                    22081342.656
 116552296.715 7  90820119.64145  22179183.070                    22179192.449
 11  8 26  1  6  0.0000000  0  8G04G12G10G29G05G02G25G30
 125356410.699 6  97680424.41144  23854510.203                    23854521.047
 109299288.093 8  85168348.544 7  20798963.258                    20798971.668
 115721378.780 7  90172669.76145  22021027.781                    22021037.047
 126633672.483 6  98675719.592 6  24097611.031                    24097620.832
 106946452.380 8  83334989.924 8  20351205.641                    20351214.125
 110707203.549 8  86265490.72846  21066854.328                    21066860.594
 115986776.722 8  90379371.471 7  22071553.125                    22071564.590
 116504878.845 7  90783170.66945  22170160.391                    22170169.867
 11  8 26  1  6 30.0000000  0  8G04G12G10G29G05G02G25G30
 125436405.626 7  97742758.09643  23869732.945                    23869744.293
 109313002.020 8  85179034.715 7  20801572.883                    20801581.516
 115800911.797 7  90234643.52245  22036162.203                    22036171.625
 126551341.048 7  98611565.284 6  24081944.398                    24081953.813
 106922868.782 8  83316613.131 8  20346718.023                    20346726.309
 110735251.070 8  86287345.95746  21072191.297                    21072197.785
 115935901.130 8  90339728.202 7  22061871.836                    22061882.730
 116458016.240 7  90746654.38845  22161242.398                    22161251.816
 11  8 26  1  7  0.0000000  0  8G04G12G10G29G05G02G25G30
 125516352.908 6  97805054.64444  23884946.289                    23884957.184
 109327293.999 8  85190171.315 7  20804292.719                    20804301.176
 115880851.214 7  90296933.96145  22051374.375                    22051383.309
 126468954.697 6  98547368.168 6  24066266.914                    24066276.500
 106899857.880 8  83298682.597 8  20342338.719                    20342347.074
 110763425.372 8  86309299.96846  21077552.500                    21077558.945
 115885536.356 7  90300482.962 7  22052287.930                    22052299.105
 116411709.685 7  90710571.39545  22152430.570                    22152440.043
 11  8 26  1  7 30.0000000  0  8G04G12G10G29G05G02G25G30
 125596252.335 6  97867313.90943  23900149.695                    23900161.520
 109342163.444 8  85201757.876 8  20807122.250                    20807130.691
 115961195.013 7  90359539.52945  22066662.977                    22066672.469
 126386514.869 6  98483129.397 6  24050578.461                    24050588.531
 106877420.763 8  83281199.162 8  20338069.250                    20338077.605
 110791726.357 7  86331352.69446  21082938.414                    21082944.691
 115835684.617 8  90261637.485 7  22042801.469                    22042812.250
 116365961.222 7  90674923.28245  22143724.500                    22143734.152
 11  8 26  1  8  0.0000000  0  8G04G12G10G29G05G02G25G30
 125676103.234 6  97929535.34343  23915345.438                    23915356.801
 109357609.906 8  85213794.077 7  20810061.594                    20810070.281
 116041939.966 7  90422457.67145  22082028.219                    22082037.504
 126304022.177 6  98418849.420 6  24034880.508                    24034890.938
 106855557.237 8  83264162.686 8  20333908.945                    20333917.469
 110820152.818 8  86353503.19446  21088347.625                    21088354.105
 115786347.346 7  90223192.896 7  22033412.836                    22033423.867
 116320771.914 7  90639710.87145  22135125.898                    22135135.148
 11  8 26  1  8 30.0000000  0  8G04G12G10G29G05G02G25G30
 125755905.112 6  97991718.56343  23930531.859                    23930542.605
 109373633.095 8  85226279.670 8  20813110.906                    20813119.445
 116123083.073 7  90485686.05145  22097469.492                    22097478.301
 126221477.567 6  98354528.985 6  24019172.531                    24019182.684
 106834268.091 8  83247573.777 8  20329857.547                    20329866.273
 110848704.068 8  86375750.92646  21093780.820                    21093787.316
 115737526.239 8  90185150.509 7  22024122.086                    22024133.531
 116276143.276 7  90604935.34245  22126633.211                    22126642.691
 11  8 26  1  9  0.0000000  0  8G04G12G10G29G05G02G25G30
 125835657.545 6  98053863.26843  23945707.727                    23945719.520
 109390231.766 8  85239213.695 7  20816269.242                    20816277.648
 116204622.276 7  90549223.08345  22112985.969                    22112994.664
 126138882.296 6  98290169.079 6  24003455.352                    24003465.543
 106813553.571 8  83231432.623 8  20325915.945                    20325924.391
 110877379.453 8  86398095.39546  21099237.438                    21099244.090
 115689223.216 8  90147511.809 7  22014930.633                    22014941.711
 116232076.934 7  90570597.96545  22118247.422                    22118256.926
 11  8 26  1  9 30.0000000  0  8G04G12G10G29G05G02G25G30
 125915359.753 6  98115968.83043  23960874.672                    23960886.441
 109407405.189 8  85252595.569 7  20819537.406                    20819545.992
 116286554.242 7  90613066.16645  22128577.344                    22128585.902
 126056237.185 6  98225770.353 6  23987728.406                    23987738.676
 106793413.655 8  83215739.214 8  20322083.367                    20322091.898
 110906177.816 8  86420535.67946  21104717.438                    21104723.465
 115641439.512 8  90110277.778 7  22005837.914                    22005848.910
 116188573.960 7  90536699.58345  22109968.922                    22109978.617
 11  8 26  1 10  0.0000000  0  8G04G12G10G29G05G02G25G30
 125995010.912 6  98178034.67643  23976032.289                    23976043.410
 109425153.008 8  85266425.036 7  20822914.555                    20822923.289
 116368875.860 7  90677212.86545  22144242.359                    22144251.207
 125973542.784 6  98161333.184 6  23971992.445                    23972002.273
 106773848.515 8  83200493.679 8  20318359.969                    20318368.387
 110935098.043 8  86443070.92846  21110221.297                    21110227.379
 115594176.508 7  90073449.476 7  21996843.773                    21996855.086
 116145635.404 7  90503240.99545  22101798.031                    22101807.246
 11  8 26  1 10 30.0000000  0  8G04G12G10G29G05G02G25G30
 126074611.674 6  98240061.19443  23991179.258                    23991190.414
 109443474.658 8  85280701.641 8  20826401.414                    20826410.004
 116451585.089 7  90741661.59645  22159981.164                    22159990.313
 125890800.802 6  98096858.938 6  23956247.406                    23956257.336
 106754859.530 8  83185697.102 8  20314746.609                    20314754.883
 110964140.751 8  86465701.60346  21115747.477                    21115753.348
 115547436.864 7  90037028.998 7  21987949.578                    21987960.922
 116103263.640 7  90470224.07645  22093734.922                    22093744.715
 11  8 26  1 11  0.0000000  0  8G04G12G10G29G05G02G25G30
 126154160.574 6  98302047.35643  24006317.313                    24006328.195
 109462368.837 8  85295424.378 8  20829996.609                    20830005.387
 116534678.723 7  90806409.85945  22175793.523                    22175803.047
 125808011.507 7  98032347.826 6  23940492.570                    23940502.750
 106736446.004 8  83171348.932 8  20311242.648                    20311250.652
 110993303.808 8  86488426.05946  21121296.953                    21121303.598
 115501221.247 8  90001016.853 7  21979154.922                    21979166.375
 116061459.137 7  90437649.16345  22085779.773                    22085788.891
 11  8 26  1 11 30.0000000  0  8G04G12G10G29G05G02G25G30
 126233657.820 7  98363993.26243  24021445.359                    24021455.754
 109481835.486 8  85310593.184 7  20833701.273                    20833709.547
 116618154.327 7  90871455.76245  22191678.352                    22191687.957
 125725176.599 7  97967801.160 6  23924729.531                    23924739.348
 106718608.621 8  83157449.713 8  20307848.391                    20307856.891
 111022587.589 8  86511244.58246  21126869.633                    21126876.273
 115455532.027 8  89965414.891 7  21970460.586                    21970472.000
 116020224.005 7  90405517.91245  22077933.133                    22077942.328
 11  8 26  1 12  0.0000000  0  8G04G12G10G29G05G02G25G30
 126313102.223 7  98425897.99443  24036562.750                    24036573.195
 109501872.878 8  85326206.732 7  20837513.883                    20837522.156
 116702008.147 7  90936796.38645  22207635.602                    22207644.418
 125642296.526 7  97903219.328 6  23908958.367                    23908968.117
 106701346.831 8  83143999.004 8  20304563.461                    20304571.453
 111051990.097 8  86534155.63546  21132464.336                    21132471.176
 115410369.802 8  89930223.561 7  21961866.188                    21961877.699
 115979558.510 7  90373830.54245  22070194.828                    22070204.027
 11  8 26  1 12 30.0000000  0  8G04G12G10G29G05G02G25G30
 126392493.499 6  98487761.31643  24051670.398                    24051681.355
 109522480.673 8  85342264.740 7  20841435.703                    20841444.172
 116786237.929 7  91002429.94345  22223663.820                    22223673.086
 125559372.308 7  97838603.075 6  23893178.375                    23893187.961
 106684661.258 8  83130997.288 8  20301388.539                    20301396.758
 111081510.885 8  86557158.84746  21138082.320                    21138088.895
 115365736.359 8  89895444.273 7  21953373.313                    21953384.355
 115939464.175 7  90342588.22345  22062565.063                    22062574.520
 11  8 26  1 13  0.0000000  0  8G04G12G10G29G05G02G25G30
 126471831.148 6  98549582.85343  24066768.477                    24066779.168
 109543657.919 8  85358766.486 7  20845465.563                    20845474.012
 116870840.385 7  91068353.92345  22239762.844                    22239772.121
 125476405.023 7  97773953.283 6  23877390.234                    23877400.074
 106668551.720 8  83118444.434 8  20298322.727                    20298330.992
 111111149.171 8  86580253.61846  21143722.367                    21143728.875
 115321633.050 8  89861078.084 7  21944980.156                    21944991.305
 115899942.042 7  90311791.77145  22055044.055                    22055053.738
 11  8 26  1 13 30.0000000  0  8G04G12G10G29G05G02G25G30
 126551114.995 6  98611362.45243  24081855.484                    24081866.473
 109565403.928 8  85375711.423 7  20849603.352                    20849611.832
 116955813.371 7  91134566.61345  22255932.781                    22255941.727
 125393396.149 7  97709271.083 6  23861594.023                    23861603.785
 106653018.993 8  83106341.039 8  20295367.008                    20295374.926
 111140904.737 8  86603439.76946  21149384.656                    21149391.223
 115278061.826 8  89827126.501 7  21936688.938                    21936700.348
 115860993.879 7  90281442.56145  22047632.680                    22047642.063
 11  8 26  1 14  0.0000000  0  8G04G12G10G29G05G02G25G30
 126630344.596 6  98673099.80043  24096932.086                    24096943.383
 109587717.758 8  85393098.811 7  20853849.805                    20853858.633
 117041153.875 7  91201065.68245  22272172.789                    22272181.660
 125310346.405 7  97644557.038 6  23845789.867                    23845799.617
 106638062.858 8  83094686.937 8  20292520.398                    20292528.980
 111170776.673 8  86626716.59546  21155069.086                    21155074.945
 115235023.997 8  89793590.551 7  21928499.281                    21928510.305
 115822620.670 7  90251541.36945  22040330.125                    22040339.336
 11  8 26  1 14 30.0000000  0  8G04G12G10G29G05G02G25G30
 126709519.157 6  98734794.16343  24111998.773                    24112009.348
 109610598.439 8  85410927.909 7  20858203.461                    20858212.371
 117126858.538 7  91267848.50745  22288481.672                    22288491.016
 125227256.895 7  97579811.993 6  23829978.781                    23829987.770
 106623682.909 8  83083481.806 8  20289784.375                    20289792.832
 111200763.800 8  86650083.17946  21160775.258                    21160781.813
 115192520.674 8  89760471.104 7  21920411.109                    21920422.148
 115784823.199 7  90222088.80045  22033138.063                    22033146.805
 11  8 26  1 15  0.0000000  0  8G04G12G10G29G05G02G25G30
 126788639.072 6  98796446.03543  24127054.734                    24127065.051
 109634045.397 8  85429198.257 7  20862665.383                    20862673.914
 117212925.306 7  91334913.49145  22304859.891                    22304869.074
 125144129.303 7  97515037.319 6  23814159.875                    23814169.695
 106609879.907 8  83072726.257 8  20287157.578                    20287165.992
 111230866.613 8  86673539.91346  21166503.648                    21166509.957
 115150554.097 8  89727769.892 7  21912425.023                    21912436.480
 115747603.473 7  90193086.43045  22026055.336                    22026063.910
 11  8 26  1 15 30.0000000  0  8G04G12G10G29G05G02G25G30
 126867703.214 6  98858054.39243  24142100.078                    24142110.484
 109658056.852 8  85447908.476 7  20867234.805                    20867243.484
 117299350.976 7  91402258.14245  22321306.148                    22321315.484
 125060963.726 7  97450233.059 6  23798334.156                    23798343.766
 106596653.286 8  83062419.832 8  20284640.797                    20284648.734
 111261082.994 8  86697085.14146  21172253.695                    21172260.000
 115109124.797 8  89695487.352 7  21904541.359                    21904552.055
 115710961.626 7  90164534.35645  22019082.516                    22019092.043
 11  8 26  1 16  0.0000000  0  8G04G12G10G29G05G02G25G30
 126946711.223 6  98919619.01643  24157135.227                    24157145.418
 109682632.346 8  85467058.207 7  20871911.797                    20871919.898
 117386132.637 7  91469880.20045  22337820.289                    22337829.371
 124977761.814 7  97385400.523 6  23782500.969                    23782510.547
 106584003.325 8  83052562.748 8  20282233.453                    20282241.602
 111291412.832 8  86720718.77446  21178025.156                    21178032.094
 115068234.489 8  89663624.793 7  21896760.242                    21896771.273
 115674899.242 7  90136433.81445  22012219.898                    22012229.293
 11  8 26  1 16 30.0000000  0  8G04G12G10G29G05G02G25G30
 127025663.315 6  98981140.04343  24172159.203                    24172170.547
 109707770.843 8  85486646.636 7  20876695.031                    20876703.316
 117473267.628 7  91537777.58745  22354401.555                    22354410.949
 124894524.747 7  97320540.596 6  23766660.961                    23766670.617
 106571930.421 8  83043155.322 8  20279936.133                    20279944.199
 111321855.877 8  86744440.62246  21183818.648                    21183825.348
 115027884.871 8  89632183.563 7  21889081.898                    21889092.863
 115639417.629 7  90108785.83145  22005468.078                    22005477.410
 11  8 26  1 17  0.0000000  0  9G04G12G10G26G29G05G02G25G30
 127104558.664 6  99042616.89843  24187171.875                    24187183.215
 109733471.344 8  85506673.000 7  20881585.641                    20881594.352
 117560752.843 7  91605947.84545  22371049.195                    22371058.465
 130576821.82916 101748337.43553  24847971.313                    24847983.809
 124811253.642 6  97255654.151 6  23750814.531                    23750824.813
 106560433.959 8  83034197.074 8  20277748.047                    20277756.746
 111352411.080 8  86768249.85646  21189633.188                    21189640.047
 114988077.015 8  89601164.482 7  21881506.664                    21881517.863
 115604517.519 7  90081590.97945  21998827.016                    21998835.844
 11  8 26  1 17 30.0000000  0  9G04G12G10G26G29G05G02G25G30
 127183396.303 6  99104048.79244  24202174.617                    24202185.938
 109759732.136 8  85527135.947 7  20886583.273                    20886591.609
 117648584.638 7  91674388.18244  22387763.000                    22387772.035
 130485519.005 6 101677192.64943  24830596.367                    24830610.156
 124727949.125 7  97190741.659 6  23734962.242                    23734972.723
 106549513.264 8  83025687.470 8  20275670.094                    20275678.234
 111383076.666 8  86792145.11646  21195468.125                    21195474.926
 114948811.541 8  89570568.038 7  21874034.852                    21874045.648
 115570199.234 7  90054849.49345  21992295.953                    21992305.438
 11  8 26  1 18  0.0000000  0  9G04G12G10G26G29G05G02G25G30
 127262176.865 6  99165436.23243  24217166.141                    24217176.930
 109786552.887 8  85548035.233 7  20891686.891                    20891695.141
 117736761.034 7  91743097.03244  22404542.195                    22404551.664
 130394073.817 6 101605936.88842  24813194.766                    24813208.496
 124644612.727 7  97125804.338 6  23719104.563                    23719114.711
 106539169.195 8  83017627.185 8  20273701.492                    20273709.711
 111413853.530 8  86816127.08346  21201325.086                    21201332.074
 114910090.593 8  89540395.897 7  21866666.047                    21866677.086
 115536464.631 7  90028562.82645  21985876.961                    21985885.598
 11  8 26  1 18 30.0000000  0  9G04G12G10G26G29G05G02G25G30
 127340899.713 6  99226778.67543  24232146.109                    24232158.410
 109813932.785 7  85569370.215 7  20896896.977                    20896905.223
 117825279.020 7  91812072.06445  22421387.109                    22421395.906
 130302488.546 5 101534572.01242  24795766.328                    24795780.582
 124561245.469 7  97060842.954 6  23703240.531                    23703250.180
 106529401.409 8  83010015.949 8  20271843.016                    20271851.473
 111444740.560 7  86840194.90246  21207202.531                    21207209.578
 114871915.292 8  89510648.926 7  21859401.984                    21859412.910
 115503314.486 7  90002731.57845  21979568.227                    21979577.266
 11  8 26  1 19  0.0000000  0  9G04G12G10G26G29G05G02G25G30
 127419564.301 6  99288075.72343  24247116.523                    24247127.152
 109841869.674 8  85591139.206 7  20902212.930                    20902221.594
 117914135.775 7  91881311.07444  22438295.422                    22438305.105
 130210765.995 5 101463100.13742  24778312.297                    24778326.137
 124477848.828 7  96995858.674 6  23687370.242                    23687379.895
 106520209.526 8  83002853.466 8  20270093.500                    20270102.246
 111475736.931 8  86864347.91146  21213101.094                    21213107.641
 114834286.703 8  89481327.973 7  21852241.641                    21852252.590
 115470749.517 7  89977356.30445  21973371.117                    21973380.402
 11  8 26  1 19 30.0000000  0  9G04G12G10G26G29G05G02G25G30
 127498170.368 6  99349327.17343  24262073.781                    24262085.129
 109870362.557 7  85613341.451 7  20907634.930                    20907643.895
 118003328.307 7  91950811.72044  22455268.656                    22455277.750
 130118908.880 5 101391523.40242  24760831.977                    24760845.574
 124394423.813 7  96930852.274 6  23671495.320                    23671504.715
 106511593.320 8  82996139.564 8  20268453.992                    20268462.539
 111506841.970 7  86888585.60046  21219020.438                    21219026.996
 114797206.046 7  89452433.969 7  21845185.227                    21845196.207
 115438770.687 7  89952437.76745  21967286.094                    21967295.594
 11  8 26  1 20  0.0000000  0  9G04G12G10G26G29G05G02G25G30
 127576717.668 6  99410532.85443  24277021.492                    24277032.648
 109899410.633 8  85635976.299 7  20913162.953                    20913171.309
 118092854.060 7  92020572.01345  22472304.852                    22472314.453
 130026920.306 6 101319844.24042  24743327.688                    24743340.508
 124310971.491 7  96865824.593 6  23655614.258                    23655623.652
 106503553.049 8  82989874.440 8  20266924.109                    20266932.184
 111538055.123 8  86912907.53346  21224959.977                    21224966.422
 114760674.727 8  89423968.017 7  21838233.445                    21838244.340
 115407379.023 7  89927976.76545  21961312.578                    21961321.695
 11  8 26  1 20 30.0000000  0  9G04G12G10G26G29G05G02G25G30
 127655205.743 6  99471692.34843  24291957.250                    24291967.695
 109929012.169 8  85659042.423 7  20918795.617                    20918804.086
 118182709.685 7  92090589.36144  22489404.102                    22489412.996
 129934802.807 5 101248064.68943  24725797.375                    24725810.961
 124227492.981 7  96800776.479 6  23639729.367                    23639738.602
 106496087.750 8  82984057.349 8  20265503.297                    20265511.281
 111569375.461 8  86937312.99946  21230919.797                    21230926.215
 114724693.506 8  89395930.710 7  21831386.414                    21831397.582
 115376574.957 7  89903973.62945  21955450.602                    21955460.047
 11  8 26  1 21  0.0000000  0  9G04G12G10G26G29G05G02G25G30
 127733634.222 6  99532805.45743  24306880.719                    24306892.574
 109959166.184 8  85682539.046 7  20924534.297                    20924542.148
 118272892.525 7  92160861.68345  22506565.258                    22506574.426
 129842559.307 6 101176186.91842  24708244.117                    24708257.512
 124143989.782 7  96735709.116 6  23623838.922                    23623848.348
 106489197.632 8  82978688.451 8  20264192.297                    20264200.473
 111600802.847 8  86961801.87346  21236900.094                    21236906.863
 114689263.879 8  89368323.209 7  21824644.500                    21824655.441
 115346359.733 7  89880429.31845  21949700.438                    21949709.664
 11  8 26  1 21 30.0000000  0  9G04G12G10G26G29G05G02G25G30
 127812002.787 6  99593871.88542  24321795.023                    24321805.301
 109989871.462 8  85706465.230 7  20930376.813                    20930385.504
 118363399.477 7  92231386.56244  22523788.203                    22523797.324
 129750192.842 6 101104213.33043  24690667.680                    24690680.891
 124060462.806 7  96670623.239 6  23607944.047                    23607953.551
 106482882.299 8  82973767.436 8  20262990.094                    20262998.770
 111632336.243 8  86986373.35146  21242901.258                    21242907.305
 114654386.792 8  89341146.255 7  21818007.266                    21818018.594
 115316733.931 7  89857344.29745  21944063.297                    21944072.426
 11  8 26  1 22  0.0000000  0  9G04G12G10G26G29G05G02G25G30
 127890311.209 6  99654891.43842  24336695.953                    24336707.258
 110021126.831 8  85730820.053 7  20936324.852                    20936333.316
 118454227.527 7  92302161.62944  22541071.555                    22541081.254
 129657706.037 6 101032145.97743  24673067.766                    24673079.941
 123976913.402 7  96605519.864 6  23592045.086                    23592054.543
 106477141.175 8  82969293.859 8  20261898.219                    20261906.465
 111663975.035 8  87011026.95546  21248921.734                    21248928.055
 114620063.363 7  89314400.724 7  21811475.820                    21811487.445
 115287698.156 7  89834719.03245  21938537.734                    21938547.082
 11  8 26  1 22 30.0000000  0  9G04G12G10G26G29G05G02G25G30
 127968559.391 6  99715864.04543  24351586.102                    24351597.629
 110052930.970 8  85755602.489 7  20942376.867                    20942384.836
 118545373.721 7  92373184.62344  22558416.734                    22558425.234
 129565101.857 6 100959987.16943  24655444.898                    24655458.012
 123893342.842 7  96540400.007 6  23576141.719                    23576151.223
 106471974.153 8  82965267.632 8  20260914.711                    20260923.055
 111695718.684 8  87035762.26746  21254962.500                    21254968.566
 114586294.691 8  89288087.455 7  21805050.008                    21805061.117
 115259253.326 7  89812554.23845  21933124.984                    21933133.852
 11  8 26  1 23  0.0000000  0  9G04G12G10G26G29G05G02G25G30
 128046746.774 6  99776789.23043  24366464.461                    24366476.301
 110085282.178 8  85780811.209 7  20948532.969                    20948541.527
 118636835.695 7  92444453.67144  22575821.102                    22575830.293
 129472383.374 6 100887739.26543  24637801.727                    24637814.488
 123809752.203 6  96475264.501 6  23560235.188                    23560244.852
 106467380.985 8  82961688.564 8  20260040.422                    20260048.832
 111727566.554 8  87060578.80146  21261022.766                    21261029.207
 114553082.024 8  89262207.436 7  21798730.070                    21798740.887
 115231400.272 7  89790850.56745  21927824.445                    21927833.680
 11  8 26  1 23 30.0000000  0  9G04G12G10G26G29G05G02G25G30
 128124873.324 6  99837667.07343  24381331.656                    24381343.398
 110118179.153 8  85806445.203 7  20954793.234                    20954801.559
 118728610.298 7  92515966.32844  22593285.688                    22593294.430
 129379553.233 6 100815404.35743  24620136.039                    24620149.199
 123726142.854 7  96410114.421 6  23544324.930                    23544334.219
 106463361.003 8  82958556.141 8  20259275.234                    20259283.691
 111759518.195 7  87085476.19546  21267103.234                    21267109.742
 114520426.191 8  89236761.317 7  21792515.633                    21792526.242
 115204139.553 7  89769608.44845  21922637.344                    21922645.977
 11  8 26  1 24  0.0000000  0  9G04G12G10G26G29G05G02G25G30
 128202938.609 6  99898497.16643  24396187.000                    24396197.934
 110151620.883 8  85832503.681 7  20961156.930                    20961165.438
 118820694.537 6  92587720.26844  22610808.055                    22610817.777
 129286614.533 6 100742984.85943  24602450.219                    24602463.004
 123642515.988 6  96344950.644 6  23528410.844                    23528420.402
 106459913.895 8  82955870.106 8  20258619.555                    20258627.914
 111791573.242 8  87110454.15546  21273202.633                    21273209.422
 114488328.333 7  89211749.980 7  21786407.289                    21786418.336
 115177471.935 7  89748828.48245  21917562.414                    21917571.594
 11  8 26  1 24 30.0000000  0  9G04G12G10G26G29G05G02G25G30
 128280942.458 6  99959279.38643  24411030.734                    24411042.109
 110185605.733 8  85858985.369 7  20967623.922                    20967632.719
 118913085.595 6  92659713.27044  22628389.563                    22628399.180
 129193570.098 6 100670482.97043  24584743.664                    24584756.523
 123558873.248 6  96279774.535 6  23512494.438                    23512504.125
 106457039.314 8  82953630.199 8  20258072.320                    20258080.723
 111823730.887 7  87135512.06846  21279322.188                    21279328.234
 114456789.412 8  89187174.174 7  21780406.039                    21780416.820
 115151397.923 7  89728511.05645  21912600.844                    21912609.699
 11  8 26  1 25  0.0000000  0  9G04G12G10G26G29G05G02G25G30
 128358884.540 6 100020013.49043  24425862.914                    24425873.598
 110220132.506 7  85885889.333 7  20974194.539                    20974202.676
 119005780.699 7  92731943.19444  22646029.188                    22646038.379
 129100422.931 6 100597900.99643  24567019.023                    24567031.359
 123475215.537 7  96214586.747 6  23496575.211                    23496584.352
 106454736.936 8  82951836.171 8  20257634.414                    20257642.504
 111855990.540 7  87160649.47146  21285460.750                    21285466.906
 114425810.442 8  89163034.709 7  21774510.930                    21774522.215
 115125918.232 7  89708656.74445  21907751.570                    21907760.996
 11  8 26  1 25 30.0000000  0  9G04G12G10G26G29G05G02G25G30
 128436764.571 7 100080699.22043  24440683.586                    24440694.336
 110255199.031 8  85913213.884 7  20980867.367                    20980875.254
 119098776.583 6  92804407.49544  22663725.680                    22663735.188
 129007175.729 6 100525241.12943  24549274.352                    24549286.664
 123391544.249 7  96149388.389 6  23480652.805                    23480662.613
 106453005.714 8  82950487.198 8  20257304.695                    20257312.840
 111888351.460 7  87185865.78646  21291618.859                    21291625.371
 114395392.022 8  89139332.031 7  21768722.672                    21768733.742
 115101033.110 7  89689265.72545  21903016.719                    21903025.773
 11  8 26  1 26  0.0000000  0  9G04G12G10G26G29G05G02G25G30
 128514582.494 7 100141336.56943  24455491.141                    24455501.355
 110290804.399 8  85940958.322 7  20987642.859                    20987651.113
 119192070.770 7  92877104.23644  22681479.133                    22681488.402
 128913831.703 6 100452505.76643  24531510.820                    24531523.801
 123307860.851 7  96084180.595 6  23464728.289                    23464737.914
 106451845.873 8  82949583.452 8  20257084.117                    20257092.527
 111920813.330 7  87211160.75946  21297795.828                    21297802.691
 114365535.601 8  89116067.286 7  21763041.102                    21763051.891
 115076743.574 7  89670338.81245  21898394.453                    21898403.621
 11  8 26  1 26 30.0000000  0  9G04G12G10G26G29G05G02G25G30
 128592337.795 7 100201925.12943  24470287.484                    24470298.582
 110326946.926 8  85969121.320 7  20994520.789                    20994529.277
 119285660.103 6  92950030.95844  22699288.344                    22699298.324
 128820393.779 6 100379697.23943  24513730.914                    24513742.965
 123224166.347 7  96018964.152 6  23448801.359                    23448811.266
 106451256.203 8  82949124.001 8  20256972.000                    20256980.129
 111953375.426 7  87236533.83146  21303992.648                    21303999.289
 114336241.724 7  89093240.891 7  21757466.375                    21757477.586
 115053049.856 7  89651876.15845  21893885.961                    21893895.164
 11  8 26  1 27  0.0000000  0  9G04G12G10G26G29G05G02G25G30
 128670030.181 6 100262464.64443  24485071.703                    24485083.102
 110363624.900 8  85997701.540 7  21001499.758                    21001508.840
 119379541.435 6  93023185.22044  22717153.602                    22717162.969
 128726864.822 6 100306817.80943  24495932.398                    24495944.668
 123140462.043 7  95953740.043 6  23432872.938                    23432882.203
 106451236.157 8  82949108.408 8  20256968.125                    20256976.914
 111986036.809 8  87261984.26846  21310207.742                    21310214.270
 114307511.018 8  89070853.330 7  21751999.203                    21752010.180
 115029952.254 7  89633878.01845  21889490.133                    21889499.211
 11  8 26  1 27 30.0000000  0  9G04G12G10G26G29G05G02G25G30
 128747659.748 6 100322955.22143  24499844.070                    24499855.469
 110400836.980 8  86026697.951 7  21008581.367                    21008589.957
 119473712.011 6  93096564.85744  22735073.305                    22735082.996
 128633247.800 6 100233869.68843  24478117.406                    24478129.426
 123056749.540 7  95888509.556 6  23416942.859                    23416952.316
 106451785.161 8  82949536.223 8  20257072.727                    20257081.051
 112018797.591 7  87287512.16246  21316442.039                    21316448.504
 114279344.675 8  89048905.536 7  21746639.555                    21746650.734
 115007451.525 7  89616344.97145  21885208.703                    21885217.734
 11  8 26  1 28  0.0000000  0  9G04G12G10G26G29G05G02G25G30
 128825226.026 6 100383396.45243  24514605.016                    24514615.789
 110438581.332 8  86056109.129 7  21015764.109                    21015772.355
 119568169.044 6  93170167.73044  22753048.414                    22753057.684
 128539545.640 6 100160855.27943  24460285.977                    24460298.285
 122973030.198 6  95823273.720 6  23401012.234                    23401021.402
 106452902.715 8  82950407.074 8  20257285.086                    20257293.602
 112051656.868 8  87313116.80646  21322694.859                    21322701.043
 114251743.403 8  89027398.071 7  21741387.281                    21741398.469
 114985548.045 7  89599277.31045  21881040.461                    21881049.695
 11  8 26  1 28 30.0000000  0  9G04G12G10G26G29G05G02G25G30
 128902729.147 6 100443788.49043  24529353.563                    24529364.555
 110476857.071 8  86085934.379 7  21023047.539                    21023055.676
 119662909.583 6  93243991.51144  22771076.367                    22771085.879
 128445761.672 6 100087777.07643  24442439.563                    24442451.332
 122889305.171 6  95758033.489 6  23385079.273                    23385089.055
 106454588.290 8  82951720.539 8  20257605.914                    20257614.246
 112084614.511 7  87338798.09546  21328966.633                    21328972.629
 114224708.066 8  89006331.586 7  21736242.492                    21736253.234
 114964242.233 8  89582675.37645  21876986.125                    21876995.496
 11  8 26  1 29  0.0000000  0  9G04G12G10G26G29G05G02G25G30
 128980168.684 6 100504130.98643  24544088.727                    24544100.254
 110515661.794 8  86116171.817 7  21030431.648                    21030440.301
 119757930.863 6  93318034.04344  22789159.102                    22789168.301
 128351898.709 6 100014637.36543  24424578.148                    24424589.746
 122805575.949 6  95692789.985 6  23369146.477                    23369155.469
 106456841.287 8  82953476.143 8  20258034.672                    20258042.441
 112117669.676 8  87364555.38446  21335256.813                    21335262.977
 114198239.527 8  88985706.775 7  21731205.375                    21731216.773
 114943534.603 8  89566539.56145  21873045.867                    21873054.633
 11  8 26  1 29 30.0000000  0  9G04G12G10G26G29G05G02G25G30
 129057544.589 6 100564423.85842  24558812.430                    24558825.340
 110554994.006 8  86146820.275 7  21037916.367                    21037924.938
 119853229.956 6  93392293.06444  22807294.000                    22807302.754
 128257959.884 7  99941438.52043  24406701.281                    24406713.762
 122721843.785 6  95627544.193 6  23353212.273                    23353222.152
 106459660.894 8  82955673.263 8  20258571.328                    20258579.063
 112150821.924 7  87390388.31646  21341565.523                    21341571.805
 114172338.336 8  88965524.047 7  21726276.648                    21726288.188
 114923425.323 8  89550869.98445  21869218.742                    21869228.359
 11  8 26  1 30  0.0000000  0  9G04G12G10G26G29G05G02G25G30
 129134856.451 6 100624666.84142  24573524.422                    24573536.430
 110594852.113 8  86177878.533 7  21045501.078                    21045509.730
 119948803.785 6  93466766.17644  22825480.430                    22825489.715
 128163948.209 6  99868182.92343  24388811.508                    24388823.691
 122638110.221 7  95562297.332 6  23337278.570                    23337288.195
 106463046.193 8  82958311.185 8  20259215.695                    20259223.457
 112184070.758 7  87416296.50946  21347892.305                    21347898.539
 114147005.249 7  88945783.994 7  21721456.180                    21721467.227
 114903914.754 8  89535666.94245  21865506.039                    21865515.738
 11  8 26  1 30 30.0000000  0  9G04G12G10G26G29G05G02G25G30
 129212104.376 6 100684860.03042  24588225.523                    24588236.605
 110635234.469 8  86209345.290 7  21053185.875                    21053193.973
 120044649.458 6  93541451.09944  22843719.555                    22843728.207
 128069866.563 6  99794872.74743  24370908.297                    24370920.430
 122554376.336 7  95497050.198 6  23321344.914                    23321354.328
 106466996.562 8  82961389.421 8  20259967.094                    20259975.270
 112217415.490 7  87442279.42446  21354237.578                    21354243.590
 114122240.973 8  88926487.179 7  21716743.617                    21716754.539
 114885003.237 8  89520930.69945  21861907.602                    21861917.059
 11  8 26  1 31  0.0000000  0  9G04G12G10G26G29G05G02G25G30
 129289288.346 6 100745003.36742  24602912.055                    24602923.992
 110676139.775 8  86241219.546 7  21060969.969                    21060978.137
 120140764.525 7  93616345.93944  22862009.773                    22862018.664
 127975718.387 6  99721510.77843  24352992.094                    24353004.559
 122470644.071 7  95431804.336 6  23305410.359                    23305419.848
 106471511.918 8  82964907.902 8  20260826.203                    20260835.070
 112250856.370 7  87468337.25946  21360601.375                    21360607.789
 114098046.543 8  88907634.395 7  21712139.516                    21712150.797
 114866691.395 8  89506661.72445  21858423.047                    21858432.184
 11  8 26  1 31 30.0000000  0  9G04G12G10G26G29G05G02G25G30
 129366407.910 6 100805096.53842  24617587.742                    24617599.418
 110717566.091 8  86273499.782 7  21068852.906                    21068861.688
 120237145.771 7  93691448.18344  22880350.344                    22880360.348
 127881506.609 6  99648099.22843  24335064.313                    24335075.883
 122386914.649 6  95366560.693 6  23289477.461                    23289487.020
 106476590.796 7  82968865.479 8  20261792.703                    20261800.992
 112284392.549 7  87494469.35946  21366983.063                    21366988.914
 114074422.259 8  88889225.873 7  21707644.023                    21707655.090
 114848979.119 8  89492859.95445  21855052.367                    21855061.879
 11  8 26  1 32  0.0000000  0  9G04G12G10G26G29G05G02G25G30
 129443462.871 6 100865139.35843  24632251.266                    24632262.762
 110759511.361 8  86306184.392 7  21076834.547                    21076843.191
 120333790.349 7  93766755.63144  22898741.781                    22898750.863
 127787234.290 6  99574640.50643  24317124.594                    24317136.426
 122303189.663 6  95301320.508 6  23273544.789                    23273554.484
 106482232.520 8  82973261.645 8  20262866.094                    20262874.320
 112318023.231 7  87520675.09546  21373382.891                    21373389.234
 114051368.727 8  88871262.094 7  21703256.984                    21703268.102
 114831866.589 7  89479525.51245  21851795.719                    21851805.023
 11  8 26  1 32 30.0000000  0  9G04G12G10G26G29G05G02G25G30
 129520453.289 6 100925131.88843  24646902.375                    24646914.117
 110801973.742 8  86339271.943 7  21084915.055                    21084923.691
 120430695.133 7  93842265.80744  22917181.258                    22917191.234
 127692904.641 6  99501137.08543  24299173.984                    24299186.121
 122219470.472 6  95236084.841 6  23257613.852                    23257622.828
 106488436.357 8  82978095.821 8  20264046.773                    20264054.789
 112351748.286 7  87546954.35246  21379800.273                    21379807.145
 114028886.657 8  88853743.625 7  21698979.063                    21698989.664
 114815354.227 8  89466658.74745  21848653.617                    21848662.758
 11  8 26  1 33  0.0000000  0  9G04G12G10G26G29G05G02G25G30
 129597378.861 6 100985073.90243  24661540.523                    24661551.598
 110844951.697 8  86372761.247 7  21093093.867                    21093102.109
 120527857.593 7  93917976.78344  22935670.797                    22935680.285
 127598520.678 7  99427591.31043  24281214.000                    24281224.762
 122135758.295 7  95170854.638 6  23241683.984                    23241693.293
 106495201.290 8  82983367.216 8  20265334.203                    20265342.152
 112385567.071 7  87573306.66046  21386235.805                    21386242.344
 114006976.556 8  88836670.833 7  21694809.414                    21694820.246
 114799442.033 7  89454259.62945  21845625.695                    21845634.930
 11  8 26  1 33 30.0000000  0  8G12G10G26G29G05G02G25G30
 110888443.554 8  86406650.991 7  21101369.945                    21101378.246
 120625274.905 7  93993886.35944  22954209.156                    22954218.699
 127504085.548 6  99354005.70343  24263242.797                    24263254.551
 122052055.070 7  95105631.417 6  23225755.797                    23225764.871
 106502526.470 8  82989075.178 8  20266728.047                    20266736.293
 112419479.429 8  87599731.87946  21392689.398                    21392695.926
 113985639.187 8  88820044.330 7  21690748.914                    21690760.270
 114784130.326 7  89442328.44045  21842711.984                    21842721.270
 11  8 26  1 34  0.0000000  0  8G12G10G26G29G05G02G25G30
 110932447.719 8  86440939.933 7  21109743.586                    21109751.902
 120722944.147 7  94069992.22344  22972794.680                    22972803.930
 127409602.796 6  99280382.96143  24245263.141                    24245274.547
 121968362.120 7  95040416.187 6  23209829.656                    23209838.496
 106510411.537 8  82995219.406 8  20268228.758                    20268236.605
 112453485.022 8  87626229.74746  21399159.828                    21399166.387
 113964875.190 8  88803864.605 7  21686797.766                    21686808.438
 114769419.463 7  89430865.42645  21839912.680                    21839921.707
 11  8 26  1 34 30.0000000  0  8G12G10G26G29G05G02G25G30
 110976961.745 8  86475626.175 7  21118214.633                    21118223.078
 120820862.153 6  94146291.95244  22991428.609                    22991437.457
 127315075.048 7  99206725.14943  24227275.125                    24227286.512
 121884680.749 7  94975209.977 6  23193905.211                    23193915.012
 106518855.088 8  83001798.810 8  20269835.414                    20269843.445
 112487583.100 8  87652799.68746  21405649.008                    21405655.699
 113944684.566 8  88788131.667 7  21682955.453                    21682966.422
 114755309.007 7  89419870.26845  21837227.313                    21837236.594
 11  8 26  1 35  0.0000000  0  8G12G10G26G29G05G02G25G30
 111021983.990 8  86510708.425 7  21126782.117                    21126790.578
 120919026.009 6  94222783.28344  23010108.156                    23010117.078
 127220505.261 7  99133034.58943  24209278.594                    24209290.063
 121801012.177 7  94910013.762 6  23177983.609                    23177993.359
 106527855.682 8  83008812.276 8  20271548.219                    20271556.547
 112521773.084 8  87679441.23246  21412154.852                    21412161.582
 113925067.815 8  88772845.895 7  21679222.625                    21679233.703
 114741798.977 8  89409342.97245  21834657.000                    21834665.922
 11  8 26  1 35 30.0000000  0  8G12G10G26G29G05G02G25G30
 111067512.330 8  86546185.036 7  21135445.570                    21135454.277
 121017432.882 6  94299463.94944  23028834.414                    23028843.145
 127125896.795 6  99059313.89943  24191274.945                    24191286.691
 121717357.941 7  94844828.699 6  23162064.500                    23162074.082
 106537412.637 8  83016259.270 8  20273366.727                    20273374.801
 112556054.537 8  87706154.06546  21418678.570                    21418684.730
 113906025.383 8  88758007.658 7  21675598.977                    21675610.043
 114728889.429 7  89399283.60745  21832200.219                    21832209.391
 11  8 26  1 36  0.0000000  0  8G12G10G26G29G05G02G25G30
 111113544.529 8  86582054.257 7  21144205.289                    21144214.238
 121116080.027 6  94376331.84844  23047605.969                    23047615.250
 127031252.762 6  98985565.53143  24173264.391                    24173276.805
 121633719.683 7  94779656.090 6  23146148.938                    23146158.258
 106547524.946 8  83024139.008 8  20275291.102                    20275299.324
 112590427.083 8  87732937.87646  21425219.617                    21425225.914
 113887557.675 8  88743617.248 7  21672084.563                    21672095.207
 114716580.322 7  89389692.12045  21829857.453                    21829866.848
 11  8 26  1 36 30.0000000  0  8G12G10G26G29G05G02G25G30
 111160079.145 8  86618314.979 7  21153060.539                    21153069.270
 121214964.718 6  94453384.82444  23066422.813                    23066433.031
 126936576.506 6  98911791.99843  24155248.188                    24155259.598
 121550099.259 7  94714497.389 6  23130236.938                    23130246.008
 106558192.205 8  83032451.176 8  20277321.203                    20277329.164
 112624890.668 8  87759792.61946  21431777.617                    21431783.738
 113869665.363 8  88729675.195 7  21668679.688                    21668691.160
 114704871.997 7  89380568.77845  21827629.695                    21827638.953
 11  8 26  1 37  0.0000000  0  8G12G10G26G29G05G02G25G30
 111207114.378 8  86654965.795 7  21162010.945                    21162019.418
 121314083.931 6  94530620.52444  23085284.516                    23085294.867
 126841871.269 6  98837995.95443  24137225.906                    24137237.789
 121466497.920 7  94649353.552 6  23114327.430                    23114336.695
 106569413.018 8  83041194.698 8  20279456.180                    20279463.984
 112659444.770 8  87786717.90246  21438353.469                    21438359.285
 113852348.829 8  88716181.812 7  21665384.586                    21665395.559
 114693764.273 7  89371913.42245  21825516.156                    21825524.879
 11  8 26  1 37 30.0000000  0  8G12G10G26G29G05G02G25G30
 111254648.162 8  86692005.091 7  21171056.367                    21171065.133
 121413434.607 6  94608036.57644  23104190.969                    23104201.070
 126747140.033 6  98764179.64943  24119199.141                    24119210.781
 121382917.210 7  94584225.772 6  23098422.813                    23098431.688
 106581186.010 8  83050368.482 8  20281696.625                    20281704.094
 112694088.923 8  87813713.35446  21444945.492                    21444951.793
 113835608.079 8  88703137.074 7  21662199.188                    21662210.215
 114683256.878 7  89363725.86045  21823516.320                    21823525.418
 11  8 26  1 38  0.0000000  0  8G12G10G26G29G05G02G25G30
 111302678.537 8  86729431.351 7  21180196.742                    21180204.766
 121513014.220 6  94685631.02644  23123140.164                    23123149.730
 126652386.146 7  98690345.64944  24101168.219                    24101179.863
 121299358.592 7  94519115.206 7  23082521.617                    23082531.020
 106593510.564 8  83059972.051 8  20284041.734                    20284050.109
 112728822.776 8  87840778.70446  21451555.359                    21451561.797
 113819443.702 8  88690541.459 7  21659123.094                    21659134.125
 114673349.851 7  89356006.11445  21821630.953                    21821640.586
 11  8 26  1 38 30.0000000  0  8G12G10G26G29G05G02G25G30
 111351203.016 8  86767242.625 7  21189430.492                    21189438.930
 121612819.423 7  94763401.27844  23142132.844                    23142141.863
 126557612.621 7  98616496.31243  24083134.055                    24083144.910
 121215823.589 7  94454023.039 6  23066625.602                    23066635.152
 106606384.856 8  83070003.988 8  20286491.539                    20286499.820
 112763645.586 8  87867913.35846  21458182.172                    21458187.953
 113803855.513 8  88678394.809 7  21656156.492                    21656167.609
 114664042.683 7  89348753.79445  21819860.031                    21819869.352
 11  8 26  1 39  0.0000000  0  8G12G10G26G29G05G02G25G30
 111400219.578 8  86805437.329 7  21198757.531                    21198766.453
 121712847.652 7  94841345.32044  23161167.891                    23161176.465
 126462822.888 7  98542634.37343  24065095.539                    24065106.770
 121132313.941 7  94388950.626 6  23050734.336                    23050743.297
 106619808.436 8  83080463.946 8  20289045.820                    20289054.234
 112798557.424 8  87895117.40745  21464825.227                    21464831.730
 113788844.186 8  88666697.674 7  21653300.406                    21653311.219
 114655335.528 8  89341969.01545  21818203.039                    21818212.633
 11  8 26  1 39 30.0000000  0  8G12G10G26G29G05G02G25G30
 111449726.542 8  86844014.182 7  21208178.398                    21208187.082
 121813096.101 7  94919460.98044  23180244.367                    23180252.980
 126368020.236 7  98468762.29643  24047055.102                    24047065.324
 121048831.448 7  94323899.362 6  23034848.008                    23034857.012
 106633780.207 8  83091351.064 8  20291704.406                    20291713.004
 112833558.030 8  87922390.60746  21471485.594                    21471492.023
 113774410.011 8  88655450.260 7  21650553.656                    21650564.348
 114647228.292 7  89335651.70945  21816659.984                    21816669.836
 11  8 26  1 40  0.0000000  0  8G12G10G26G29G05G02G25G30
 111499721.553 8  86882971.320 7  21217692.414                    21217701.023
 121913561.948 7  94997746.03344  23199362.688                    23199371.031
 126273207.678 7  98394882.50243  24029012.852                    24029023.184
 120965377.357 7  94258870.209 6  23018967.188                    23018976.629
 106648298.562 8  83102664.086 8  20294467.547                    20294475.773
 112868646.965 8  87949732.62946  21478162.656                    21478169.148
 113760552.953 8  88644652.553 7  21647916.117                    21647927.293
 114639720.555 7  89329801.53245  21815231.461                    21815241.160
 11  8 26  1 40 30.0000000  0  8G12G10G26G29G05G02G25G30
 111550203.019 8  86922307.520 7  21227299.188                    21227307.484
 122014242.409 7  95076198.32443  23218521.125                    23218530.168
 126178388.780 6  98320997.77843  24010969.219                    24010979.039
 120881953.411 7  94193864.555 6  23003092.727                    23003101.453
 106663362.628 8  83114402.333 8  20297334.133                    20297342.035
 112903823.929 8  87977143.25346  21484856.852                    21484863.063
 113747273.375 8  88634304.823 7  21645389.359                    21645400.230
 114632812.144 7  89324418.36445  21813917.164                    21813926.082
 11  8 26  1 41  0.0000000  0  8G12G10G26G29G05G02G25G30
 111601168.410 8  86962020.811 7  21236996.898                    21237005.523
 122115134.636 7  95154815.63744  23237720.258                    23237729.613
 126083566.676 6  98247110.55643  23992924.711                    23992935.141
 120798561.053 7  94128883.491 6  22987222.984                    22987232.176
 106678971.042 8  83126564.758 8  20300304.070                    20300312.098
 112939088.417 8  88004622.08346  21491567.188                    21491573.957
 113734571.458 8  88624407.209 7  21642972.484                    21642983.195
 114626502.836 7  89319502.03545  21812716.477                    21812725.188
 11  8 26  1 41 30.0000000  0  8G12G10G26G29G05G02G25G30
 111652615.811 8  87002109.682 7  21246786.969                    21246795.531
 122216235.892 7  95233595.80543  23256958.734                    23256968.762
 125988744.709 6  98173223.50143  23974880.219                    23974891.797
 120715202.219 7  94063928.565 6  22971360.578                    22971369.547
 106695122.666 8  83139150.463 8  20303377.734                    20303385.688
 112974440.291 8  88032169.00346  21498294.570                    21498300.793
 113722447.337 8  88614959.831 7  21640665.031                    21640676.051
 114620792.283 7  89315052.24745  21811629.594                    21811638.781
 11  8 26  1 42  0.0000000  0  8G12G10G26G29G05G02G25G30
 111704542.856 7  87042572.304 7  21256668.461                    21256677.035
 122317543.247 6  95312536.54543  23276236.867                    23276246.609
 125893926.139 6  98099339.08743  23956836.867                    23956848.277
 120631878.440 7  93999000.936 6  22955504.586                    22955513.410
 106711816.162 8  83152158.394 8  20306554.172                    20306562.609
 113009879.146 8  88059783.69246  21505038.523                    21505044.922
 113710901.102 8  88605962.757 7  21638467.914                    21638479.258
 114615680.233 7  89311068.84045  21810656.609                    21810665.816
 11  8 26  1 42 30.0000000  0  8G12G10G26G29G05G02G25G30
 111756947.769 8  87083407.289 7  21266640.977                    21266649.352
 122419053.866 7  95391635.66144  23295553.852                    23295563.512
 125799114.523 6  98025460.11544  23938795.016                    23938806.156
 120548591.607 7  93934102.092 6  22939655.664                    22939665.094
 106729050.705 8  83165587.928 8  20309833.828                    20309842.035
 113045404.745 8  88087465.97346  21511799.070                    21511805.234
 113699932.939 8  88597416.131 7  21636380.859                    21636392.227
 114611166.318 7  89307551.50545  21809797.828                    21809807.156
 11  8 26  1 43  0.0000000  0  8G12G10G26G29G05G02G25G30
 111809828.215 8  87124612.818 7  21276703.406                    21276712.070
 122520764.840 7  95470890.93544  23314909.672                    23314919.039
 125704312.834 6  97951588.86144  23920754.391                    23920766.172
 120465342.880 7  93869232.965 6  22923813.820                    22923822.730
 106746824.478 8  83179437.634 8  20313216.234                    20313224.371
 113081016.429 8  88115215.34146  21518575.695                    21518582.008
 113689542.659 8  88589319.798 7  21634403.539                    21634414.590
 114607249.932 7  89304499.76845  21809052.570                    21809061.602
 11  8 26  1 43 30.0000000  0  8G12G10G26G29G05G02G25G30
 111863181.662 8  87166186.922 7  21286856.609                    21286865.230
 122622673.680 7  95550300.39444  23334302.023                    23334312.070
 125609524.445 6  97877727.95944  23902716.672                    23902727.980
 120382134.269 7  93804395.090 6  22907979.953                    22907989.379
 106765136.704 8  83193706.921 8  20316701.141                    20316709.082
 113116714.548 8  88143032.05946  21525368.289                    21525374.703
 113679730.537 8  88581673.983 7  21632536.211                    21632547.445
 114603930.920 7  89301913.50745  21808421.000                    21808429.871
 11  8 26  1 44  0.0000000  0  8G12G10G26G29G05G02G25G30
 111917005.620 8  87208127.660 7  21297098.906                    21297107.262
 122724777.293 7  95629861.63344  23353731.414                    23353741.648
 125514752.366 6  97803879.74644  23884682.477                    23884693.984
 120298967.023 7  93739589.445 7  22892153.656                    22892162.852
 106783985.120 8  83208394.014 8  20320287.844                    20320295.617
 113152498.172 8  88170915.40246  21532177.930                    21532184.199
 113670496.112 8  88574478.323 7  21630779.031                    21630789.910
 114601208.388 7  89299792.04545  21807902.813                    21807911.984
 11  8 26  1 44 30.0000000  0  8G12G10G26G29G05G02G25G30
 111971298.674 8  87250433.917 7  21307430.867                    21307439.043
 122827072.693 7  95709572.29644  23373197.344                    23373207.152
 125420000.096 6  97730046.96244  23866651.906                    23866662.367
 120215843.022 7  93674817.509 6  22876335.617                    22876345.063
 106803368.738 8  83223498.146 8  20323976.352                    20323984.477
 113188367.220 8  88198865.29846  21539003.781                    21539010.012
 113661839.552 8  88567732.941 7  21629131.961                    21629143.273
 114599082.046 7  89298135.14545  21807498.156                    21807507.070
 11  8 26  1 45  0.0000000  0  8G12G10G26G29G05G02G25G30
 112026057.997 8  87293103.502 7  21317851.055                    21317859.363
 122929556.963 7  95789430.15643  23392699.523                    23392709.215
 125325271.300 7  97656232.45844  23848625.031                    23848635.852
 120132764.216 7  93610080.784 6  22860526.203                    22860535.102
 106823286.370 8  83239018.395 8  20327766.469                    20327774.836
 113224321.597 8  88226881.70246  21545845.539                    21545852.234
 113653760.906 8  88561437.897 7  21627594.453                    21627605.723
 114597551.489 7  89296942.50445  21807207.383                    21807216.535
 11  8 26  1 45 30.0000000  0  8G12G10G26G29G05G02G25G30
 112081281.359 8  87336134.676 7  21328359.641                    21328368.059
 123032227.726 7  95869433.31643  23412237.156                    23412247.094
 125230569.105 7  97582438.68944  23830603.961                    23830614.789
 120049732.127 7  93545380.473 6  22844726.164                    22844734.559
 106843736.567 8  83254953.621 8  20331657.688                    20331666.012
 113260360.795 8  88254964.19646  21552703.484                    21552710.039
 113646260.144 8  88555593.150 7  21626167.281                    21626178.027
 114596616.168 8  89296213.68645  21807029.070                    21807038.027
 11  8 26  1 46  0.0000000  0  8G12G10G26G29G05G02G25G30
 112136966.392 8  87379525.589 7  21338956.000                    21338964.801
 123135082.280 6  95949579.68943  23431809.297                    23431819.203
 125135896.634 6  97508668.04543  23812587.852                    23812598.527
 119966748.347 7  93480717.822 6  22828934.445                    22828943.789
 106864717.631 8  83271302.513 8  20335650.805                    20335658.887
 113296484.571 8  88283112.59345  21559577.547                    21559583.836
 113639336.914 8  88550198.425 7  21624849.523                    21624861.125
 114596275.402 8  89295948.14745  21806964.297                    21806973.523
 11  8 26  1 46 30.0000000  0  8G12G10G26G29G05G02G25G30
 112193111.119 7  87423274.705 7  21349639.805                    21349648.676
 123238117.757 6  96029867.07543  23451416.297                    23451426.215
 125041257.876 6  97434923.68643  23794578.383                    23794589.199
 119883814.732 7  93416094.264 6  22813152.602                    22813161.527
 106886228.661 8  83288064.357 8  20339744.000                    20339751.656
 113332693.097 8  88311327.02045  21566468.031                    21566474.227
 113632991.464 8  88545253.910 7  21623642.203                    21623653.137
 114596528.910 8  89296145.67245  21807012.602                    21807021.180
 11  8 26  1 47  0.0000000  0  8G12G10G26G29G05G02G25G30
 112249713.599 7  87467380.512 7  21360411.250                    21360419.609
 123341331.777 6  96110293.53543  23471057.648                    23471067.570
 124946656.019 6  97361208.11543  23776577.117                    23776587.230
 119800933.322 7  93351511.395 6  22797380.922                    22797389.672
 106908268.523 8  83305238.294 8  20343937.977                    20343945.957
 113368986.119 8  88339607.29746  21573373.961                    21573380.750
 113627223.747 8  88540759.582 7  21622544.742                    21622556.059
 114597376.227 8  89296805.91245  21807173.469                    21807182.805
 11  8 26  1 47 30.0000000  0  8G12G10G26G29G05G02G25G30
 112306771.404 8  87511841.120 7  21371269.250                    21371277.668
 123444721.005 7  96190856.54443  23490732.648                    23490741.742
 124852094.320 6  97287523.78243  23758581.617                    23758592.332
 119718105.798 7  93286970.517 6  22781619.391                    22781628.965
 106930835.207 8  83322822.733 8  20348232.422                    20348240.359
 113405363.025 8  88367952.94346  21580296.383                    21580302.914
 113622033.272 8  88536715.053 7  21621556.945                    21621568.000
 114598816.385 7  89297928.09945  21807447.883                    21807457.316
 11  8 26  1 48  0.0000000  0  8G12G10G26G29G05G02G25G30
 112364281.718 7  87556654.330 7  21382213.023                    21382221.379
 123548282.685 7  96271553.92644  23510440.070                    23510449.496
 124757576.176 6  97213873.39943  23740595.508                    23740606.148
 119635333.565 7  93222472.729 6  22765868.047                    22765877.281
 106953926.917 8  83340816.287 8  20352626.406                    20352634.547
 113441823.733 8  88396363.89145  21587234.695                    21587241.031
 113617419.853 7  88533120.179 7  21620679.133                    21620689.934
 114600848.737 7  89299511.74045  21807834.727                    21807844.063
 11  8 26  1 48 30.0000000  0  9G15G12G10G26G29G05G02G25G30
 129431966.50816 100856193.83316  24630095.617                    24630108.418
 112422241.531 7  87601817.796 7  21393242.141                    21393251.016
 123652013.959 7  96352383.46644  23530179.641                    23530188.324
 124663104.859 6  97140259.51443  23722618.203                    23722628.648
 119552618.177 7  93158019.238 7  22750127.930                    22750136.938
 106977542.146 8  83359217.770 8  20357120.078                    20357128.500
 113478367.940 7  88424839.88445  21594188.852                    21594195.094
 113613383.021 8  88529974.597 7  21619910.703                    21619921.887
 114603472.348 7  89301556.11045  21808334.156                    21808343.082
 11  8 26  1 49  0.0000000  0  9G15G12G10G26G29G05G02G25G30
 129339226.112 6 100783929.000 6  24612447.227                    24612460.871
 112480649.462 8  87647330.448 7  21404356.844                    21404365.688
 123755912.565 7  96433343.39344  23549950.250                    23549959.945
 124568683.742 6  97066684.73744  23704650.461                    23704660.664
 119469961.809 7  93093611.734 7  22734398.680                    22734408.270
 107001679.953 8  83378026.450 8  20361713.469                    20361721.781
 113514995.739 8  88453381.03946  21601158.875                    21601165.488
 113609922.818 8  88527278.326 7  21619252.609                    21619263.227
 114606686.840 7  89304060.88745  21808945.781                    21808954.656
 11  8 26  1 49 30.0000000  0  9G15G12G10G26G29G05G02G25G30
 129246350.633 6 100711558.875 6  24594774.164                    24594786.719
 112539502.198 8  87693189.690 7  21415556.422                    21415565.145
 123859975.027 7  96514430.98843  23569753.375                    23569762.188
 124474316.021 6  96993151.56543  23686693.234                    23686703.078
 119387365.846 7  93029251.293 7  22718681.219                    22718690.129
 107026337.930 8  83397240.468 8  20366405.766                    20366413.992
 113551706.117 8  88481986.52946  21608145.016                    21608151.234
 113607038.334 8  88525030.672 7  21618703.602                    21618714.523
 114610490.805 7  89307024.99545  21809669.547                    21809678.766
 11  8 26  1 50  0.0000000  0  9G15G12G10G26G29G05G02G25G30
 129153343.271 6 100639085.986 6  24577074.898                    24577087.242
 112598797.947 8  87739394.153 7  21426839.852                    21426848.297
 123964199.132 6  96595644.55843  23589585.750                    23589595.094
 124380005.693 6  96919663.12243  23668745.922                    23668756.379
 119304832.489 7  92964939.633 7  22702976.102                    22702984.984
 107051515.185 8  83416859.105 8  20371196.867                    20371204.859
 113588499.475 8  88510656.68246  21615146.297                    21615152.422
 113604729.856 8  88523231.847 7  21618264.055                    21618275.594
 114614884.052 7  89310448.29745  21810505.469                    21810514.180
 11  8 26  1 50 30.0000000  0  9G15G12G10G26G29G05G02G25G30
 129060206.657 6 100566512.384 6  24559351.258                    24559363.133
 112658534.679 7  87785942.236 7  21438207.492                    21438215.977
 124068582.295 6  96676982.02543  23609448.344                    23609459.438
 124285756.169 6  96846222.05343  23650810.828                    23650821.258
 119222363.666 7  92900678.257 7  22687282.641                    22687291.238
 107077210.406 8  83436881.364 8  20376086.328                    20376094.652
 113625375.987 8  88539391.63246  21622163.891                    21622169.961
 113602997.237 8  88521881.746 7  21617934.750                    21617945.375
 114619865.960 7  89314330.28445  21811453.477                    21811462.793
 11  8 26  1 51  0.0000000  0  9G15G12G10G26G29G05G02G25G30
 128966942.999 6 100493839.782 6  24541604.367                    24541615.703
 112718709.375 8  87832831.592 7  21449658.609                    21449667.043
 124173121.535 6  96758441.12643  23629342.172                    23629352.754
 124191570.680 6  96772830.87943  23632887.875                    23632897.914
 119139961.120 7  92836468.536 6  22671602.078                    22671610.152
 107103421.377 8  83457305.503 8  20381074.383                    20381081.992
 113662334.966 8  88568190.85046  21629197.000                    21629202.742
 113601839.839 8  88520979.866 7  21617714.414                    21617725.648
 114625435.530 7  89318670.19345  21812513.594                    21812522.438
 11  8 26  1 51 30.0000000  0  9G15G12G10G26G29G05G02G25G30
 128873554.928 6 100421070.208 6  24523831.945                    24523844.336
 112779320.114 8  87880060.720 7  21461191.898                    21461200.543
 124277814.408 7  96840019.97143  23649265.625                    23649274.941
 124097452.713 6  96699492.33643  23614977.422                    23614987.840
 119057626.463 7  92772311.689 7  22655933.852                    22655942.738
 107130146.683 8  83478130.434 8  20386160.055                    20386167.527
 113699376.490 8  88597054.37346  21636245.867                    21636251.582
 113601257.289 8  88520525.927 7  21617603.602                    21617614.391
 114631591.890 7  89323467.33145  21813684.727                    21813694.168
 11  8 26  1 52  0.0000000  0  9G15G12G10G26G29G05G02G25G30
 128780044.960 6 100348205.664 6  24506036.680                    24506049.938
 112840364.266 8  87927627.569 7  21472808.813                    21472817.695
 124382658.085 7  96921716.32143  23669216.242                    23669225.391
 124003406.103 6  96626209.36043  23597080.680                    23597091.301
 118975361.751 7  92708209.355 7  22640279.156                    22640288.465
 107157385.024 7  83499355.125 8  20391343.016                    20391350.895
 113736500.497 8  88625982.18646  21643310.031                    21643316.344
 113601249.391 8  88520519.781 7  21617601.781                    21617613.152
 114638334.244 8  89328721.08845  21814967.766                    21814976.570
 11  8 26  1 52 30.0000000  0  9G15G12G10G26G29G05G02G25G30
 128686415.684 6 100275248.119 6  24488220.211                    24488232.598
 112901839.014 7  87975529.951 7  21484506.672                    21484515.809
 124487649.892 7  97003528.16443  23689195.766                    23689204.652
 123909434.275 6  96552984.66444  23579199.078                    23579209.055
 118893169.041 7  92644163.123 7  22624638.727                    22624647.172
 107185135.016 7  83520978.501 8  20396623.797                    20396631.410
 113773707.165 8  88654974.40645  21650390.117                    21650396.473
 113601815.812 8  88520961.138 7  21617709.867                    21617720.492
 114645661.890 8  89334430.92045  21816362.508                    21816371.352
 11  8 26  1 53  0.0000000  0  9G15G12G10G26G29G05G02G25G30
 128592669.440 6 100202199.444 6  24470379.570                    24470392.809
 112963742.128 7  88023766.132 7  21496286.594                    21496295.449
 124592787.117 7  97085453.26743  23709203.141                    23709211.641
 123815540.316 7  96479820.65044  23561331.055                    23561341.547
 118811049.807 7  92580174.148 7  22609011.953                    22609020.914
 107213394.425 8  83542998.822 8  20402001.328                    20402009.406
 113810995.921 8  88684030.58446  21657486.180                    21657492.188
 113602955.678 8  88521849.349 7  21617926.828                    21617937.742
 114653573.498 8  89340595.77845  21817868.023                    21817877.348
 11  8 26  1 53 30.0000000  0  9G15G12G10G26G29G05G02G25G30
 128498808.835 6 100129061.643 6  24452518.680                    24452531.168
 113026070.707 7  88072333.839 7  21508147.109                    21508155.883
 124698066.947 7  97167489.50443  23729236.172                    23729245.367
 123721727.568 7  96406719.90444  23543479.680                    23543489.414
 118729005.615 7  92516243.655 7  22593399.477                    22593408.211
 107242161.132 8  83565414.444 8  20407475.586                    20407483.988
 113848366.117 8  88713150.22645  21664596.813                    21664603.605
 113604668.292 8  88523183.854 7  21618252.398                    21618263.875
 114662067.927 8  89347214.79745  21819484.492                    21819494.141
 11  8 26  1 54  0.0000000  0  9G15G12G10G26G29G05G02G25G30
 128404836.178 6 100055836.546 6  24434635.813                    24434648.594
 113088822.546 8  88121231.356 7  21520088.508                    21520097.480
 124803486.992 7  97249634.97043  23749296.828                    23749307.070
 123628000.019 7  96333685.52844  23525643.500                    23525653.512
 118647038.797 7  92452373.444 7  22577801.484                    22577810.496
 107271434.239 8  83588224.664 8  20413046.094                    20413053.863
 113885818.232 8  88742333.69545  21671723.570                    21671730.270
 113606953.629 8  88524964.636 7  21618687.266                    21618698.359
 114671144.601 8  89354287.51845  21821211.922                    21821220.980
 11  8 26  1 54 30.0000000  0  9G15G12G10G26G29G05G02G25G30
 128310754.010 6  99982526.093 6  24416733.133                    24416744.441
 113151995.565 8  88170457.071 7  21532110.008                    21532118.680
 124909044.511 6  97331887.56643  23769383.672                    23769394.141
 123534360.985 6  96260720.15244  23507824.797                    23507834.938
 118565151.145 7  92388564.921 7  22562218.984                    22562228.137
 107301211.693 7  83611427.884 8  20418712.523                    20418720.289
 113923352.047 7  88771580.84045  21678866.813                    21678872.633
 113609810.957 8  88527191.135 7  21619231.086                    21619242.316
 114680802.449 7  89361813.11045  21823049.289                    21823058.551
 11  8 26  1 55  0.0000000  0  9G15G12G10G26G29G05G02G25G30
 128216564.729 6  99909132.195 6  24398808.633                    24398820.289
 113215586.084 8  88220008.114 7  21544211.391                    21544219.371
 125014736.610 6  97414244.99843  23789496.039                    23789506.477
 123440813.860 6  96187826.39044  23490023.445                    23490033.188
 118483344.371 7  92324819.427 7  22546651.242                    22546660.406
 107331491.537 8  83635022.574 8  20424474.555                    20424482.246
 113960967.425 7  88800891.53145  21686024.898                    21686030.504
 113613239.571 8  88529862.789 7  21619883.609                    21619894.578
 114691040.201 8  89369790.58845  21824997.711                    21825007.281
 11  8 26  1 55 30.0000000  0  9G15G12G10G26G29G05G02G25G30
 128122271.101 6  99835656.980 6  24380864.930                    24380876.211
 113279592.041 7  88269882.874 7  21556390.641                    21556399.320
 125120560.926 6  97496705.45743  23809633.891                    23809644.461
 123347362.223 7  96115007.05944  23472239.602                    23472249.477
 118401620.472 7  92261138.508 7  22531099.695                    22531109.160
 107362272.240 7  83659007.554 8  20430331.711                    20430339.852
 113998664.043 7  88830265.52546  21693197.898                    21693203.895
 113617238.985 8  88532979.219 7  21620644.742                    21620655.445
 114701856.968 7  89378219.23945  21827055.891                    21827065.273
 11  8 26  1 56  0.0000000  0  9G15G12G10G26G29G05G02G25G30
 128027875.913 6  99762102.591 6  24362902.531                    24362913.656
 113344010.801 8  88320079.291 7  21568649.297                    21568657.938
 125226514.519 6  97579266.64143  23829795.969                    23829806.754
 123254009.516 7  96042264.77444  23454475.656                    23454485.133
 118319981.429 7  92197523.711 7  22515564.547                    22515573.320
 107393552.075 7  83683381.475 8  20436284.125                    20436291.914
 114036442.044 7  88859702.92845  21700386.781                    21700393.262
 113621808.467 8  88536539.866 7  21621514.172                    21621525.336
 114713251.525 8  89387098.12445  21829224.664                    21829233.313
 11  8 26  1 56 30.0000000  0  9G15G12G10G26G29G05G02G25G30
 127933381.752 6  99688471.117 6  24344921.070                    24344931.848
 113408840.239 7  88370595.727 7  21580985.859                    21580994.285
 125332594.739 6  97661926.51843  23849983.023                    23849993.289
 123160759.397 7  95969602.45644  23436730.445                    23436740.484
 118238429.251 7  92133976.623 7  22500045.438                    22500054.371
 107425329.306 7  83708142.965 8  20442331.156                    20442338.926
 114074301.096 7  88889203.50945  21707591.313                    21707597.805
 113626947.464 8  88540544.288 7  21622492.289                    21622503.262
 114725222.830 8  89396426.44045  21831502.297                    21831511.504
 11  8 26  1 57  0.0000000  0  9G15G12G10G26G29G05G02G25G30
 127838791.018 6  99614764.367 6  24326920.016                    24326931.281
 113474077.432 7  88421429.901 7  21593400.430                    21593409.160
 125438798.893 6  97744682.98843  23870193.570                    23870202.742
 123067615.358 7  95897022.75543  23419005.594                    23419015.531
 118156965.612 7  92070498.515 7  22484543.734                    22484552.488
 107457601.919 7  83733290.461 8  20448472.242                    20448480.074
 114112241.324 7  88918767.32345  21714810.727                    21714817.090
 113632655.236 8  88544991.909 7  21623578.188                    21623589.172
 114737769.722 8  89406203.25245  21833890.055                    21833899.027
 11  8 26  1 57 30.0000000  0  9G15G12G10G26G29G05G02G25G30
 127744106.192 7  99540984.285 6  24308901.656                    24308913.277
 113539719.129 8  88472579.268 7  21605891.438                    21605900.383
 125545124.501 6  97827534.09843  23890425.789                    23890435.711
 122974580.630 7  95824528.25144  23401300.953                    23401311.441
 118075592.715 7  92007091.100 7  22469058.531                    22469066.723
 107490368.144 8  83758822.604 8  20454707.664                    20454715.500
 114150262.647 7  88948394.32345  21722045.742                    21722052.410
 113638930.961 8  88549882.090 7  21624772.320                    21624783.391
 114750890.811 8  89416427.48845  21836386.852                    21836396.008
 11  8 26  1 58  0.0000000  0  9G15G12G10G26G29G05G02G25G30
 127649329.886 7  99467132.909 6  24290866.945                    24290877.785
 113605763.445 7  88524042.355 7  21618459.227                    21618468.145
 125651569.071 6  97910477.91043  23910682.563                    23910691.660
 122881659.136 7  95752121.98044  23383618.336                    23383628.859
 117994312.168 7  91943755.667 7  22453591.211                    22453600.355
 107523626.111 8  83784737.915 8  20461036.484                    20461044.094
 114188365.038 7  88978084.49445  21729296.570                    21729303.180
 113645774.096 8  88555214.402 7  21626074.680                    21626085.609
 114764585.093 8  89427098.37345  21838992.414                    21839001.891
 11  8 26  1 58 30.0000000  0  9G15G12G10G26G29G05G02G25G30
 127554464.945 7  99393212.451 6  24272813.719                    24272825.230
 113672207.570 7  88575816.981 7  21631102.820                    21631111.633
 125758129.893 6  97993512.33243  23930960.219                    23930969.543
 122788854.363 7  95679806.67644  23365958.641                    23365968.352
 117913125.985 7  91880493.754 7  22438142.305                    22438150.715
 107557374.100 8  83811035.065 8  20467458.555                    20467466.129
 114226548.326 7  89007837.71845  21736562.789                    21736569.555
 113653183.874 8  88560988.241 7  21627484.992                    21627496.258
 114778851.421 8  89438215.00145  21841707.055                    21841716.773
 11  8 26  1 59  0.0000000  0  9G15G12G10G26G29G05G02G25G30
 127459513.980 7  99319224.933 6  24254745.117                    24254755.895
 113739049.193 7  88627901.351 7  21643822.547                    21643831.391
 125864804.385 6  98076635.27943  23951259.133                    23951268.527
 122696169.675 7  95607584.94944  23348321.023                    23348330.676
 117832036.270 7  91817307.008 7  22422711.359                    22422720.363
 107591610.162 7  83837712.535 8  20473973.383                    20473981.105
 114264812.156 8  89037653.68845  21743844.148                    21743850.129
 113661159.393 8  88567202.929 7  21629002.484                    21629013.605
 114793688.368 7  89449776.26245  21844530.813                    21844540.391
 11  8 26  1 59 30.0000000  0  9G15G12G10G26G29G05G02G25G30
 127364479.162 7  99245172.057 6  24236660.773                    24236671.215
 113806284.914 7  88680292.808 7  21656617.102                    21656625.891
 125971589.990 6  98159844.84743  23971580.336                    23971589.293
 122603608.960 7  95535459.78244  23330707.484                    23330717.441
 117751044.972 7  91754196.951 7  22407298.930                    22407307.676
 107626332.539 7  83864768.945 8  20480580.633                    20480588.695
 114303157.046 7  89067532.81345  21751140.672                    21751147.313
 113669699.917 8  88573857.874 7  21630627.703                    21630638.734
 114809094.731 8  89461781.22245  21847462.695                    21847471.707
 11  8 26  2  0  0.0000000  0  9G15G12G10G26G29G05G02G25G30
 127269363.196 6  99171055.933 6  24218560.930                    24218571.266
 113873912.227 7  88732989.414 7  21669486.086                    21669494.480
 126078483.906 6  98243138.78743  23991921.305                    23991930.938
 122511175.565 7  95463433.83244  23313117.961                    23313128.082
 117670153.909 7  91691164.991 7  22391906.117                    22391914.773
 107661538.937 8  83892202.510 8  20487280.219                    20487287.988
 114341582.727 7  89097474.91246  21758453.156                    21758459.625
 113678804.454 8  88580952.315 7  21632360.250                    21632371.590
 114825069.070 8  89474228.76345  21850502.461                    21850511.520
 11  8 26  2  0 30.0000000  0  9G15G12G10G26G29G05G02G25G30
 127174169.016 6  99096878.846 6  24200445.883                    24200456.156
 113941928.624 7  88785989.195 7  21682429.281                    21682437.926
 126185483.735 6  98326515.24343  24012283.063                    24012292.313
 122418872.847 7  95391509.70444  23295553.438                    23295563.332
 117589365.189 7  91628212.785 7  22376532.508                    22376541.309
 107697227.792 8  83920012.023 8  20494071.516                    20494079.441
 114380089.149 7  89127479.90945  21765780.508                    21765787.109
 113688472.264 8  88588485.668 7  21634199.852                    21634211.355
 114841610.223 8  89487117.96645  21853650.219                    21853659.277
 11  8 26  2  1  0.0000000  0  9G15G12G10G26G29G05G02G25G30
 127078899.389 6  99022642.994 6  24182315.133                    24182326.895
 114010331.543 7  88839290.162 7  21695446.273                    21695454.676
 126292586.887 6  98409972.19743  24032663.664                    24032673.199
 122326704.854 7  95319690.56044  23278014.453                    23278023.711
 117508680.891 7  91565341.931 7  22361178.344                    22361187.570
 107733397.402 8  83948196.152 8  20500954.461                    20500962.082
 114418676.383 7  89157547.86945  21773123.094                    21773129.754
 113698702.614 8  88596457.363 7  21636146.711                    21636157.820
 114858716.894 8  89500447.81945  21856905.453                    21856914.453
 11  8 26  2  1 30.0000000  0  9G15G12G10G26G29G05G02G25G30
 126983556.844 6  98948350.293 6  24164172.578                    24164184.016
 114079117.863 7  88892889.875 7  21708535.820                    21708544.602
 126399790.759 6  98493507.64743  24053064.258                    24053073.977
 122234674.818 7  95247978.93144  23260501.406                    23260511.195
 117428102.788 7  91502553.825 7  22345845.188                    22345853.816
 107770045.326 8  83976752.991 8  20507928.336                    20507936.164
 114457344.048 7  89187678.52245  21780481.492                    21780488.441
 113709494.301 8  88604866.460 7  21638200.258                    21638211.250
 114876387.379 8  89514217.02145  21860267.758                    21860276.840
 11  8 26  2  2  0.0000000  0  9G15G12G10G26G29G05G02G25G30
 126888143.999 6  98874002.820 6  24146016.688                    24146027.254
 114148285.279 7  88946786.547 7  21721697.398                    21721706.645
 126507092.930 6  98577119.72343  24073482.555                    24073492.320
 122142786.493 7  95176377.70944  23243015.125                    23243025.504
 117347632.792 7  91439849.964 7  22330531.766                    22330540.836
 107807169.878 7  84005681.220 8  20514992.711                    20515000.832
 114496092.368 7  89217872.02445  21787855.500                    21787861.727
 113720846.601 8  88613712.396 7  21640360.875                    21640371.547
 114894620.551 8  89528424.68345  21863737.523                    21863746.414
 11  8 26  2  2 30.0000000  0  9G15G12G10G26G29G05G02G25G30
 126792663.685 6  98799602.738 6  24127847.477                    24127857.406
 114217830.670 7  89000977.740 7  21734931.617                    21734940.691
 126614490.589 6  98660806.16043  24093919.352                    24093929.668
 122051043.409 7  95104889.66844  23225557.563                    23225567.770
 117267273.420 7  91377232.294 7  22315240.539                    22315249.063
 107844769.136 7  84034979.353 8  20522148.289                    20522155.633
 114534921.352 7  89248128.36645  21795244.453                    21795250.516
 113732758.412 8  88622994.319 7  21642627.164                    21642638.254
 114913414.938 7  89543069.64745  21867314.055                    21867322.996
 11  8 26  2  3  0.0000000  0  9G15G12G10G26G29G05G02G25G30
 126697118.553 6  98725152.160 6  24109665.023                    24109675.664
 114287751.312 7  89055461.338 7  21748237.148                    21748245.945
 126721981.309 6  98744565.19743  24114375.367                    24114383.508
 121959449.289 6  95033517.70544  23208127.609                    23208137.480
 117187026.351 7  91314702.129 7  22299970.063                    22299978.801
 107882841.052 8  84064645.790 8  20529392.352                    20529400.305
 114573830.891 7  89278447.48445  21802648.641                    21802654.543
 113745228.777 8  88632711.470 7  21645000.250                    21645011.527
 114932768.940 7  89558150.67345  21870996.719                    21871006.031
 11  8 26  2  3 30.0000000  0  9G15G12G10G26G29G05G02G25G30
 126601511.261 7  98650653.141 6  24091471.367                    24091482.113
 114358045.041 7  89110235.666 7  21761614.148                    21761623.004
 126829562.875 6  98828394.90143  24134847.320                    24134856.848
 121868007.642 7  94962264.54044  23190726.828                    23190737.125
 117106893.568 7  91252261.011 7  22284720.680                    22284729.977
 107921383.794 8  84094679.105 8  20536726.891                    20536735.402
 114612821.312 7  89308829.63445  21810068.172                    21810074.566
 113758256.734 8  88642863.127 7  21647479.250                    21647490.523
 114952681.259 8  89573666.75345  21874786.398                    21874795.539
 11  8 26  2  4  0.0000000  0  9G15G12G10G26G29G05G02G25G30
 126505844.358 6  98576107.689 6  24073266.516                    24073277.246
 114428708.213 7  89165297.865 7  21775060.547                    21775069.066
 126937232.419 6  98912293.31743  24155336.484                    24155344.797
 121776721.880 7  94891132.85044  23173355.516                    23173365.289
 117026877.220 7  91189910.628 7  22269494.719                    22269503.535
 107960395.016 8  84125077.460 8  20544150.383                    20544158.715
 114651892.283 8  89339274.54245  21817503.063                    21817509.211
 113771841.111 8  88653448.347 7  21650064.461                    21650075.813
 114973150.171 8  89589616.54245  21878681.609                    21878690.477
 11  8 26  2  4 30.0000000  0  9G15G12G10G26G29G05G02G25G30
 126410120.742 7  98501518.031 6  24055051.398                    24055061.746
 114499738.266 7  89220645.949 7  21788577.242                    21788585.992
 127044987.173 6  98996258.02043  24175840.031                    24175850.250
 121685595.837 7  94820125.61544  23156014.617                    23156024.621
 116946979.311 7  91127652.529 7  22254290.383                    22254299.160
 107999872.534 8  84155839.166 8  20551662.977                    20551671.137
 114691043.643 7  89369782.09445  21824953.164                    21824959.391
 113785980.747 8  88664466.240 7  21652755.695                    21652766.586
 114994174.075 8  89605998.79945  21882682.227                    21882691.500
 11  8 26  2  5  0.0000000  0  9G15G12G10G26G29G05G02G25G30
 126314342.718 7  98426885.992 6  24036824.883                    24036835.512
 114571132.253 7  89276277.621 7  21802162.875                    21802172.168
 127152824.982 6  99080287.44743  24196362.234                    24196371.242
 121594632.740 7  94749245.34044  23138704.945                    23138714.516
 116867201.752 7  91065488.206 7  22239109.109                    22239117.758
 108039814.250 8  84186962.594 8  20559263.578                    20559271.277
 114730275.369 7  89400352.27445  21832418.602                    21832424.977
 113800674.522 8  88675915.936 7  21655551.438                    21655562.313
 115015751.423 8  89622812.30745  21886787.984                    21886797.383
 11  8 26  2  5 30.0000000  0  9G15G12G10G26G29G05G02G25G30
 126218513.262 6  98352213.868 6  24018588.492                    24018599.047
 114642887.783 7  89332191.013 7  21815817.430                    21815826.340
 127260743.527 6  99164379.79342  24216897.586                    24216907.809
 121503836.429 7  94678495.04344  23121427.258                    23121436.598
 116787547.149 7  91003419.691 7  22223951.008                    22223960.277
 108080218.678 7  84218446.575 8  20566952.289                    20566960.117
 114769587.883 7  89430985.40145  21839899.742                    21839906.418
 113815921.452 8  88687796.651 7  21658452.992                    21658463.930
 115037880.770 7  89640055.93645  21890999.336                    21891008.668
 11  8 26  2  6  0.0000000  0  9G15G12G10G26G29G05G02G25G30
 126122635.627 6  98277504.222 6  24000343.359                    24000353.918
 114715001.970 7  89388383.884 7  21829540.555                    21829549.438
 127368740.155 6  99248533.02543  24237449.438                    24237458.332
 121413210.742 7  94607877.71144  23104181.656                    23104190.906
 116708017.131 7  90941448.264 7  22208817.570                    22208826.746
 108121083.751 8  84250289.504 8  20574728.852                    20574736.598
 114808981.469 7  89461681.69145  21847396.148                    21847402.676
 113831720.693 8  88700107.748 7  21661459.227                    21661470.086
 115060560.745 7  89657728.64945  21895315.055                    21895324.484
 11  8 26  2  6 30.0000000  0  9G15G12G10G26G29G05G02G25G30
 126026712.213 6  98202758.871 6  23982090.117                    23982100.383
 114787472.170 7  89444854.168 7  21843331.023                    21843339.793
 127476812.349 6  99332745.05943  24258014.820                    24258024.191
 121322759.267 7  94537396.10844  23086969.563                    23086978.953
 116628613.895 7  90879575.626 7  22193707.188                    22193716.289
 108162407.173 8  84282489.579 8  20582592.500                    20582600.258
 114848455.797 7  89492440.90845  21854907.844                    21854914.230
 113848070.863 8  88712848.131 7  21664570.703                    21664581.652
 115083789.570 8  89675829.02645  21899735.195                    21899745.016
 11  8 26  2  7  0.0000000  0  9G15G12G10G26G29G05G02G25G30
 125930745.545 6  98127979.827 6  23963827.406                    23963838.125
 114860295.202 7  89501599.383 7  21857188.578                    21857197.793
 127584957.639 6  99417014.14343  24278594.297                    24278603.516
 121232485.707 7  94467053.12344  23069791.039                    23069799.961
 116549339.187 7  90817803.151 7  22178622.180                    22178630.719
 108204186.677 8  84315045.039 8  20590543.023                    20590550.672
 114888010.745 8  89523262.93645  21862434.992                    21862441.402
 113864970.725 8  88726016.841 7  21667786.578                    21667797.656
 115107565.457 8  89694355.68545  21904260.031                    21904269.215
 11  8 26  2  7 30.0000000  0  9G15G12G10G26G29G05G02G25G30
 125834738.619 6  98053169.388 6  23945558.781                    23945568.484
 114933468.547 7  89558617.564 7  21871113.289                    21871121.898
 127693173.722 7  99501338.28543  24299187.297                    24299196.496
 121142393.545 7  94396851.50344  23052646.945                    23052656.293
 116470195.401 7  90756132.690 7  22163561.570                    22163570.406
 108246420.541 8  84347954.556 8  20598579.641                    20598587.902
 114927646.713 7  89554148.09145  21869976.969                    21869984.402
 113882419.107 8  88739612.979 7  21671106.680                    21671117.895
 115131886.832 8  89713307.40645  21908887.773                    21908897.508
 11  8 26  2  8  0.0000000  0  9G15G12G10G26G29G05G02G25G30
 125738694.021 7  97978329.568 6  23927281.867                    23927291.293
 115006988.839 8  89615906.100 7  21885103.633                    21885112.578
 127801457.771 6  99585715.49443  24319792.547                    24319802.309
 121052486.366 7  94326794.05644  23035537.680                    23035547.262
 116391184.693 7  90694565.939 7  22148526.258                    22148534.754
 108289106.151 8  84381216.070 8  20606702.289                    20606710.684
 114967363.358 7  89585096.11545  21877534.992                    21877541.852
 113900414.539 8  88753635.400 7  21674531.352                    21674542.297
 115156751.797 7  89732682.69645  21913619.328                    21913629.078
 11  8 26  2  8 30.0000000  0  9G15G12G10G26G29G05G02G25G30
 125642614.606 6  97903462.611 6  23908998.688                    23909007.785
 115080853.474 8  89673462.957 7  21899159.805                    21899168.680
 127909807.611 7  99670143.87343  24340410.930                    24340420.789
 120962767.701 7  94256883.48044  23018464.867                    23018474.180
 116312308.984 7  90633104.373 7  22133516.406                    22133525.289
 108332241.567 8  84414828.094 8  20614910.766                    20614919.055
 115007161.141 7  89616107.34645  21885108.492                    21885115.492
 113918955.857 8  88768083.157 7  21678059.492                    21678070.707
 115182158.671 7  89752480.25045  21918454.328                    21918463.965
 11  8 26  2  9  0.0000000  0  9G15G12G10G26G29G05G02G25G30
 125546503.163 7  97828570.673 6  23890709.133                    23890718.168
 115155059.682 8  89731285.970 7  21913280.555                    21913289.199
 128018220.816 6  99754621.69943  24361041.609                    24361050.676
 120873241.602 7  94187122.94944  23001428.688                    23001437.504
 116233570.789 7  90571749.964 7  22118533.117                    22118541.613
 108375825.002 8  84448789.221 8  20623204.516                    20623212.492
 115047040.201 7  89647181.93045  21892697.742                    21892704.395
 113938042.030 8  88782955.510 7  21681691.797                    21681702.902
 115208106.048 7  89772698.97045  21923392.211                    21923401.289
 11  8 26  2  9 30.0000000  0  9G15G12G10G26G29G05G02G25G30
 125450362.727 6  97753656.159 6  23872413.625                    23872423.570
 115229604.608 8  89789372.933 7  21927466.352                    21927474.680
 128126695.198 6  99839147.15643  24381682.742                    24381692.910
 120783911.349 7  94117515.01544  22984429.625                    22984438.680
 116154971.969 7  90510504.151 7  22103576.281                    22103585.027
 108419854.354 8  84483097.818 8  20631583.164                    20631590.648
 115087000.474 7  89678319.79045  21900301.422                    21900307.840
 113957671.648 8  88798251.330 7  21685427.016                    21685437.969
 115234591.912 7  89793337.31345  21928431.797                    21928441.051
 11  8 26  2 10  0.0000000  0  9G15G12G10G26G29G05G02G25G30
 125354195.960 6  97678721.133 6  23854114.414                    23854123.582
 115304485.503 8  89847721.684 7  21941715.008                    21941723.785
 128235228.181 6  99923718.25842  24402336.711                    24402345.758
 120694781.013 7  94048062.87244  22967468.727                    22967478.148
 116076514.607 7  90449368.577 7  22088646.414                    22088654.902
 108464327.320 8  84517752.095 8  20640045.922                    20640053.664
 115127042.064 7  89709521.00545  21907921.352                    21907928.090
 113977843.302 8  88813969.499 7  21689265.445                    21689276.910
 115261614.488 7  89814393.87345  21933574.266                    21933583.500
 11  8 26  2 10 30.0000000  0  9G15G12G10G26G29G05G02G25G30
 125258005.640 6  97603767.773 6  23835809.563                    23835819.539
 115379699.283 7  89906329.820 7  21956028.172                    21956036.844
 128343817.147 5 100008333.10242  24422999.195                    24423009.570
 120605853.777 7  93978768.98844  22950546.563                    22950556.234
 115998200.843 7  90388344.902 7  22073743.906                    22073752.043
 108509241.459 8  84552750.144 8  20648592.539                    20648600.355
 115167164.934 7  89740785.57745  21915556.234                    21915563.152
 113998555.632 8  88830108.978 7  21693207.172                    21693218.191
 115289172.005 7  89835867.26745  21938818.211                    21938827.152
 11  8 26  2 11  0.0000000  0  9G15G12G10G26G29G05G02G25G30
 125161794.389 6  97528798.100 6  23817501.234                    23817510.785
 115455242.873 8  89965194.957 7  21970403.547                    21970412.242
 128452460.119 5 100092989.84242  24443674.492                    24443684.051
 120517133.375 7  93909636.27944  22933662.992                    22933672.758
 115920032.973 7  90327434.901 7  22058868.727                    22058877.492
 108554594.442 8  84588090.150 8  20657223.273                    20657230.969
 115207369.215 7  89772113.55945  21923207.227                    21923213.371
 114019807.122 8  88846668.586 7  21697251.063                    21697262.133
 115317262.446 7  89857755.93245  21944163.727                    21944172.840
 11  8 26  2 11 30.0000000  0  9G15G12G10G26G29G05G02G25G30
 125065565.394 6  97453814.600 6  23799189.156                    23799199.352
 115531113.402 8  90024314.851 7  21984841.750                    21984850.258
 128561154.333 5 100177686.68442  24464357.594                    24464367.758
 120428623.587 7  93840667.69644  22916820.164                    22916830.090
 115842013.198 7  90266640.310 7  22044022.375                    22044030.500
 108600384.824 8  84623770.978 8  20665936.875                    20665944.887
 115247655.182 7  89803505.20245  21930872.977                    21930879.539
 114041596.653 8  88863647.439 7  21701397.227                    21701408.680
 115345884.237 7  89880058.63045  21949610.266                    21949619.621
 11  8 26  2 12  0.0000000  0  9G15G12G10G26G29G05G02G25G30
 124969321.385 6  97378819.419 6  23780874.289                    23780884.105
 115607308.359 8  90083687.540 7  21999340.664                    21999349.574
 128669897.503 6 100262421.55242  24485051.906                    24485060.859
 120340328.097 7  93771866.07344  22900018.156                    22900027.715
 115764143.553 7  90205962.695 7  22029203.734                    22029212.449
 108646610.132 8  84659790.714 8  20674732.977                    20674741.246
 115288022.957 8  89834960.60045  21938555.305                    21938561.754
 114063922.729 8  88881044.379 7  21705645.758                    21705656.883
 115375035.399 7  89902773.82445  21955157.430                    21955166.914
 11  8 26  2 12 30.0000000  0  9G15G12G10G26G29G05G02G25G30
 124873065.082 7  97303814.636 6  23762557.148                    23762567.020
 115683824.629 8  90143310.599 7  22013901.531                    22013910.180
 128778687.418 6 100347192.99942  24505752.664                    24505762.027
 120252250.681 7  93703234.39744  22883257.898                    22883267.195
 115686426.151 8  90145403.714 7  22014415.117                    22014424.039
 108693268.083 8  84696147.571 8  20683611.672                    20683619.945
 115328472.823 8  89866479.95545  21946251.922                    21946258.387
 114086783.746 8  88898858.163 7  21709996.469                    21710007.496
 115404713.973 7  89925900.00245  21960805.297                    21960814.664
 11  8 26  2 13  0.0000000  0  9G15G12G10G26G29G05G02G25G30
 124776799.256 7  97228802.425 6  23744237.789                    23744248.410
 115760659.019 8  90203181.542 7  22028522.211                    22028531.293
 128887521.523 6 100431998.74343  24526463.758                    24526473.266
 120164394.755 7  93634775.29644  22866538.664                    22866548.434
 115608863.114 8  90084965.018 7  21999654.742                    21999663.617
 108740356.191 8  84732839.613 8  20692572.141                    20692580.168
 115369004.556 8  89898063.10545  21953965.094                    21953971.227
 114110178.228 8  88917087.647 7  21714447.938                    21714458.992
 115434917.970 7  89949435.57645  21966552.430                    21966562.316
 11  8 26  2 13 30.0000000  0  9G15G12G10G26G29G05G02G25G30
 124680526.885 7  97153785.120 6  23725917.648                    23725927.926
 115837808.559 8  90263298.064 7  22043203.758                    22043212.258
 128996397.576 6 100516837.23942  24547181.750                    24547191.922
 120076764.063 7  93566491.68544  22849863.172                    22849873.102
 115531456.781 7  90024648.427 7  21984924.977                    21984933.793
 108787872.443 8  84769865.273 8  20701614.313                    20701622.188
 115409618.040 7  89929709.96445  21961693.344                    21961700.316
 114134104.633 8  88935731.605 7  21719000.891                    21719011.770
 115465645.411 7  89973379.04245  21972400.039                    21972409.289
 11  8 26  2 14  0.0000000  0  9G15G12G10G26G29G05G02G25G30
 124584251.039 7  97078765.086 6  23707596.891                    23707607.082
 115915270.612 8  90323658.100 7  22057944.047                    22057952.730
 129105313.254 6 100601706.65743  24567908.570                    24567917.418
 119989362.415 7  93498386.55844  22833231.766                    22833240.672
 115454209.348 8  89964455.662 7  21970224.922                    21970233.992
 108835814.741 8  84807222.927 8  20710737.375                    20710745.125
 115450313.973 7  89961421.07445  21969437.891                    21969443.684
 114158561.679 8  88954789.054 7  21723655.328                    21723666.105
 115496894.540 7  89997729.01645  21978346.602                    21978355.902
 11  8 26  2 14 30.0000000  0  9G15G12G10G26G29G05G02G25G30
 124487975.942 7  97003745.652 6  23689276.773                    23689286.863
 115993043.714 8  90384260.511 7  22072743.656                    22072752.523
 129214267.998 6 100686606.42443  24588641.875                    24588651.293
 119902194.928 7  93430463.90944  22816643.234                    22816653.922
 115377124.554 7  89904389.628 7  21955556.438                    21955565.105
 108884182.377 8  84844912.011 8  20719941.219                    20719949.426
 115491093.867 7  89993197.60445  21977197.727                    21977204.551
 114183549.292 8  88974259.938 7  21728410.086                    21728420.996
 115528664.839 7  90022485.10445  21984392.203                    21984401.051
 11  8 26  2 15  0.0000000  0  8G15G12G26G29G05G02G25G30
 124391704.470 7  96928729.018 6  23670956.977                    23670966.281
 116071125.079 7  90445103.124 7  22087601.688                    22087611.207
 119815265.117 7  93362726.45544  22800101.820                    22800111.250
 115300204.629 8  89844452.056 7  21940919.195                    21940928.148
 108932972.897 8  84882930.608 7  20729226.227                    20729234.133
 115531957.757 7  90025039.59445  21984973.938                    21984980.340
 114209065.775 8  88994142.913 7  21733265.227                    21733276.359
 115560954.220 7  90047645.66545  21990536.828                    21990545.613
 11  8 26  2 15 30.0000000  0  9G15G12G21G26G29G05G02G25G30
 124295437.485 7  96853715.879 6  23652637.914                    23652646.863
 116149509.475 8  90506181.858 7  22102517.859                    22102526.891
 132361009.03616                  25187472.609
 119728574.636 7  93295175.46844  22783604.563                    22783613.758
 115223449.342 7  89784642.785 7  21926313.336                    21926321.480
 108982181.791 8  84921275.215 7  20738590.117                    20738597.770
 115572903.974 7  90056945.74145  21992766.266                    21992772.090
 114235107.442 8  89014435.132 7  21738221.141                    21738232.547
 115593758.464 7  90073207.41345  21996779.094                    21996788.539
 11  8 26  2 16  0.0000000  0  9G15G12G21G26G29G05G02G25G30
 124199177.727 7  96778708.359 6  23634319.727                    23634330.070
 116228194.025 7  90567494.481 7  22117491.320                    22117500.078
 132305510.154 5 103095277.23752  25176911.273                    25176920.891
 119642127.262 7  93227813.93144  22767155.016                    22767163.863
 115146861.165 8  89724963.722 7  21911738.602                    21911746.965
 109031806.999 8  84959944.222 8  20748033.469                    20748041.133
 115613932.583 7  90088916.09345  22000573.633                    22000579.953
 114261672.691 8  89035135.327 7  21743276.445                    21743287.430
 115627075.592 7  90099168.80945  22003119.453                    22003128.625
 11  8 26  2 16 30.0000000  0  9G15G12G21G26G29G05G02G25G30
 124102928.417 6  96703709.023 6  23616004.172                    23616014.309
 116307175.652 8  90629038.604 7  22132521.281                    22132529.676
 132250014.740 5 103052034.21342  25166350.805                    25166361.281
 119555926.843 7  93160644.83645  22750751.219                    22750760.512
 115070442.777 8  89665416.969 7  21897196.891                    21897205.203
 109081846.883 8  84998936.353 7  20757555.766                    20757563.875
 115655044.034 7  90120950.99945  22008396.648                    22008403.148
 114288760.299 8  89056242.553 7  21748431.039                    21748442.000
 115660903.981 7  90125528.58845  22009556.680                    22009566.230
 11  8 26  2 17  0.0000000  0  9G15G12G21G26G29G05G02G25G30
 124006692.619 6  96628720.172 6  23597690.656                    23597700.738
 116386452.112 7  90690812.473 7  22147606.828                    22147615.820
 132194522.079 6 103008793.32542  25155791.539                    25155802.219
 119469977.406 7  93093671.29744  22734395.398                    22734404.910
 114994196.377 8  89606004.233 7  21882687.617                    21882695.797
 109132298.813 8  85038249.558 7  20767156.313                    20767164.324
 115696238.590 7  90153050.66845  22016235.578                    22016242.145
 114316368.606 8  89077755.525 7  21753684.797                    21753695.988
 115695241.504 7  90152285.08545  22016090.813                    22016099.875
 11  8 26  2 17 30.0000000  0  9G15G12G21G26G29G05G02G25G30
 123910473.168 6  96553744.112 6  23579380.891                    23579391.230
 116466019.634 7  90752813.147 7  22162748.305                    22162756.543
 132139031.320 6 102965553.90143  25145231.219                    25145241.527
 119384282.290 7  93026895.94945  22718088.016                    22718097.465
 114918124.169 8  89546727.231 7  21868211.477                    21868220.133
 109183160.572 8  85077882.115 7  20776835.000                    20776842.723
 115737516.333 7  90185215.15745  22024090.492                    22024097.293
 114344495.885 8  89099672.887 7  21759037.016                    21759048.117
 115730086.014 7  90179436.64245  22022721.047                    22022730.996
 11  8 26  2 18  0.0000000  0  9G15G12G21G26G29G05G02G25G30
 123814273.115 6  96478783.124 6  23561074.172                    23561084.285
 116545875.479 7  90815038.483 7  22177944.500                    22177952.887
 132083542.100 6 102922315.65943  25134672.242                    25134682.844
 119298845.310 7  92960321.72644  22701829.883                    22701839.414
 114842228.535 8  89487587.817 7  21853768.805                    21853777.082
 109234429.867 8  85117832.227 7  20786591.242                    20786599.027
 115778877.265 7  90217444.47245  22031961.195                    22031967.691
 114373140.483 8  89121993.352 7  21764487.977                    21764499.289
 115765435.418 7  90206981.62945  22029448.469                    22029457.922
 11  8 26  2 18 30.0000000  0  9G15G12G21G26G29G05G02G25G30
 123718095.641 7  96403839.751 6  23542772.414                    23542782.516
 116626017.197 7  90877486.581 7  22193194.555                    22193203.309
 132028053.978 6 102879078.27943  25124113.141                    25124123.914
 119213670.129 7  92893951.51244  22685622.250                    22685631.094
 114766511.566 8  89428587.625 7  21839360.617                    21839369.020
 109286104.626 8  85158098.289 7  20796424.680                    20796432.453
 115820322.034 7  90249739.11345  22039847.570                    22039854.914
 114402300.868 8  89144715.724 7  21770036.875                    21770048.480
 115801287.769 8  90234918.52445  22036270.797                    22036280.129
 11  8 26  2 19  0.0000000  0  9G15G12G21G26G29G05G02G25G30
 123621942.691 7  96328915.468 6  23524475.148                    23524484.648
 116706440.827 7  90940154.349 7  22208498.914                    22208507.797
 131972565.794 6 102835840.86643  25113554.133                    25113564.602
 119128760.103 7  92827787.90645  22669463.945                    22669473.047
 114690975.040 8  89369728.039 7  21824986.344                    21824994.996
 109338181.358 8  85198677.573 7  20806334.836                    20806342.109
 115861850.324 7  90282098.83645  22047750.617                    22047757.086
 114431974.498 8  89167838.037 7  21775683.781                    21775695.020
 115837640.032 7  90263244.97245  22043188.570                    22043197.551
 11  8 26  2 19 30.0000000  0  9G15G12G21G26G29G05G02G25G30
 123525817.820 7  96254013.076 6  23506183.148                    23506193.137
 116787144.232 7  91003040.129 7  22223856.156                    22223864.887
 131917077.582 6 102792603.43043  25102995.383                    25103005.227
 119044119.320 7  92761834.10445  22653357.602                    22653366.520
 114615621.753 8  89311011.239 7  21810647.289                    21810655.277
 109390659.014 8  85239569.261 8  20816320.664                    20816328.605
 115903462.904 7  90314524.24345  22055669.180                    22055675.926
 114462160.359 8  89191359.495 7  21781427.336                    21781438.512
 115874490.832 7  90291959.89045  22050200.953                    22050209.668
 11  8 26  2 20  0.0000000  0  9G15G12G21G26G29G05G02G25G30
 123429724.362 7  96179135.149 6  23487897.227                    23487906.883
 116868124.404 7  91066141.563 7  22239266.438                    22239274.945
 131861588.691 6 102749365.49243  25092435.594                    25092445.996
 118959751.603 7  92696093.09145  22637302.203                    22637311.742
 114540454.261 8  89252439.200 7  21796343.195                    21796351.617
 109443535.554 8  85280771.775 7  20826382.594                    20826390.371
 115945160.066 7  90347015.56245  22063603.875                    22063610.391
 114492856.892 8  89215278.866 7  21787269.438                    21787280.230
 115911838.081 7  90321061.65045  22057307.391                    22057316.602
 11  8 26  2 20 30.0000000  0  9G15G12G21G26G29G05G02G25G30
 123333665.055 7  96104283.832 6  23469617.813                    23469627.543
 116949377.986 7  91129456.029 7  22254727.930                    22254737.117
 131806098.587 6 102706126.60643  25081875.555                    25081886.688
 118875660.527 7  92630567.64044  22621300.391                    22621309.559
 114465474.638 8  89194013.553 7  21782075.578                    21782083.871
 109496808.232 8  85322282.963 7  20836520.125                    20836528.102
 115986941.910 7  90379572.86745  22071554.938                    22071561.281
 114524062.002 8  89239594.534 7  21793207.281                    21793218.680
 115949679.341 7  90350548.33845  22064509.180                    22064518.027
 11  8 26  2 21  0.0000000  0  9G15G12G21G26G29G05G02G25G30
 123237643.104 7  96029461.613 6  23451345.477                    23451354.867
 117030902.284 7  91192981.455 7  22270241.727                    22270250.516
 131750606.480 6 102662886.14243  25071316.531                    25071326.289
 118791849.868 7  92565260.67544  22605352.133                    22605360.848
 114390685.391 8  89135736.259 7  21767843.094                    21767850.949
 109550474.780 8  85364101.058 7  20846732.406                    20846740.328
 116028808.426 7  90412196.13845  22079521.438                    22079528.379
 114555773.962 8  89264305.150 7  21799241.883                    21799253.109
 115988012.517 7  90380418.34845  22071803.258                    22071812.656
 11  8 26  2 21 30.0000000  0  9G15G12G21G26G29G05G02G25G30
 123141661.018 7  95954670.461 6  23433080.563                    23433090.191
 117112693.969 7  91256715.226 7  22285805.922                    22285814.848
 131695111.627 6 102619643.58343  25060755.672                    25060766.066
 118708323.121 7  92500174.93545  22589457.586                    22589466.000
 114316088.385 8  89077608.756 7  21753648.008                    21753655.930
 109604532.405 8  85406223.896 7  20857019.406                    20857027.438
 116070760.041 8  90444885.72545  22087505.102                    22087511.066
 114587990.767 8  89289409.169 7  21805373.078                    21805383.633
 116026835.169 7  90410669.77445  22079191.281                    22079200.438
 11  8 26  2 22  0.0000000  0  9G15G12G21G26G29G05G02G25G30
 123045721.868 7  95879912.774 6  23414823.477                    23414832.855
 117194750.400 7  91320655.296 7  22301420.961                    22301429.566
 131639613.694 5 102576398.62742  25050194.227                    25050205.281
 118625083.900 7  92435313.25744  22573617.078                    22573625.961
 114241685.969 8  89019632.889 7  21739489.164                    21739497.605
 109658978.772 8  85448649.642 7  20867379.875                    20867387.715
 116112796.859 7  90477641.71045  22095503.695                    22095510.586
 114620710.525 8  89314905.097 7  21811599.063                    21811610.156
 116066144.874 7  90441300.70945  22086671.273                    22086680.613
 11  8 26  2 22 30.0000000  0  9G15G12G21G26G29G05G02G25G30
 122949829.110 7  95805191.215 6  23396575.508                    23396584.879
 117277068.813 7  91384799.523 7  22317085.797                    22317093.676
 131584112.255 5 102533150.93142  25039632.117                    25039643.980
 118542136.076 7  92370678.65744  22557833.125                    22557841.898
 114167480.852 8  88961810.753 7  21725368.430                    21725377.039
 109713812.099 8  85491376.926 7  20877814.688                    20877822.383
 116154919.567 7  90510464.60445  22103519.531                    22103526.203
 114653931.755 8  89340791.775 7  21817920.961                    21817931.793
 116105939.826 7  90472309.75845  22094244.234                    22094253.301
 11  8 26  2 23  0.0000000  0  9G15G12G21G26G29G05G02G25G30
 122853984.977 7  95730507.580 6  23378337.250                    23378346.902
 117359645.116 7  91449144.703 7  22332799.430                    22332808.027
 131528606.355 5 102489899.75042  25029068.969                    25029081.223
 118459482.996 7  92306273.71745  22542104.445                    22542113.254
 114093474.799 8  88904143.740 7  21711285.492                    21711294.301
 109769029.291 8  85534403.315 7  20888321.977                    20888329.496
 116197127.848 7  90543354.17645  22111551.375                    22111558.176
 114687651.957 8  89367067.263 7  21824337.484                    21824348.898
 116146217.053 8  90503694.61845  22101908.727                    22101918.188
 11  8 26  2 23 30.0000000  0  9G15G12G21G26G29G05G02G25G30
 122758193.473 7  95655864.936 6  23360108.859                    23360118.152
 117442477.535 7  91513689.442 7  22348561.773                    22348570.523
 131473096.01316 102446645.05152  25018507.664                    25018518.309
 118377129.006 7  92242101.81144  22526433.063                    22526441.563
 114019670.760 8  88846634.133 7  21697241.008                    21697249.684
 109824628.974 8  85577727.752 7  20898902.625                    20898909.938
 116239422.785 7  90576311.27145  22119600.172                    22119606.250
 114721869.874 8  89393730.579 7  21830848.922                    21830860.156
 116186974.967 7  90535454.02145  22109664.648                    22109673.797
 11  8 26  2 24  0.0000000  0  9G15G12G21G26G29G05G02G25G30
 122662456.567 7  95581264.828 6  23341890.711                    23341900.070
 117525561.842 7  91578430.452 7  22364372.070                    22364381.109
 131417579.930 6                  25007943.047
 118295076.945 7  92178165.18844  22510818.516                    22510827.891
 113946070.194 8  88789283.080 7  21683235.211                    21683243.891
 109880607.808 8  85621347.620 7  20909554.906                    20909562.336
 116281803.525 7  90609335.23345  22127664.508                    22127670.828
 114756582.786 8  89420779.612 7  21837454.492                    21837465.957
 116228210.329 7  90567585.45845  22117511.352                    22117520.762
 11  8 26  2 24 30.0000000  0  9G15G12G21G26G29G05G02G25G30
 122566777.309 7  95506709.638 6  23323683.234                    23323692.523
 117608895.030 7  91643365.390 7  22380230.141                    22380238.469
 131362057.197 6 102360116.46352  24997376.516                    24997386.801
 118213330.567 7  92114466.75545  22495262.945                    22495272.070
 113872675.868 8  88732092.739 7  21669268.609                    21669277.449
 109936963.492 8  85665261.146 7  20920278.797                    20920286.730
 116324270.767 7  90642426.58045  22135746.258                    22135752.285
 114791788.835 8  89448212.908 7  21844154.219                    21844165.340
 116269920.993 7  90600087.25445  22125449.008                    22125457.855
 11  8 26  2 25  0.0000000  0  9G15G12G21G26G29G05G02G25G30
 122471159.014 7  95432201.946 6  23305488.102                    23305496.625
 117692474.641 7  91708492.347 7  22396134.859                    22396143.488
 131306527.731 6 102316846.89343  24986810.031                    24986819.629
 118131893.726 7  92051009.51744  22479766.117                    22479775.043
 113799489.907 8  88675064.744 7  21655341.984                    21655350.418
 109993693.832 8  85709466.613 7  20931074.266                    20931082.168
 116366824.782 7  90675585.55345  22143843.672                    22143850.078
 114827486.343 8  89476029.158 7  21850947.133                    21850957.781
 116312104.753 7  90632957.72745  22133475.859                    22133485.371
 11  8 26  2 25 30.0000000  0  9G15G12G21G26G29G05G02G25G30
 122375604.630 7  95357744.062 6  23287303.805                    23287312.883
 117776297.211 7  91773808.634 7  22412085.250                    22412094.457
 131250990.826 7 102273571.46543  24976241.359                    24976251.469
 118050770.068 7  91987796.32045  22464328.555                    22464337.555
 113726514.536 8  88618200.852 7  21641455.289                    21641463.754
 110050796.354 8  85753962.090 8  20941940.672                    20941948.652
 116409465.817 7  90708812.30945  22151958.086                    22151964.309
 114863673.002 8  89504226.566 7  21857833.016                    21857844.465
 116354759.048 8  90666194.84145  22141592.938                    22141602.023
 11  8 26  2 26  0.0000000  0  9G15G12G21G26G29G05G02G25G30
 122280117.029 7  95283338.220 6  23269133.211                    23269142.371
 117860360.098 7  91839312.178 7  22428082.547                    22428090.891
 131195446.249 7 102230290.13343  24965672.109                    24965681.270
 117969963.316 7  91924830.06945  22448952.133                    22448960.438
 113653752.284 8  88561503.026 7  21627608.594                    21627617.637
 110108268.896 8  85798745.894 7  20952877.109                    20952885.199
 116452194.283 7  90742107.22245  22160088.563                    22160095.895
 114900346.981 8  89532803.699 7  21864812.102                    21864823.242
 116397881.585 7  90699796.82545  22149798.820                    22149808.145
 11  8 26  2 26 30.0000000  0  9G15G12G21G26G29G05G02G25G30
 122184699.219 7  95208986.777 6  23250975.695                    23250985.027
 117944659.924 7  91905000.357 7  22444123.867                    22444132.633
 131139893.023 7 102187002.03944  24955100.508                    24955109.891
 117889476.873 7  91862113.40945  22433635.617                    22433644.352
 113581205.617 8  88504973.197 7  21613803.578                    21613812.156
 110166108.556 8  85843815.761 7  20963883.750                    20963891.371
 116495010.338 7  90775470.37145  22168236.797                    22168242.867
 114937506.058 8  89561758.839 7  21871883.320                    21871894.211
 116441469.690 7  90733761.57545  22158093.281                    22158102.559
 11  8 26  2 27  0.0000000  0  9G15G12G21G26G29G05G02G25G30
 122089354.738 7  95134692.467 6  23232832.367                    23232841.359
 118029194.334 7  91970871.313 7  22460210.656                    22460218.965
 131084331.065 7 102143707.13544  24944527.555                    24944537.160
 117809314.818 7  91799649.50745  22418381.195                    22418390.203
 113508876.920 8  88448613.217 7  21600040.305                    21600048.617
 110224313.829 8  85889170.527 7  20974960.297                    20974967.781
 116537914.615 7  90808902.26845  22176401.531                    22176407.680
 114975148.491 8  89591090.619 7  21879046.070                    21879057.633
 116485521.284 7  90768087.50345  22166475.539                    22166485.250
 11  8 26  2 27 30.0000000  0  9G15G12G21G26G29G05G02G25G30
 121994086.381 7  95060457.469 6  23214703.234                    23214712.309
 118113959.379 7  92036921.988 7  22476340.234                    22476349.574
 131028759.360 7 102100404.63644  24933952.250                    24933962.078
 117729480.463 7  91737440.97045  22403189.422                    22403197.977
 113436768.315 8  88392424.732 7  21586318.430                    21586326.703
 110282881.699 8  85934807.832 7  20986104.867                    20986112.789
 116580907.142 7  90842402.93945  22184582.578                    22184588.641
 115013272.034 8  89620797.311 7  21886300.781                    21886311.930
 116530033.747 7  90802772.54645  22174946.922                    22174955.340
 11  8 26  2 28  0.0000000  0  9G15G12G21G26G29G05G02G25G30
 121898897.006 7  94986283.966 6  23196589.852                    23196598.039
 118198952.512 7  92103150.391 7  22492514.078                    22492523.301
 130973177.406 6 102057094.13943  24923375.328                    24923384.598
 117649977.562 7  91675490.70645  22388060.430                    22388069.586
 113364882.153 8  88336409.576 7  21572639.172                    21572646.828
 110341809.814 8  85980725.855 7  20997318.781                    20997326.672
 116623988.335 7  90875972.68345  22192780.633                    22192786.914
 115051874.472 8  89650877.149 7  21893646.969                    21893657.906
 116575004.499 7  90837814.71945  22183504.141                    22183512.727
 11  8 26  2 28 30.0000000  0  9G15G12G21G26G29G05G02G25G30
 121803790.051 7  94912174.711 6  23178491.695                    23178500.023
 118284170.796 7  92169554.231 7  22508730.531                    22508739.656
 130917584.916 6 102013775.48443  24912795.930                    24912805.578
 117570809.935 7  91613801.70045  22372994.930                    22373004.133
 113293221.058 8  88280569.793 7  21559002.250                    21559010.293
 110401096.041 8  86026922.928 7  21008600.289                    21008608.125
 116667158.505 7  90909611.78645  22200995.602                    22201001.809
 115090954.034 8  89681328.763 7  21901083.016                    21901094.461
 116620431.238 7  90873212.20645  22192148.766                    22192156.930
 11  8 26  2 29  0.0000000  0  9G15G12G21G26G29G05G02G25G30
 121708768.376 7  94838131.906 6  23160409.078                    23160417.793
 118369611.153 7  92236131.121 7  22524989.500                    22524998.090
 130861981.290 6 101970448.08143  24902214.633                    24902225.086
 117491981.086 7  91552376.66845  22357994.766                    22358003.305
 113221787.406 8  88224907.246 7  21545408.859                    21545417.246
 110460737.644 8  86073396.909 7  21019949.977                    21019957.527
 116710417.883 7  90943320.39545  22209227.352                    22209233.547
 115130508.419 8  89712150.363 7  21908610.422                    21908621.594
 116666311.426 7  90908963.03445  22200879.328                    22200887.840
 11  8 26  2 29 30.0000000  0  9G15G12G21G26G29G05G02G25G30
 121613835.027 7  94764157.941 6  23142343.969                    23142353.078
 118455270.103 7  92302878.345 7  22541290.148                    22541298.602
 130806365.692 5 101927111.40243  24891630.172                    24891641.230
 117413494.566 7  91491218.38645  22343059.070                    22343068.246
 113150583.182 8  88169423.476 7  21531859.117                    21531867.293
 110520732.174 8  86120145.899 7  21031366.438                    21031374.379
 116753766.818 7  90977098.77845  22217476.453                    22217482.695
 115170535.296 8  89743340.143 7  21916227.164                    21916237.938
 116712642.275 7  90945065.02045  22209695.898                    22209704.660
 11  8 26  2 30  0.0000000  0  9G15G12G21G26G29G05G02G25G30
 121518992.704 7  94690254.917 7  23124296.352                    23124305.531
 118541144.650 7  92369793.583 7  22557631.750                    22557640.500
 130750737.785 6 101883765.16543  24881044.664                    24881055.496
 117335353.885 7  91430329.60045  22328189.453                    22328198.211
 113079610.835 8  88114120.387 7  21518353.086                    21518361.863
 110581077.269 8  86167168.060 7  21042849.555                    21042857.695
 116797205.826 7  91010947.36745  22225742.680                    22225749.039
 115211032.465 8  89774896.392 7  21923933.586                    21923944.430
 116759421.200 7  90981516.15045  22218597.508                    22218606.258
 11  8 26  2 30 30.0000000  0  9G15G12G21G26G29G05G02G25G30
 121424244.961 7  94616425.595 7  23106265.445                    23106274.918
 118627232.214 7  92436874.809 7  22574013.258                    22574022.113
 130695097.147 6 101840408.90543  24870455.898                    24870467.121
 117257563.082 7  91369713.44645  22313385.859                    22313395.016
 113008873.020 8  88059000.055 7  21504892.477                    21504900.594
 110641771.048 8  86214461.918 7  21054399.609                    21054407.031
 116840735.353 7  91044866.47145  22234026.602                    22234032.605
 115251998.115 8  89806817.696 7  21931728.836                    21931739.660
 116806646.015 7  91018314.73045  22227583.906                    22227593.488
 11  8 26  2 31  0.0000000  0  9G15G12G21G26G29G05G02G25G30
 121329594.513 7  94542672.096 6  23088254.609                    23088263.629
 118713529.133 7  92504119.158 7  22590434.766                    22590443.828
 130639442.852 6 101797042.00043  24859866.586                    24859876.137
 117180125.130 7  91309372.22245  22298650.367                    22298659.047
 112938371.866 8  88004064.132 7  21491476.508                    21491484.574
 110702810.277 8  86262024.968 7  21066014.766                    21066022.129
 116884355.344 7  91078856.10045  22242327.125                    22242333.082
 115293429.655 8  89839102.030 7  21939612.984                    21939623.945
 116854313.740 7  91055458.41645  22236654.594                    22236663.895
 11  8 26  2 31 30.0000000  0  9G15G12G21G26G29G05G02G25G30
 121235044.751 7  94468997.024 6  23070262.555                    23070271.363
 118800032.664 7  92571524.497 7  22606895.828                    22606905.254
 130583774.159 6 101753663.87643  24849273.172                    24849282.910
 117103044.163 7  91249309.17345  22283982.398                    22283990.934
 112868109.957 8  87949314.633 7  21478105.938                    21478114.508
 110764192.763 8  86309855.484 7  21077695.180                    21077703.172
 116928066.283 7  91112916.56845  22250645.086                    22250651.570
 115335325.060 8  89871747.803 7  21947585.406                    21947596.559
 116902422.050 7  91092945.42245  22245809.742                    22245818.477
 11  8 26  2 32  0.0000000  0  9G15G12G21G26G29G05G02G25G30
 121140597.802 7  94395402.052 6  23052289.773                    23052298.086
 118886739.381 7  92639088.160 7  22623395.781                    22623404.738
 130528090.737 6 101710274.27743  24838676.695                    24838687.117
 117026323.036 7  91189526.52345  22269382.500                    22269391.215
 112798088.880 8  87894752.797 7  21464781.531                    21464789.617
 110825915.598 8  86357951.217 7  21089441.031                    21089448.355
 116971867.866 7  91147047.68045  22258980.070                    22258986.531
 115377681.411 8  89904752.746 7  21955645.555                    21955656.973
 116950967.658 7  91130773.17445  22255047.688                    22255056.109
 11  8 26  2 32 30.0000000  0  9G15G12G21G26G29G05G02G25G30
 121046257.099 7  94321889.874 6  23034337.055                    23034345.031
 118973645.847 7  92706807.469 7  22639933.523                    22639942.426
 130472391.696 6 101666872.51743  24828077.805                    24828087.332
 116949965.287 7  91130027.02545  22254851.773                    22254861.000
 112728310.895 8  87840380.379 7  21451502.953                    21451511.133
 110887975.996 8  86406309.983 7  21101250.500                    21101258.098
 117015760.577 7  91181249.79645  22267332.352                    22267339.258
 115420496.354 8  89938115.026 7  21963792.891                    21963804.395
 116999947.772 7  91168939.51345  22264368.172                    22264376.969
 11  8 26  2 33  0.0000000  0  9G15G12G21G26G29G05G02G25G30
 120952026.403 7  94248463.401 6  23016405.438                    23016413.867
 119060749.726 7  92774680.604 7  22656508.781                    22656517.633
 130416676.937 6 101623458.46143  24817476.063                    24817485.102
 116873975.222 7  91070814.01245  22240391.758                    22240400.340
 112658779.610 8  87786200.195 7  21438271.430                    21438280.035
 110950372.777 8  86454930.863 7  21113124.281                    21113131.871
 117059745.464 7  91215523.76145  22275702.023                    22275708.465
 115463768.474 8  89971833.548 7  21972027.266                    21972038.523
 117049360.667 7  91207443.07745  22273770.672                    22273780.262
 11  8 26  2 33 30.0000000  0  9G15G12G21G26G29G05G02G25G30
 120857908.401 7  94175124.758 6  22998495.602                    22998503.969
 119148047.888 7  92842705.150 7  22673120.750                    22673129.867
 130360945.798 6 101580031.65643  24806870.445                    24806879.238
 116798356.362 7  91011890.26945  22226001.305                    22226010.051
 112589497.043 8  87732213.818 7  21425087.547                    21425096.117
 111013102.842 8  86503811.437 7  21125061.500                    21125068.918
 117103822.535 7  91249869.53545  22284089.695                    22284096.238
 115507495.278 8  90005906.386 7  21980348.531                    21980359.563
 117099203.435 7  91246281.61745  22283255.344                    22283264.461
 11  8 26  2 34  0.0000000  0  9G15G12G21G26G29G05G02G25G30
 120763905.589 7  94101875.882 6  22980607.375                    22980616.246
 119235536.626 7  92910878.196 7  22689769.578                    22689778.285
 130305197.387 7 101536591.41243  24796262.203                    24796271.020
 116723111.441 7  90953257.89945  22211683.094                    22211691.336
 112520464.509 8  87678422.283 7  21411950.938                    21411959.047
 111076163.231 8  86552949.414 7  21137061.234                    21137069.234
 117147991.866 7  91284287.21945  22292495.211                    22292501.449
 115551673.626 8  90040331.073 7  21988755.102                    21988766.086
 117149472.606 7  91285452.41445  22292821.289                    22292830.887
 11  8 26  2 34 30.0000000  0  9G15G12G21G26G29G05G02G25G30
 120670021.622 7  94028719.607 7  22962741.734                    22962750.645
 119323213.355 7  92979197.726 7  22706454.414                    22706462.328
 130249431.521 6 101493137.50243  24785650.258                    24785658.371
 116648244.579 7  90894920.10545  22197436.492                    22197445.059
 112451685.086 8  87624827.976 7  21398862.719                    21398870.930
 111139552.005 8  86602343.270 7  21149123.523                    21149131.496
 117192254.094 7  91318777.26245  22300918.094                    22300924.000
 115596301.731 8  90075106.231 7  21997247.523                    21997258.316
 117200166.061 7  91324953.81245  22302467.945                    22302477.309
 11  8 26  2 35  0.0000000  0  9G15G12G21G26G29G05G02G25G30
 120576259.871 7  93955658.582 6  22944898.711                    22944908.113
 119411075.130 7  93047661.446 7  22723173.813                    22723182.398
 130193647.821 6 101449669.77443  24775034.633                    24775043.129
 116573759.724 7  90836880.00145  22183262.242                    22183271.688
 112383161.408 8  87571432.955 7  21385823.078                    21385831.227
 111203267.123 8  86651991.425 7  21161248.102                    21161256.215
 117236609.794 7  91353340.15945  22309358.531                    22309365.340
 115641377.715 8  90110230.385 7  22005825.414                    22005836.496
 117251281.487 7  91364784.01945  22312195.375                    22312204.137
 11  8 26  2 35 30.0000000  0 10G15G12G21G26G29G05G02G25G30G18
 120482623.142 7  93882694.979 7  22927080.742                    22927089.855
 119499118.463 7  93116266.634 7  22739928.109                    22739936.441
 130137845.667 7 101406187.67543  24764414.984                    24764424.805
 116499660.019 7  90779140.00145  22169161.672                    22169170.566
 112314895.791 8  87518239.014 7  21372832.156                    21372840.652
 111267305.623 8  86701891.571 7  21173434.477                    21173442.363
 117281059.112 7  91387976.00345  22317816.695                    22317822.762
 115686898.752 8  90145701.322 7  22014487.641                    22014498.605
 117302815.771 7  91404940.60745  22322001.781                    22322010.973
 129670855.56416 101042306.11852  24675554.617                    24675563.676
 11  8 26  2 36  0.0000000  0 10G15G12G21G26G29G05G02G25G30G18
 120389113.976 7  93809830.751 6  22909286.711                    22909295.801
 119587340.031 7  93185010.705 7  22756716.023                    22756725.117
 130082024.059 6 101362690.42843  24753792.258                    24753802.207
 116425948.388 7  90721702.39145  22155134.984                    22155143.223
 112246889.911 8  87465247.470 7  21359891.414                    21359899.652
 111331664.425 8  86752041.297 7  21185681.680                    21185689.391
 117325601.940 7  91422684.71845  22326293.141                    22326299.402
 115732861.877 8  90181516.740 7  22023234.297                    22023244.793
 117354765.620 7  91445421.00945  22331887.406                    22331896.926
 129581817.820 6 100972926.33742  24658610.883                    24658621.418
 11  8 26  2 36 30.0000000  0 10G15G12G21G26G29G05G02G25G30G18
 120295735.797 7  93737068.591 7  22891517.234                    22891526.012
 119675736.983 7  93253891.433 7  22773537.336                    22773546.105
 130026182.688 7 101319177.75143  24743166.445                    24743176.078
 116352628.750 7  90664570.23345  22141182.805                    22141191.246
 112179146.769 8  87412460.658 7  21347000.367                    21347008.324
 111396341.829 8  86802439.288 7  21197989.445                    21197996.961
 117370238.883 7  91457466.75845  22334787.445                    22334793.313
 115779265.067 8  90217675.073 7  22032064.453                    22032074.961
 117407128.753 7  91486223.46445  22341851.750                    22341861.363
 129492947.151 6 100903676.76142  24641699.008                    24641709.387
 11  8 26  2 37  0.0000000  0 10G15G12G21G26G29G05G02G25G30G18
 120202492.117 7  93664411.234 6  22873773.188                    22873782.520
 119764306.581 7  93322906.699 7  22790391.289                    22790399.938
 129970321.339 6 101275649.50543  24732536.703                    24732545.465
 116279705.201 8  90607746.72945  22127305.383                    22127314.160
 112111668.947 8  87359880.582 7  21334159.516                    21334167.934
 111461335.657 8  86853083.839 7  21210357.070                    21210364.762
 117414970.797 7  91492322.80145  22343299.695                    22343305.688
 115826106.431 8  90254174.835 7  22040977.898                    22040989.137
 117459902.709 7  91527346.03045  22351894.359                    22351903.488
 129404244.927 6 100834558.44842  24624818.141                    24624829.941
 11  8 26  2 37 30.0000000  0 10G15G12G21G26G29G05G02G25G30G18
 120109385.930 7  93591861.014 7  22856055.500                    22856064.926
 119853045.920 7  93392054.211 7  22807277.992                    22807286.879
 129914439.601 6 101232105.39043  24721902.500                    24721911.535
 116207181.132 7  90551234.50345  22113504.680                    22113513.668
 112044458.659 8  87307508.982 7  21321369.859                    21321377.906
 111526643.396 8  86903972.993 7  21222784.516                    21222792.160
 117459798.071 7  91527253.16045  22351829.953                    22351836.480
 115873383.331 8  90291013.988 7  22049974.578                    22049985.500
 117513084.590 7  91568786.46945  22362014.531                    22362023.906
 129315712.155 6 100765572.16942  24607971.258                    24607982.387
 11  8 26  2 38  0.0000000  0 10G15G12G21G26G29G05G02G25G30G18
 120016420.331 7  93519420.345 6  22838364.992                    22838374.043
 119941951.931 7  93461331.602 7  22824195.969                    22824205.078
 129858536.644 6 101188544.73743  24711264.281                    24711273.672
 116135059.826 7  90495036.11745  22099780.430                    22099788.613
 111977518.415 8  87255347.798 7  21308631.555                    21308639.813
 111592262.135 8  86955104.496 7  21235271.539                    21235279.398
 117504720.952 7  91562258.00545  22360378.641                    22360384.602
 115921093.263 8  90328190.558 7  22059053.117                    22059064.309
 117566671.602 7  91610542.59145  22372211.969                    22372221.008
 129227350.290 6 100696719.03743  24591156.461                    24591167.398
 11  8 26  2 38 30.0000000  0 10G15G12G21G26G29G05G02G25G30G18
 119923598.434 7  93447091.639 7  22820701.508                    22820710.328
 120031021.393 7  93530736.367 6  22841145.195                    22841154.309
 129802611.952 6 101144967.12743  24700622.586                    24700631.352
 116063344.924 7  90439154.41445  22086133.602                    22086141.746
 111910850.526 8  87203398.842 7  21295944.977                    21295953.082
 111658189.535 8  87006476.501 7  21247816.750                    21247824.898
 117549739.847 7  91597337.67945  22368945.133                    22368951.945
 115969233.728 8  90365702.619 7  22068214.250                    22068225.125
 117620660.933 7  91652612.20245  22382485.508                    22382494.734
 129139160.568 6 100627999.97943  24574375.445                    24574385.734
 11  8 26  2 39  0.0000000  0 10G15G12G21G26G29G05G02G25G30G18
 119830923.022 7  93374877.075 6  22803066.023                    22803074.188
 120120250.755 7  93600265.729 6  22858125.445                    22858134.449
 129746665.003 6 101101372.20143  24689975.898                    24689985.621
 115992039.479 8  90383591.77745  22072564.625                    22072573.078
 111844457.178 8  87151663.801 7  21283310.789                    21283319.148
 111724422.813 8  87058086.860 7  21260420.680                    21260428.609
 117594855.152 7  91632492.47845  22377530.297                    22377536.848
 116017802.065 8  90403548.086 7  22077456.672                    22077467.578
 117675049.531 7  91694992.93245  22392835.766                    22392844.164
 129051143.856 6 100559415.74143  24557625.500                    24557636.113
 11  8 26  2 39 30.0000000  0 10G15G12G21G26G29G05G02G25G30G18
 119738397.884 7  93302779.612 6  22785459.406                    22785467.465
 120209637.455 7  93669917.707 6  22875135.367                    22875143.930
 129690695.545 6 101057759.74343  24679324.727                    24679334.871
 115921147.430 7  90328351.26145  22059074.203                    22059082.273
 111778341.066 8  87100144.785 7  21270729.055                    21270737.449
 111790960.178 8  87109934.162 7  21273082.563                    21273090.191
 117640067.124 7  91667722.60145  22386133.922                    22386140.711
 116066796.059 8  90441725.225 7  22086780.000                    22086790.883
 117729834.937 7  91737682.85545  22403260.461                    22403269.918
 128963302.178 6 100490967.90343  24540910.227                    24540920.723
 11  8 26  2 40  0.0000000  0 10G15G12G21G26G29G05G02G25G30G18
 119646025.644 7  93230801.291 6  22767880.883                    22767890.137
 120299178.429 7  93739689.901 6  22892174.344                    22892182.852
 129634703.010 6 101014129.26043  24668670.188                    24668679.090
 115850672.372 8  90273435.66345  22045663.305                    22045672.152
 111712504.855 8  87048843.874 7  21258201.164                    21258208.988
 111857798.880 8  87162016.269 7  21285801.563                    21285809.027
 117685376.521 7  91703028.61445  22394756.227                    22394762.750
 116116213.231 8  90480232.126 7  22096183.531                    22096194.160
 117785014.247 7  91780679.73245  22413760.648                    22413770.359
 128875636.402 6 100422657.11343  24524227.695                    24524237.531
 11  8 26  2 40 30.0000000  0 10G15G12G21G26G29G05G02G25G30G18
 119553809.302 7  93158944.449 7  22750332.992                    22750341.832
 120388870.885 7  93809580.132 7  22909242.266                    22909250.684
 129578686.612 6 100970480.18443  24658011.070                    24658019.500
 115780617.199 8  90218847.26945  22032331.750                    22032340.965
 111646950.320 8  86997762.449 7  21245726.578                    21245734.250
 111924936.304 8  87214331.152 7  21298577.352                    21298584.922
 117730783.274 7  91738410.52445  22403396.945                    22403402.492
 116166050.725 8  90519066.538 7  22105666.969                    22105678.477
 117840584.347 7  91823981.09245  22424335.719                    22424344.813
 128788147.936 6 100354484.49543  24507578.383                    24507588.152
 11  8 26  2 41  0.0000000  0 10G15G12G21G26G29G05G02G25G30G18
 119461752.366 7  93087211.836 7  22732814.984                    22732823.945
 120478711.020 7  93879585.429 7  22926337.969                    22926347.082
 129522646.208 6 100926812.41343  24647346.008                    24647355.176
 115710985.864 8  90164589.13645  22019081.578                    22019090.348
 111581680.346 8  86946902.761 7  21233305.859                    21233314.234
 111992370.186 8  87266877.038 7  21311409.586                    21311417.578
 117776288.291 7  91773868.98945  22412055.414                    22412062.535
 116216306.382 8  90558226.798 7  22115230.234                    22115241.684
 117896542.748 7  91867585.03245  22434984.367                    22434993.258
 128700837.673 6 100286450.73043  24490963.445                    24490973.855
 11  8 26  2 41 30.0000000  0 10G15G12G21G26G29G05G02G25G30G18
 119369857.584 7  93015605.569 7  22715328.219                    22715337.211
 120568695.889 7  93949703.484 7  22943461.773                    22943470.824
 129466581.128 6 100883125.43543  24636676.758                    24636686.559
 115641781.519 7  90110663.70745  22005913.070                    22005921.285
 111516696.991 8  86896266.415 7  21220939.648                    21220948.047
 112060098.257 8  87319652.168 7  21324298.102                    21324305.344
 117821891.601 7  91809404.05345  22420733.656                    22420740.555
 116266977.414 8  90597710.731 7  22124872.711                    22124884.348
 117952886.333 7  91911489.13245  22445705.992                    22445715.570
 128613707.139 6 100218557.00643  24474382.859                    24474393.465
 11  8 26  2 42  0.0000000  0 10G15G12G21G26G29G05G02G25G30G18
 119278128.743 7  92944128.612 7  22697872.859                    22697881.039
 120658822.956 7  94019932.351 7  22960611.844                    22960621.371
 129410491.300 6 100839419.21443  24626003.484                    24626012.375
 115573007.963 8  90057073.96245  21992825.484                    21992834.141
 111452003.571 8  86845855.985 7  21208629.203                    21208637.488
 112128117.849 8  87372654.459 7  21337241.641                    21337249.508
 117867593.982 7  91845016.30645  22429430.555                    22429436.484
 116318061.596 8  90637516.610 7  22134593.922                    22134604.785
 118009612.556 7  91955691.37945  22456500.523                    22456510.180
 128526757.790 6 100150804.42442  24457836.781                    24457847.605
 11  8 26  2 42 30.0000000  0 10G15G12G21G26G29G05G02G25G30G18
 119186568.304 7  92872782.866 6  22680449.375                    22680457.813
 120749088.767 7  94090269.318 6  22977788.852                    22977798.242
 129354375.756 6 100795692.93343  24615324.906                    24615334.234
 115504668.109 8  90003822.18245  21979820.484                    21979828.668
 111387601.019 8  86795672.210 7  21196374.148                    21196381.988
 112196426.068 8  87425881.644 7  21350240.242                    21350248.078
 117913395.468 7  91880705.80245  22438146.430                    22438153.047
 116369555.880 8  90677642.047 7  22144393.336                    22144404.090
 118066718.076 7  92000189.19945  22467367.484                    22467376.734
 128439990.220 6 100083193.54342  24441326.227                    24441335.832
 11  8 26  2 43  0.0000000  0 10G15G12G21G26G29G05G02G25G30G18
 119095179.395 7  92801570.783 7  22663058.570                    22663067.254
 120839490.260 7  94160712.002 7  22994992.047                    22995001.375
 129298233.815 7 100751946.02243  24604642.328                    24604651.066
 115436765.375 7  89950910.99945  21966899.242                    21966907.605
 111323492.158 8  86745717.280 7  21184174.375                    21184182.266
 112265020.518 8  87479331.865 7  21363293.367                    21363301.246
 117959296.476 7  91916472.81045  22446881.641                    22446887.375
 116421457.704 8  90718085.041 7  22154269.477                    22154280.633
 118124199.992 7  92044980.29845  22478306.461                    22478315.180
 128353405.969 6 100015725.48042  24424849.422                    24424859.152
 11  8 26  2 43 30.0000000  0 10G15G12G21G26G29G05G02G25G30G18
 119003964.852 7  92730494.571 7  22645700.773                    22645709.469
 120930023.927 7  94231257.701 6  23012220.109                    23012228.645
 129242064.797 7 100708178.02643  24593953.563                    24593962.230
 115369302.776 7  89898342.77945  21954061.688                    21954070.199
 111259679.246 8  86695992.956 7  21172031.313                    21172038.918
 112333898.496 8  87533003.019 7  21376400.172                    21376407.707
 118005297.461 7  91952317.75845  22455634.664                    22455640.609
 116473764.025 8  90758843.233 7  22164223.125                    22164234.199
 118182055.041 7  92090062.17445  22489315.430                    22489324.500
 128267005.763 6  99948400.86842  24408407.617                    24408417.445
 11  8 26  2 44  0.0000000  0 10G15G12G21G26G29G05G02G25G30G18
 118912928.207 7  92659556.973 7  22628376.906                    22628385.555
 121020687.175 7  94301904.390 6  23029472.977                    23029481.832
 129185868.678 7 100664388.90843  24583259.016                    24583268.215
 115302284.115 7  89846120.49145  21941308.063                    21941316.809
 111196165.142 7  86646501.467 7  21159944.445                    21159952.430
 112403058.085 8  87586893.611 7  21389560.883                    21389568.730
 118051399.081 7  91988241.13445  22464407.797                    22464413.852
 116526472.738 8  90799914.972 7  22174252.898                    22174264.410
 118240280.882 7  92135432.97145  22500394.930                    22500404.762
 128180791.151 6  99881220.82742  24392000.984                    24392011.758
 11  8 26  2 44 30.0000000  0 10G15G12G21G26G29G05G02G25G30G18
 118822072.466 7  92588760.349 6  22611087.438                    22611095.949
 121111476.995 7  94372649.694 6  23046749.672                    23046758.688
 129129645.183 7 100620578.44843  24572560.063                    24572569.309
 115235712.943 8  89794246.90045  21928640.156                    21928648.754
 111132952.192 7  86597244.659 7  21147915.891                    21147923.746
 112472496.589 8  87641001.524 7  21402774.570                    21402782.828
 118097601.638 7  92024243.13445  22473199.367                    22473205.840
 116579581.312 8  90841298.285 7  22184359.586                    22184370.402
 118298874.484 7  92181090.32845  22511545.398                    22511554.477
 128094763.250 6  99814186.27542  24375630.156                    24375641.137
 11  8 26  2 45  0.0000000  0 10G15G12G21G26G29G05G02G25G30G18
 118731401.217 7  92518107.468 6  22593833.172                    22593841.910
 121202390.460 7  94443491.343 6  23064049.813                    23064058.715
 129073393.739 6 100576746.26643  24561855.453                    24561865.113
 115169592.741 7  89742724.69145  21916057.758                    21916066.871
 111070042.944 7  86548224.494 7  21135944.594                    21135952.488
 112542212.062 8  87695325.278 7  21416040.758                    21416048.793
 118143905.634 7  92060324.20345  22482011.156                    22482016.512
 116633087.168 8  90882991.173 7  22194541.148                    22194551.992
 118357833.137 7  92227032.14145  22522765.125                    22522773.633
 128008923.738 6  99747298.53643  24359296.000                    24359306.316
 11  8 26  2 45 30.0000000  0 10G15G12G21G26G29G05G02G25G30G18
 118640917.377 7  92447600.624 6  22576614.898                    22576623.156
 121293424.153 7  94514426.676 6  23081372.750                    23081381.973
 129017113.902 6 100532891.95643  24551145.805                    24551155.309
 115103926.596 8  89691556.31245  21903561.438                    21903570.711
 111007439.748 7  86499442.826 7  21124031.500                    21124039.375
 112612201.666 8  87749862.636 7  21429359.398                    21429367.066
 118190311.533 7  92096484.64445  22490841.547                    22490848.398
 116686987.518 8  90924991.459 7  22204798.281                    22204808.953
 118417153.627 7  92273255.91045  22534053.242                    22534062.430
 127923273.344 6  99680558.13543  24342996.359                    24343006.777
 11  8 26  2 46  0.0000000  0 10G15G12G21G26G29G05G02G25G30G18
 118550623.781 7  92377242.032 7  22559432.820                    22559441.027
 121384575.119 7  94585453.380 6  23098718.539                    23098727.617
 128960804.999 6 100489014.97443  24540431.188                    24540439.559
 115038717.546 8  89640744.10345  21891152.914                    21891161.316
 110945144.671 7  86450901.250 7  21112176.898                    21112184.672
 112682462.504 8  87804611.337 7  21442729.633                    21442737.230
 118236819.545 7  92132724.67245  22499691.578                    22499698.023
 116741279.322 8  90967296.777 7  22215129.469                    22215140.609
 118476832.652 7  92319759.05545  22545409.477                    22545418.707
 127837813.090 6  99613965.92843  24326734.500                    24326744.480
 11  8 26  2 46 30.0000000  0 10G15G12G21G26G29G05G02G25G30G18
 118460523.789 7  92307034.294 7  22542287.164                    22542296.008
 121475840.443 7  94656569.192 6  23116085.664                    23116094.047
 128904466.438 6 100445114.82443  24529709.734                    24529717.887
 114973969.009 7  89590290.73145  21878831.766                    21878840.512
 110883160.082 7  86402601.614 7  21100381.531                    21100389.883
 112752992.640 8  87859569.891 7  21456151.297                    21456158.859
 118283430.278 7  92169044.74545  22508561.633                    22508567.445
 116795960.061 8  91009905.158 7  22225534.961                    22225545.930
 118536867.590 7  92366539.52445  22556834.031                    22556842.691
 127752544.335 7  99547522.91843  24310508.422                    24310518.246
 11  8 26  2 47  0.0000000  0 10G15G12G21G26G29G05G02G25G30G18
 118370620.382 7  92236979.746 7  22525178.961                    22525187.965
 121567216.873 7  94727771.576 6  23133473.938                    23133483.016
 128848098.035 6 100401191.49143  24518983.047                    24518992.137
 114909684.547 7  89540198.97545  21866598.773                    21866607.566
 110821488.629 8  86354545.980 7  21088646.008                    21088654.063
 112823789.599 8  87914736.356 7  21469623.688                    21469630.879
 118330144.185 7  92205445.21045  22517450.578                    22517457.668
 116851027.215 8  91052814.647 7  22236013.461                    22236024.973
 118597255.465 7  92413595.02645  22568325.711                    22568334.344
 127667468.166 7  99481229.95443  24294318.875                    24294328.098
 11  8 26  2 47 30.0000000  0 10G15G12G21G26G29G05G02G25G30G18
 118280916.544 7  92167080.704 7  22508109.070                    22508117.969
 121658701.695 7  94799058.429 6  23150883.063                    23150892.242
 128791699.146 6 100357244.41143  24508251.016                    24508259.164
 114845867.238 7  89490471.24545  21854454.477                    21854463.465
 110760132.619 8  86306736.139 7  21076969.992                    21076978.320
 112894850.637 8  87970108.593 7  21483146.109                    21483153.285
 118376961.619 7  92241926.32444  22526360.125                    22526366.156
 116906477.937 7  91096023.000 7  22246565.469                    22246576.930
 118657993.216 7  92460923.15245  22579883.219                    22579892.258
 127582586.011 7  99415088.18543  24278165.719                    24278175.418
 11  8 26  2 48  0.0000000  0 10G15G12G21G26G29G05G02G25G30G18
 118191415.329 7  92097339.546 7  22491077.328                    22491085.789
 121750291.216 7  94870426.885 6  23168312.383                    23168321.168
 128735269.382 6 100313273.26043  24497511.953                    24497520.988
 114782520.241 7  89441109.97945  21842400.039                    21842408.789
 110699093.977 8  86259173.607 7  21065355.055                    21065362.809
 112966172.985 8  88025684.447 7  21496718.328                    21496725.594
 118423882.935 7  92278488.41045  22535288.359                    22535295.652
 116962309.158 7  91139527.848 7  22257190.203                    22257200.938
 118719077.475 7  92508521.28945  22591507.836                    22591516.375
 127497898.349 7  99349097.96243  24262050.117                    24262059.957
 11  8 26  2 48 30.0000000  0 10G15G12G21G26G29G05G02G25G30G18
 118102120.490 7  92027759.209 7  22474085.328                    22474093.684
 121841982.889 7  94941874.929 6  23185760.125                    23185768.816
 128678808.530 6 100269277.93643  24486767.750                    24486777.594
 114719647.239 7  89392118.07045  21830435.461                    21830444.223
 110638376.002 8  86211860.942 7  21053800.664                    21053808.520
 113037754.904 8  88081462.570 7  21510339.914                    21510347.441
 118470908.983 7  92315132.07444  22544237.453                    22544244.324
 117018518.741 7  91183327.519 7  22267886.234                    22267897.641
 118780505.781 7  92556387.52645  22603197.195                    22603205.715
 127413406.978 6  99283260.66643  24245972.000                    24245981.383
 11  8 26  2 49  0.0000000  0 10G15G12G21G26G29G05G02G25G30G18
 118013034.701 7  91958341.765 7  22457132.859                    22457141.656
 121933774.058 7  95013400.496 6  23203227.625                    23203236.602
 128622316.045 6 100225257.92443  24476018.203                    24476027.004
 114657251.265 7  89343497.86845  21818562.414                    21818570.855
 110577980.877 7  86164799.856 7  21042307.602                    21042315.605
 113109593.781 8  88137440.920 7  21524010.367                    21524017.746
 118518040.060 7  92351857.60645  22553206.234                    22553212.512
 117075103.775 7  91227419.747 7  22278654.180                    22278665.145
 118842274.974 7  92604519.38745  22614950.922                    22614959.977
 127329112.764 6  99217577.00043  24229931.352                    24229940.395
 11  8 26  2 49 30.0000000  0 10G15G12G21G26G29G05G02G25G30G18
 117924161.156 7  91889089.691 7  22440220.602                    22440229.133
 122025661.181 7  95085000.829 6  23220713.000                    23220721.852
 128565791.372 6 100181212.81443  24465261.742                    24465270.477
 114595335.630 7  89295251.94345  21806779.867                    21806788.195
 110517910.685 7  86117991.959 7  21030876.727                    21030884.461
 113181687.260 8  88193617.654 7  21537729.375                    21537737.309
 118565276.653 7  92388665.33845  22562195.836                    22562201.086
 117132061.484 7  91271802.381 7  22289492.875                    22289503.492
 118904382.113 7  92652914.57245  22626769.609                    22626778.672
 127245016.659 6  99152047.74943  24213927.852                    24213938.223
 11  8 26  2 50  0.0000000  0 10G15G12G21G26G29G05G02G25G30G18
 117835503.122 7  91820005.544 7  22423349.367                    22423357.859
 122117641.153 7  95156673.493 6  23238215.750                    23238225.078
 128509234.260 6 100137142.45343  24454498.859                    24454507.398
 114533903.230 7  89247382.58445  21795089.617                    21795098.742
 110458168.027 8  86071439.289 7  21019508.320                    21019516.227
 113254032.594 8  88249990.646 7  21551496.273                    21551503.906
 118612619.230 7  92425555.65245  22571203.945                    22571210.418
 117189389.185 7  91316473.311 7  22300401.805                    22300413.035
 118966824.123 7  92701570.69745  22638651.953                    22638661.207
 127161119.997 6  99086673.89343  24197962.867                    24197972.570
 11  8 26  2 50 30.0000000  0 10G15G12G21G26G29G05G02G25G30G18
 117747063.999 7  91751092.000 7  22406519.492                    22406528.594
 122209711.473 7  95228416.577 6  23255736.586                    23255746.176
 128452644.598 6 100093046.70543  24443729.883                    24443739.203
 114472958.091 7  89199892.90545  21783492.320                    21783500.832
 110398755.591 7  86025143.920 7  21008202.445                    21008210.188
 113326627.913 8  88306558.430 7  21565310.508                    21565318.078
 118660068.189 7  92462528.87644  22580233.836                    22580239.133
 117247084.285 7  91361430.535 7  22311380.852                    22311391.793
 119029598.263 7  92750485.60044  22650597.664                    22650606.723
 127077424.131 6  99021456.54042  24182036.016                    24182045.207
 11  8 26  2 51  0.0000000  0 10G15G12G21G26G29G05G02G25G30G18
 117658846.241 7  91682350.938 7  22389732.516                    22389741.320
 122301868.466 7  95300227.198 6  23273273.477                    23273282.383
 128396021.074 6 100048924.58343  24432954.938                    24432963.844
 114412502.166 7  89152784.42145  21771987.734                    21771995.984
 110339674.520 7  85979106.764 7  20996959.852                    20996967.281
 113399469.682 8  88363318.257 7  21579172.016                    21579179.242
 118707623.808 7  92499585.17145  22589283.391                    22589289.246
 117305143.141 7  91406671.205 7  22322429.523                    22322440.188
 119092700.576 7  92799656.22645  22662605.547                    22662614.910
 126993929.260 6  98956395.75742  24166147.641                    24166156.461
 11  8 26  2 51 30.0000000  0 10G15G12G21G26G29G05G02G25G30G18
 117570852.905 7  91613784.733 7  22372988.344                    22372996.668
 122394109.188 7  95372103.062 6  23290826.250                    23290835.402
 128339363.593 6 100004775.99543  24422173.734                    24422181.703
 114352538.814 7  89106059.76345  21760576.922                    21760585.672
 110280927.827 7  85933330.155 7  20985780.477                    20985788.371
 113472555.872 8  88420268.543 7  21593079.633                    21593087.387
 118755286.812 7  92536725.19245  22598353.133                    22598359.758
 117363563.271 7  91452193.388 7  22333546.227                    22333556.910
 119156128.325 7  92849080.45044  22674675.000                    22674684.535
 126910636.568 6  98891492.55243  24150296.625                    24150306.105
 11  8 26  2 52  0.0000000  0 10G15G12G21G26G29G05G02G25G30G18
 117483087.471 7  91545396.128 7  22356287.172                    22356295.508
 122486430.780 6  95444041.938 6  23308394.539                    23308403.832
 128282671.901 6  99960600.73843  24411385.000                    24411393.676
 114293071.771 7  89059721.84445  21749260.969                    21749269.609
 110222518.061 7  85887816.083 7  20974665.453                    20974673.152
 113545884.184 8  88477407.500 7  21607033.398                    21607040.809
 118803057.599 7  92573949.14645  22607443.648                    22607448.859
 117422342.166 7  91497995.132 7  22344732.023                    22344742.551
 119219878.761 7  92898756.11044  22686806.602                    22686815.824
 126827547.705 6  98826748.15243  24134485.813                    24134495.148
 11  8 26  2 52 30.0000000  0 10G15G12G21G26G29G05G02G25G30G18
 117395553.023 7  91477187.510 7  22339629.531                    22339638.066
 122578830.349 7  95516041.582 6  23325978.352                    23325986.852
 128225945.641 6  99916398.54543  24400590.773                    24400599.461
 114234104.060 7  89013773.01845  21738039.594                    21738048.328
 110164447.500 7  85842566.330 7  20963615.055                    20963622.879
 113619452.405 8  88534733.382 7  21621033.180                    21621040.645
 118850936.590 8  92611257.45645  22616554.367                    22616560.777
 117481476.935 7  91544074.179 7  22355984.586                    22355995.070
 119283948.748 7  92948680.77845  22698999.031                    22699008.223
 126744663.280 6  98762163.04643  24118713.109                    24118722.633
 11  8 26  2 53  0.0000000  0 10G15G12G21G26G29G05G02G25G30G18
 117308253.079 7  91409161.626 7  22323016.648                    22323025.777
 122671305.306 7  95588099.945 6  23343575.445                    23343584.105
 128169184.596 6  99872169.26243  24389789.758                    24389798.570
 114175639.070 7  88968215.91645  21726914.484                    21726922.891
 110106719.121 7  85797583.213 7  20952629.414                    20952637.352
 113693258.404 8  88592244.556 7  21635077.711                    21635085.750
 118898924.449 7  92648650.56945  22625686.594                    22625692.781
 117540965.072 7  91590428.586 7  22367304.820                    22367315.516
 119348335.491 7  92998852.27744  22711251.375                    22711260.172
 126661984.924 7  98697738.50443  24102979.930                    24102989.426
 11  8 26  2 53 30.0000000  0 10G15G12G21G26G29G05G02G25G30G18
 117221190.629 7  91341320.795 7  22306449.523                    22306458.047
 122763852.344 7  95660214.487 6  23361186.469                    23361195.195
 128112388.553 6  99827912.69743  24378981.438                    24378989.953
 114117679.580 7  88923052.71245  21715885.172                    21715893.664
 110049335.096 8  85752868.424 7  20941709.680                    20941717.270
 113767299.562 8  88649938.967 7  21649167.469                    21649174.906
 118947021.509 7  92686128.76245  22634838.867                    22634844.766
 117600803.526 7  91637055.952 7  22378691.352                    22378702.555
 119413035.788 7  93049268.09944  22723563.391                    22723572.105
 126579513.533 6  98633475.23343  24087285.922                    24087295.770
 11  8 26  2 54  0.0000000  0 10G15G12G21G26G29G05G02G25G30G18
 117134368.114 7  91273666.930 7  22289927.742                    22289936.113
 122856467.839 6  95732382.378 6  23378810.523                    23378819.266
 128055556.164 6  99783627.84544  24368166.922                    24368175.043
 114060228.186 7  88878285.42445  21704951.828                    21704960.520
 109992296.848 8  85708423.060 7  20930855.516                    20930863.270
 113841572.677 8  88707814.121 7  21663301.336                    21663308.633
 118995228.205 7  92723692.42445  22644012.633                    22644018.789
 117660988.874 7  91683953.619 7  22390144.352                    22390155.160
 119478045.863 7  93099925.30244  22735934.367                    22735943.277
 126497249.536 6  98569373.55143  24071631.594                    24071641.164
 11  8 26  2 54 30.0000000  0 10G15G12G21G26G29G05G02G25G30G18
 117047788.710 7  91206202.491 7  22273452.250                    22273460.484
 122949148.814 7  95804601.311 6  23396446.789                    23396456.332
 127998687.386 6  99739314.56543  24357344.578                    24357353.359
 114003288.101 7  88833916.57045  21694116.570                    21694125.004
 109935606.939 8  85664249.134 7  20920067.719                    20920075.816
 113916075.583 8  88765868.338 7  21677478.461                    21677485.891
 119043545.223 7  92761341.99845  22653206.930                    22653213.023
 117721518.392 7  91731119.479 7  22401662.727                    22401673.977
 119543362.825 7  93150821.62744  22748363.969                    22748372.898
 126415193.901 6  98505434.26543  24056016.359                    24056026.324
 11  8 26  2 55  0.0000000  0 10G15G12G21G26G29G05G02G25G30G18
 116961455.911 7  91138930.233 7  22257023.461                    22257031.684
 123041893.003 6  95876869.480 6  23414095.703                    23414104.512
 127941782.007 6  99694972.79143  24346516.539                    24346524.488
 113946862.652 7  88789948.70845  21683379.430                    21683387.801
 109879268.154 8  85620348.798 7  20909346.961                    20909354.855
 113990806.185 8  88824099.981 7  21691698.992                    21691706.805
 119091972.853 7  92799077.80444  22662421.797                    22662428.023
 117782389.534 7  91778551.525 7  22413246.008                    22413257.445
 119608983.889 7  93201954.92344  22760851.000                    22760859.949
 126333348.115 6  98441658.43643  24040441.367                    24040451.281
 11  8 26  2 55 30.0000000  0 10G15G12G21G26G29G05G02G25G30G18
 116875372.957 7  91071852.646 7  22240642.148                    22240651.137
 123134697.376 6  95949184.548 6  23431755.883                    23431764.348
 127884839.948 6  99650602.41543  24335679.359                    24335688.129
 113890955.104 7  88746384.43345  21672740.430                    21672749.203
 109823282.953 8  85576723.988 7  20898693.359                    20898701.426
 114065762.245 8  88882507.304 7  21705963.125                    21705970.480
 119140511.626 7  92836900.19645  22671659.047                    22671664.742
 117843599.612 7  91826247.690 7  22424893.992                    22424904.965
 119674906.217 7  93253322.97044  22773395.438                    22773404.199
 126251713.381 6  98378047.08543  24024906.359                    24024916.613
 11  8 26  2 56  0.0000000  0 10G15G12G21G26G29G05G02G25G30G18
 116789542.839 7  91004972.101 7  22224309.125                    22224318.270
 123227558.695 6  96021543.982 6  23449426.891                    23449435.535
 127827860.736 6  99606203.09644  24324837.492                    24324845.656
 113835568.385 7  88703225.98645  21662200.695                    21662208.672
 109767653.678 8  85533376.521 7  20888107.328                    20888115.285
 114140941.126 8  88941088.251 7  21720268.680                    21720276.738
 119189162.199 7  92874809.71544  22680916.813                    22680923.090
 117905145.478 7  91874205.497 7  22436605.805                    22436616.973
 119741126.357 7  93304923.08345  22785997.180                    22786006.051
 126170290.347 6  98314600.71543  24009412.594                    24009422.047
 11  8 26  2 56 30.0000000  0 10G15G12G21G26G29G05G02G25G30G18
 116703968.542 7  90938290.896 7  22208024.867                    22208033.824
 123320474.089 7  96093945.561 6  23467108.094                    23467117.402
 127770843.786 6  99561774.38543  24313986.969                    24313995.340
 113780705.036 7  88660475.35845  21651760.781                    21651769.227
 109712382.339 8  85490307.971 7  20877589.133                    20877597.336
 114216340.411 8  88999840.945 7  21734616.688                    21734624.203
 119237924.870 7  92912806.57845  22690195.820                    22690201.594
 117967024.049 7  91922422.573 7  22448380.938                    22448391.563
 119807641.024 7  93356752.68045  22798654.195                    22798663.352
 126089079.706 6  98251319.82543  23993958.359                    23993968.391
 11  8 26  2 57  0.0000000  0 10G15G12G21G26G29G05G02G25G30G18
 116618653.032 7  90871811.334 7  22191789.844                    22191798.496
 123413440.165 6  96166386.630 6  23484799.359                    23484808.195
 127713788.770 6  99517316.01643  24303130.055                    24303138.344
 113726368.114 7  88618134.93945  21641420.234                    21641429.367
 109657471.199 8  85447520.095 7  20867140.039                    20867148.172
 114291957.701 8  89058763.507 7  21749006.430                    21749013.910
 119286800.017 7  92950891.10045  22699496.609                    22699502.918
 118029232.476 7  91970896.683 7  22460218.922                    22460229.973
 119874447.189 7  93408809.42644  22811366.344                    22811375.852
 126008082.653 6  98188205.37743  23978546.047                    23978554.457
 11  8 26  2 57 30.0000000  0 10G15G12G21G26G29G05G02G25G30G18
 116533599.677 7  90805536.056 7  22175605.211                    22175613.090
 123506454.227 6  96238865.091 6  23502499.133                    23502507.941
 127656695.472 6  99472827.79943  24292265.227                    24292273.742
 113672560.958 7  88576207.31745  21631181.266                    21631189.652
 109602922.864 7  85405014.927 7  20856759.813                    20856768.258
 114367790.647 8  89117854.106 7  21763436.938                    21763444.828
 119335788.313 7  92989063.79545  22708819.063                    22708824.719
 118091768.114 7  92019625.742 7  22472118.891                    22472129.906
 119941541.862 7  93461090.98345  22824134.422                    22824143.832
 125927300.361 6  98125258.26943  23963173.297                    23963181.844
 11  8 26  2 58  0.0000000  0 10G15G12G21G26G29G05G02G25G30G18
 116448811.235 7  90739467.186 7  22159469.992                    22159478.496
 123599513.300 6  96311378.608 6  23520207.492                    23520216.828
 127599563.086 6  99428309.11943  24281393.500                    24281401.758
 113619286.046 8  88534694.43145  21621043.367                    21621051.766
 109548739.254 7  85362793.960 8  20846449.016                    20846456.969
 114443836.645 8  89177110.738 7  21777907.914                    21777915.676
 119384890.123 7  93027324.93444  22718162.344                    22718168.918
 118154627.717 7  92068607.247 7  22484080.805                    22484091.535
 120008921.710 7  93513594.74345  22836956.891                    22836965.418
 125846733.514 7  98062479.03243  23947841.602                    23947850.160
 11  8 26  2 58 30.0000000  0 10G15G12G21G26G29G05G02G25G30G18
 116364291.442 7  90673607.656 7  22143386.984                    22143395.145
 123692614.732 6  96383925.134 6  23537923.953                    23537933.281
 127542391.691 6  99383760.09943  24270513.633                    24270522.316
 113566546.728 7  88493598.89445  21611007.438                    21611016.156
 109494923.272 7  85320859.460 7  20836208.219                    20836216.059
 114520093.618 8  89236531.747 7  21792419.203                    21792427.293
 119434106.294 7  93065675.19145  22727527.828                    22727534.047
 118217808.747 7  92117839.213 7  22496104.023                    22496114.742
 120076583.978 7  93566318.59544  22849832.516                    22849841.215
 125766383.254 6  97999868.60043  23932550.938                    23932560.625
 11  8 26  2 59  0.0000000  0 10G15G12G21G26G29G05G02G25G30G18
 116280043.092 7  90607959.641 7  22127354.633                    22127363.145
 123785755.348 6  96456502.206 6  23555648.023                    23555657.395
 127485181.175 6  99339180.58443  24259626.742                    24259635.414
 113514345.730 7  88452922.81945  21601073.945                    21601082.590
 109441477.289 7  85279213.263 7  20826037.719                    20826045.398
 114596559.079 8  89296115.222 7  21806970.227                    21806978.215
 119483437.084 7  93104114.76844  22736915.227                    22736921.844
 118281308.089 7  92167319.221 7  22508187.109                    22508198.023
 120144525.359 7  93619259.91745  22862760.992                    22862770.164
 125686250.732 6  97937427.80543  23917302.633                    23917311.109
 11  8 26  2 59 30.0000000  0 10G15G12G21G26G29G05G02G25G30G18
 116196068.887 7  90542525.238 7  22111375.008                    22111382.949
 123878932.161 6  96529107.471 6  23573378.852                    23573387.973
 127427930.883 6  99294570.08543  24248732.313                    24248740.910
 113462685.827 7  88412668.38545  21591242.922                    21591251.945
 109388403.262 8  85237856.903 8  20815938.359                    20815946.238
 114673230.612 8  89355859.278 7  21821560.117                    21821568.063
 119532883.098 7  93142644.13244  22746324.672                    22746331.328
 118345122.721 7  92217044.910 7  22520330.742                    22520341.832
 120212742.459 7  93672416.10644  22875742.641                    22875751.020
 125606336.316 7  97875156.97143  23902095.297                    23902104.301
 11  8 26  3  0  0.0000000  0 10G15G12G21G26G29G05G02G25G30G18
 116112372.285 7  90477307.132 7  22095448.430                    22095456.410
 123972142.277 7  96601738.685 6  23591116.648                    23591125.594
 127370640.383 6  99249928.25843  24237830.313                    24237838.832
 113411570.054 7  88372837.94845  21581516.289                    21581524.719
 109335703.377 8  85196792.081 8  20805909.711                    20805917.871
 114750106.002 8  89415762.188 7  21836189.141                    21836196.781
 119582444.655 7  93181263.52745  22755756.164                    22755762.406
 118409249.685 7  92267013.979 7  22532533.695                    22532544.949
 120281232.332 7  93725784.84145  22888775.672                    22888784.332
 125526641.189 6  97813056.98243  23886929.750                    23886938.848
 11  8 26  3  0 30.0000000  0 10G15G12G21G26G29G05G02G25G30G18
 116028955.966 7  90412307.436 7  22079574.391                    22079582.672
 124065382.505 6  96674393.381 6  23608860.195                    23608868.746
 127313309.260 6  99205254.77043  24226920.742                    24226928.848
 113361000.865 7  88333433.41145  21571893.727                    21571901.691
 109283379.893 7  85156020.558 8  20795952.602                    20795960.563
 114827182.579 8  89475821.860 7  21850856.234                    21850863.820
 119632122.354 7  93219973.42744  22765209.258                    22765215.387
 118473685.960 7  92317224.064 7  22544795.359                    22544806.195
 120349991.596 7  93779363.48945  22901860.359                    22901869.473
 125447166.288 6  97751128.61743  23871806.039                    23871814.793
 11  8 26  3  1  0.0000000  0 10G15G12G21G26G29G05G02G25G30G18
 115945823.276 7  90347528.754 7  22063754.523                    22063762.938
 124158650.445 7  96747069.676 6  23626608.094                    23626616.836
 127255937.603 6  99160549.71143  24216003.289                    24216011.344
 113310981.436 8  88294457.26745  21562374.906                    21562383.566
 109231435.490 8  85115544.429 8  20786068.633                    20786076.484
 114904458.100 8  89536036.547 7  21865561.586                    21865568.887
 119681916.798 7  93258774.28644  22774684.383                    22774690.824
 118538428.713 7  92367672.974 7  22557115.969                    22557126.754
 120419017.395 7  93833149.82645  22914995.492                    22915004.258
 125367912.299 6  97689372.38543  23856724.047                    23856733.059
 11  8 26  3  1 30.0000000  0 10G15G12G21G26G29G05G02G25G30G18
 115862977.492 7  90282973.655 7  22047989.188                    22047997.977
 124251942.955 7  96819765.099 6  23644361.031                    23644370.027
 127198525.184 6  99115812.87443  24205078.430                    24205086.301
 113261514.659 7  88255911.74545  21552961.703                    21552970.090
 109179872.334 8  85075365.377 7  20776256.242                    20776263.605
 114981930.247 8  89596404.464 7  21880304.289                    21880311.207
 119731828.381 7  93297666.42744  22784182.984                    22784189.203
 118603475.090 7  92418358.473 7  22569493.766                    22569504.520
 120488306.556 7  93887141.38745  22928181.141                    22928189.430
 125288880.421 6  97627789.22243  23841685.047                    23841694.391
 11  8 26  3  2  0.0000000  0 10G15G12G21G26G29G05G02G25G30G18
 115780421.370 7  90218644.246 7  22032279.422                    22032287.770
 124345256.965 7  96892477.281 6  23662118.805                    23662126.781
 127141071.307 6  99071043.73143  24194144.898                    24194152.715
 113212603.013 8  88217798.81445  21543654.195                    21543662.516
 109128692.499 8  85035485.007 7  20766516.945                    20766524.332
 115059597.005 8  89656924.025 7  21895082.930                    21895091.008
 119781857.543 7  93336650.18445  22793702.586                    22793709.395
 118668821.922 7  92469278.084 7  22581928.680                    22581939.445
 120557855.792 7  93941335.58545  22941415.336                    22941424.262
 125210071.236 6  97566379.58643  23826686.930                    23826696.887
 11  8 26  3  2 30.0000000  0 10G15G12G21G26G29G05G02G25G30G18
 115698157.966 7  90154542.933 7  22016624.961                    22016633.703
 124438589.408 7  96965203.833 6  23679878.633                    23679888.641
 127083575.915 6  99026242.25343  24183203.367                    24183212.285
 113164249.085 8  88180120.45545  21534452.195                    21534461.074
 109077898.253 8  84995905.100 7  20756850.930                    20756858.934
 115137455.463 8  89717592.938 7  21909899.094                    21909906.641
 119832004.825 7  93375725.98244  22803246.109                    22803252.059
 118734466.064 7  92520429.362 7  22594420.281                    22594431.219
 120627661.737 7  93995729.82645  22954699.344                    22954707.711
 125131485.606 6  97505144.14143  23811732.773                    23811742.211
 11  8 26  3  3  0.0000000  0 10G15G12G21G26G29G05G02G25G30G18
 115616190.388 7  90090672.140 7  22001027.430                    22001035.773
 124531937.607 6  97037942.660 6  23697642.258                    23697651.340
 127026038.713 6  98981408.20744  24172254.484                    24172262.465
 113116455.913 8  88142879.05245  21525357.734                    21525366.063
 109027491.968 8  84956627.495 8  20747259.086                    20747266.594
 115215503.589 8  89778409.663 7  21924751.773                    21924759.598
 119882270.794 7  93414894.27544  22812811.195                    22812817.023
 118800404.577 7  92571810.019 7  22606968.055                    22606979.086
 120697721.312 7  94050321.69244  22968030.375                    22968040.176
 125053124.501 6  97444083.63443  23796821.945                    23796830.563
 11  8 26  3  3 30.0000000  0 10G15G12G21G26G29G05G02G25G30G18
 115534521.998 7  90027034.491 7  21985486.148                    21985494.875
 124625299.030 7  97110691.770 6  23715408.422                    23715417.535
 126968459.586 7  98936541.46543  24161297.602                    24161305.441
 113069226.484 8  88106076.93145  21516370.125                    21516378.703
 108977476.299 8  84917654.268 8  20737741.172                    20737749.094
 115293739.180 8  89839372.459 7  21939639.156                    21939646.715
 119932655.953 7  93454155.43244  22822398.453                    22822404.813
 118866634.894 7  92623418.050 7  22619571.250                    22619582.301
 120768031.720 7  94105108.99844  22981410.750                    22981419.492
 124974988.962 6  97383198.93043  23781953.094                    23781962.348
 11  8 26  3  4  0.0000000  0 10G15G12G21G26G29G05G02G25G30G18
 115453155.591 7  89963632.134 7  21970002.969                    21970011.238
 124718670.351 6  97183448.614 6  23733176.227                    23733185.105
 126910837.908 7  98891641.54344  24150332.227                    24150340.434
 113022563.123 8  88069715.90445  21507490.883                    21507499.004
 108927853.165 8  84878986.912 8  20728298.164                    20728306.023
 115372159.598 8  89900479.272 7  21954561.805                    21954569.938
 119983160.982 7  93493509.98644  22832009.898                    22832016.102
 118933153.829 7  92675250.990 7  22632229.148                    22632240.305
 120838589.723 7  94160089.24644  22994836.930                    22994846.383
 124897079.734 6  97322490.52943  23767127.672                    23767136.594
 11  8 26  3  4 30.0000000  0 10G15G12G21G26G29G05G02G25G30G18
 115372093.781 7  89900467.137 7  21954577.344                    21954585.324
 124812048.724 6  97256210.927 6  23750945.563                    23750955.191
 126853173.131 7  98846708.05943  24139359.117                    24139366.910
 112976468.424 8  88033797.98745  21498719.211                    21498727.594
 108878624.619 8  84840627.027 7  20718930.563                    20718938.047
 115450762.854 8  89961728.559 7  21969519.719                    21969527.160
 120033786.111 7  93532958.12944  22841643.453                    22841649.484
 118999958.127 7  92727306.296 7  22644941.680                    22644952.445
 120909391.685 6  94215259.59244  23008309.844                    23008319.160
 124819397.372 6  97261958.93643  23752344.742                    23752353.449
 11  8 26  3  5  0.0000000  0 10G15G12G21G26G29G05G02G25G30G18
 115291340.156 7  89837542.279 7  21939210.313                    21939218.684
 124905431.147 6  97328976.390 6  23768715.680                    23768725.656
 126795465.242 7  98801740.96943  24128377.609                    24128385.305
 112930944.834 8  87998325.09245  21490056.211                    21490064.594
 108829792.621 8  84802576.146 7  20709637.766                    20709645.355
 115529546.253 8  90023118.233 7  21984511.898                    21984519.594
 120084531.842 7  93572500.25444  22851299.883                    22851306.074
 119067044.589 7  92779581.461 7  22657707.633                    22657718.883
 120980434.453 7  94270617.58644  23021829.711                    23021838.875
 124741942.629 6  97201604.67443  23737605.922                    23737614.273
 11  8 26  3  5 30.0000000  0 10G15G12G21G26G29G05G02G25G30G18
 115210897.125 7  89774859.440 7  21923902.383                    21923910.883
 124998814.642 6  97401742.705 6  23786486.023                    23786495.723
 126737714.076 6  98756740.18443  24117387.766                    24117396.313
 112885994.960 8  87963299.24445  21481502.305                    21481510.508
 108781359.811 8  84764836.315 7  20700421.477                    20700429.211
 115608507.738 8  90084646.665 7  21999537.883                    21999545.043
 120135398.756 7  93612136.80044  22860979.383                    22860986.254
 119134410.349 7  92832074.277 7  22670527.016                    22670537.754
 121051714.871 7  94326160.76444  23035394.016                    23035402.996
 124664716.432 6  97141428.50143  23722909.547                    23722918.055
 11  8 26  3  6  0.0000000  0 10G15G12G21G26G29G05G02G25G30G18
 115130768.519 7  89712421.613 7  21908654.516                    21908662.922
 125092196.890 7  97474508.062 6  23804256.367                    23804265.336
 126679919.459 6  98711705.52444  24106389.594                    24106397.648
 112841622.183 7  87928723.10245  21473058.617                    21473066.848
 108733328.674 8  84727409.475 7  20691281.414                    20691288.879
 115687644.962 8  90146312.028 7  22014597.414                    22014604.355
 120186387.619 7  93651868.41444  22870682.422                    22870688.703
 119202052.802 7  92884782.714 7  22683399.172                    22683410.105
 121123230.169 7  94381887.01044  23049002.727                    23049011.699
 124587719.987 7  97081431.35844  23708257.656                    23708265.785
 11  8 26  3  6 30.0000000  0 10G15G12G21G26G29G05G02G25G30G18
 115050957.068 7  89650230.906 7  21893466.703                    21893475.508
 125185574.935 7  97547270.115 6  23822025.586                    23822034.703
 126622080.918 6  98666636.61643  24095382.742                    24095391.098
 112797828.629 8  87894598.28045  21464724.641                    21464733.098
 108685701.409 8  84690297.345 8  20682218.531                    20682226.086
 115766955.709 8  90208112.619 7  22029689.508                    22029696.652
 120237498.748 7  93691695.21444  22880408.539                    22880414.922
 119269968.846 7  92937704.293 7  22696322.805                    22696334.227
 121194977.178 7  94437793.75044  23062655.680                    23062664.980
 124510953.974 6  97021613.80343  23693649.570                    23693658.129
 11  8 26  3  7  0.0000000  0 10G15G12G21G26G29G05G02G25G30G18
 114971465.863 7  89588289.740 7  21878340.047                    21878348.453
 125278945.654 6  97620026.479 6  23839793.391                    23839802.938
 126564198.695 6  98621533.68144  24084368.414                    24084376.637
 112754616.861 8  87860926.79845  21456501.711                    21456510.125
 108638480.196 8  84653501.602 7  20673232.328                    20673239.727
 115846437.660 7  90270046.616 7  22044814.367                    22044821.578
 120288732.790 7  93731617.84844  22890158.234                    22890164.652
 119338155.345 7  92990836.638 7  22709298.430                    22709309.781
 121266952.613 7  94493878.47944  23076351.938                    23076361.031
 124434419.127 6  96961976.32743  23679085.516                    23679094.059
 11  8 26  3  7 30.0000000  0 10G15G12G21G26G29G05G02G25G30G18
 114892297.660 7  89526600.266 7  21863275.141                    21863283.000
 125372306.418 7  97692775.068 6  23857559.531                    23857568.547
 126506272.173 6  98576396.22343  24073345.313                    24073353.164
 112711989.394 8  87827710.62345  21448389.984                    21448398.695
 108591666.897 8  84617023.732 8  20664324.086                    20664331.922
 115926088.271 8  90332112.028 7  22059970.773                    22059978.598
 120340090.158 7  93771636.56444  22899930.875                    22899937.090
 119406609.031 7  93044177.175 7  22722324.984                    22722335.711
 121339152.955 7  94550138.47145  23090091.180                    23090100.043
 124358116.015 7  96902519.47043  23664565.703                    23664574.031
 11  8 26  3  8  0.0000000  0 10G15G12G21G26G29G05G02G25G30G18
 114813455.336 7  89465164.724 7  21848271.664                    21848279.441
 125465654.008 7  97765513.394 6  23875322.758                    23875331.953
 126448300.949 6  98531223.92943  24062313.094                    24062321.508
 112669948.319 7  87794951.36845  21440389.875                    21440398.133
 108545263.651 8  84580865.371 8  20655493.781                    20655501.496
 116005905.610 7  90394307.357 7  22075159.984                    22075167.535
 120391571.160 7  93811751.63344  22909727.844                    22909734.129
 119475326.902 7  93097723.560 7  22735401.289                    22735412.195
 121411575.102 7  94606571.30044  23103872.570                    23103881.703
 124282045.284 7  96843243.67343  23650089.500                    23650098.000
 11  8 26  3  8 30.0000000  0 10G15G12G21G26G29G05G02G25G30G18
 114734942.368 7  89403985.829 7  21833330.930                    21833339.063
 125558985.889 7  97838239.485 6  23893083.414                    23893092.434
 126390285.362 6  98486017.07543  24051273.273                    24051280.887
 112628496.690 8  87762651.42845  21432501.781                    21432509.906
 108499272.953 8  84545028.489 8  20646742.328                    20646749.867
 116085887.578 7  90456630.975 7  22090379.594                    22090387.469
 120443176.427 7  93851963.51544  22919547.594                    22919553.742
 119544306.016 7  93151473.517 7  22748527.656                    22748538.605
 121484215.992 7  94663174.58944  23117696.141                    23117705.152
 124206207.845 7  96784149.67443  23635658.008                    23635666.574
 11  8 26  3  9  0.0000000  0 10G15G12G21G26G29G05G02G25G30G18
 114656761.479 7  89343065.693 7  21818453.891                    21818461.711
 125652299.272 7  97910951.168 6  23910840.719                    23910849.602
 126332225.104 6  98440775.38543  24040225.016                    24040232.574
 112587636.910 8  87730812.66445  21424726.453                    21424734.664
 108453697.272 8  84509514.994 8  20638069.250                    20638076.691
 116166031.597 7  90519080.851 7  22105630.984                    22105638.582
 120494906.742 7  93892272.84744  22929392.000                    22929398.012
 119613543.543 7  93205424.828 7  22761703.305                    22761714.168
 121557072.487 7  94719945.87844  23131559.969                    23131568.906
 124130604.642 7  96725238.18143  23621270.727                    23621279.512
 11  8 26  3  9 30.0000000  0 10G15G12G21G26G29G05G02G25G30G18
 114578915.619 7  89282406.625 7  21803640.195                    21803648.027
 125745591.083 7  97983646.101 6  23928593.445                    23928602.859
 126274119.292 6  98395498.22844  24029167.281                    24029175.594
 112547371.167 8  87699436.79145  21417064.086                    21417072.773
 108408538.220 8  84474326.150 8  20629475.547                    20629483.191
 116246335.574 7  90581655.392 7  22120911.930                    22120919.430
 120546762.456 7  93932679.89044  22939259.813                    22939265.543
 119683036.064 7  93259574.823 7  22774927.313                    22774938.164
 121630141.276 7  94776882.60344  23145464.453                    23145473.254
 124055236.401 7  96666509.78744  23606928.555                    23606938.023
 11  8 26  3 10  0.0000000  0 10G15G12G21G26G29G05G02G25G30G18
 114501407.664 7  89222010.844 7  21788891.117                    21788899.242
 125838858.527 6  98056321.981 6  23946341.797                    23946351.137
 126215968.378 7  98350185.90243  24018101.453                    24018109.609
 112507701.751 8  87668525.58145  21409515.438                    21409523.082
 108363798.249 8  84439463.843 8  20620962.172                    20620969.461
 116326797.042 8  90644352.640 7  22136223.781                    22136230.934
 120598744.078 7  93973185.04344  22949151.547                    22949157.504
 119752780.577 7  93313921.190 7  22788198.859                    22788210.051
 121703419.110 7  94833982.23144  23159408.867                    23159417.508
 123980103.482 7  96607964.72644  23592631.242                    23592640.238
 11  8 26  3 10 30.0000000  0 10G15G12G21G26G29G05G02G25G30G18
 114424240.484 8  89161880.606 7  21774206.250                    21774214.305
 125932099.085 6  98128976.906 6  23964084.367                    23964094.219
 126157771.761 7  98304837.95744  24007027.711                    24007035.051
 112468631.268 8  87638081.07945  21402080.477                    21402088.617
 108319478.924 8  84404929.322 8  20612528.570                    20612536.129
 116407413.757 7  90707170.863 7  22151564.414                    22151571.516
 120650851.859 7  94013788.49744  22959067.211                    22959073.391
 119822774.076 7  93368461.568 7  22801518.289                    22801529.516
 121776902.806 6  94891242.26044  23173392.391                    23173401.570
 123905206.593 6  96549603.60643  23578379.594                    23578388.168
 11  8 26  3 11  0.0000000  0 10G15G12G21G26G29G05G02G25G30G18
 114347417.482 7  89102018.563 7  21759587.695                    21759595.449
 126025309.961 6  98201608.687 6  23981821.891                    23981831.621
 126099529.517 7  98259454.49344  23995944.492                    23995952.734
 112430162.096 8  87608105.12645  21394759.953                    21394768.457
 108275583.140 8  84370724.834 8  20604175.063                    20604183.051
 116488183.847 7  90770108.604 7  22166934.719                    22166941.879
 120703086.545 7  94054490.83544  22969007.453                    22969013.672
 119893013.661 7  93423193.691 7  22814884.359                    22814895.445
 121850589.424 7  94948660.41444  23187413.961                    23187423.801
 123830546.742 6  96491427.19643  23564171.898                    23564180.355
 11  8 26  3 11 30.0000000  0 10G15G12G21G26G29G05G02G25G30G18
 114270940.901 7  89042426.456 7  21745034.242                    21745042.180
 126118487.865 6  98274214.796 6  23999553.133                    23999563.098
 126041241.171 7  98214035.08644  23984853.008                    23984859.723
 112392296.124 7  87578599.20345  21387554.422                    21387562.977
 108232112.324 8  84336851.491 8  20595903.063                    20595910.711
 116569104.605 7  90833163.749 7  22182333.359                    22182340.648
 120755448.593 6  94095292.42044  22978970.805                    22978977.926
 119963495.716 7  93478114.766 7  22828297.047                    22828307.352
 121924475.221 7  95006233.76644  23201474.234                    23201483.195
 123756124.256 6  96433435.73244  23550009.641                    23550018.000
 11  8 26  3 12  0.0000000  0 10G15G12G21G26G29G05G02G25G30G18
 114194813.990 7  88983106.831 7  21730547.641                    21730556.133
 126211630.201 6  98346793.188 6  24017277.992                    24017287.469
 125982906.539 7  98168579.59843  23973751.547                    23973758.953
 112355035.681 8  87549565.12345  21380463.930                    21380472.047
 108189068.715 8  84303311.033 8  20587711.992                    20587719.676
 116650173.807 7  90896334.563 7  22197760.109                    22197767.555
 120807938.686 7  94136193.77444  22988959.766                    22988965.652
 120034217.358 7  93533222.530 7  22841755.172                    22841766.148
 121998557.075 7  95063959.86344  23215571.461                    23215581.191
 123681939.842 6  96375629.78644  23535892.914                    23535901.000
 11  8 26  3 12 30.0000000  0 10G15G12G21G26G29G05G02G25G30G18
 114119040.028 8  88924062.220 7  21716129.070                    21716136.914
 126304734.487 6  98419341.924 6  24034994.727                    24035004.793
 125924525.953 7  98123088.30144  23962642.063                    23962649.898
 112318383.469 8  87521004.97845  21373489.125                    21373497.297
 108146454.852 8  84270105.442 8  20579603.086                    20579610.488
 116731389.514 7  90959619.538 7  22213215.125                    22213222.391
 120860557.114 7  94177195.14544  22998972.789                    22998979.086
 120105175.928 8  93588514.930 7  22855257.922                    22855268.605
 122072832.240 7  95121836.60344  23229705.344                    23229714.438
 123607994.631 6  96318010.22344  23521821.273                    23521829.660
 11  8 26  3 13  0.0000000  0 10G15G12G21G26G29G05G02G25G30G18
 114043621.750 7  88865294.770 7  21701776.820                    21701785.016
 126397797.791 7  98491858.730 6  24052703.922                    24052713.508
 125866099.023 7  98077560.91244  23951524.680                    23951531.590
 112282341.645 8  87492920.46745  21366630.609                    21366639.059
 108104272.778 8  84237236.302 8  20571576.211                    20571583.215
 116812749.483 7  91023016.914 7  22228697.047                    22228704.891
 120913304.531 7  94218297.01144  23009010.086                    23009016.691
 120176368.164 7  93643989.406 7  22868805.727                    22868815.988
 122147297.402 6  95179861.36944  23243876.094                    23243884.758
 123534289.158 6  96260577.46344  23507795.664                    23507803.559
 11  8 26  3 13 30.0000000  0 10G15G12G21G26G29G05G02G25G30G18
 113968562.289 7  88806806.918 7  21687493.523                    21687501.668
 126490817.571 7  98564341.608 6  24070405.930                    24070415.160
 125807625.511 7  98031997.20044  23940396.477                    23940403.887
 112246912.702 8  87465313.52745  21359888.797                    21359896.723
 108062524.757 8  84204705.400 8  20563631.656                    20563639.184
 116894251.901 7  91086525.299 7  22244206.078                    22244214.184
 120966181.586 7  94259499.88244  23019072.438                    23019079.211
 120247791.058 7  93699643.610 7  22882396.906                    22882407.660
 122221949.386 7  95238031.69344  23258081.680                    23258090.918
 123460823.997 7  96203331.97644  23493815.438                    23493823.813
 11  8 26  3 14  0.0000000  0 10G15G12G21G26G29G05G02G25G30G18
 113893863.863 7  88748600.393 7  21673278.594                    21673287.094
 126583790.618 7  98636788.108 6  24088097.797                    24088107.180
 125749105.421 7  97986397.22344  23929260.461                    23929267.863
 112212098.043 8  87438185.24245  21353263.945                    21353271.570
 108021212.220 8  84172513.834 8  20555770.109                    20555777.340
 116975893.930 7  91150142.463 7  22259742.516                    22259750.379
 121019188.313 7  94300803.82744  23029159.555                    23029165.949
 120319441.047 8  93755474.761 7  22896031.484                    22896042.438
 122296784.585 7  95296344.82944  23272321.992                    23272331.641
 123387599.461 7  96146274.00244  23479881.477                    23479889.414
 11  8 26  3 14 30.0000000  0 10G15G12G21G26G29G05G02G25G30G18
 113819529.485 8  88690677.540 7  21659133.125                    21659141.531
 126676714.105 7  98709195.973 6  24105780.586                    24105789.316
 125690538.432 7  97940760.68244  23918115.633                    23918123.504
 112177900.136 8  87411537.55245  21346756.039                    21346764.371
 107980337.325 8  84140663.278 8  20547992.078                    20547999.516
 117057673.529 7  91213866.833 7  22275304.859                    22275312.543
 121072325.468 7  94342209.35444  23039270.977                    23039276.844
 120391315.316 7  93811480.673 7  22909708.875                    22909719.574
 122371799.988 7  95354798.36944  23286597.430                    23286606.813
 123314616.222 7  96089404.03444  23465993.203                    23466001.223
